[[{"header":{"parameterUnit":"m.s-1","parameterCategory":1,"la1":31.0,"la2":29.5877,"lo1":-88.7671,"lo2":-86.6584,"dy":0.0162,"dx":0.0185,"nx":115,"ny":88,"refTime":"2024-04-15T06:00:00:Z","depth":0,"parameterNumber":2,"parameterNumberName":"U-component_of_WINDS"},"data":[0.0,0.0,0.0,0.0,0.0,0.0,0.0,0.0,0.0,0.0,0.0,0.0,0.0,0.0,0.0,0.0,0.0,0.0,0.0,0.0,0.0,0.0,0.0,0.0,0.0,0.0,0.0,0.0,0.0,0.0,0.0,0.0,0.0,0.0,0.0,0.0,0.0,0.0,0.0,0.0,0.0,0.0,0.0,0.0,0.0,0.0,0.0,0.0,0.0,0.0,0.0,0.0,0.0,0.0,0.0,0.0,0.0,0.0,0.0,0.0,0.0,0.0,0.0,0.0,0.0,0.0,0.0,0.0,0.0,0.0,0.0,0.0,0.0,0.0,0.0,0.0,0.0,0.0,0.0,0.0,0.0,0.0,0.0,0.0,0.0,0.0,0.0,0.0,0.0,0.0,0.0,0.0,0.0,0.0,0.0,0.0,0.0,0.0,0.0,0.0,0.0,0.0,0.0,0.0,0.0,0.0,0.0,0.0,0.0,0.0,0.0,0.0,0.0,0.0,0.0,0.0,0.0,0.0,0.0,0.0,0.0,0.0,0.0,0.0,0.0,0.0,0.0,0.0,0.0,0.0,0.0,0.0,0.0,0.0,0.0,0.0,0.0,0.0,0.0,0.0,0.0,0.0,0.0,0.0,0.0,0.0,0.0,0.0,0.0,0.0,0.0,0.0,0.0,0.0,0.0,0.0,0.0,0.0,0.0,0.0,0.0,0.0,0.0,0.0,0.0,0.0,0.0,0.0,0.0,0.0,0.0,0.0,0.0,0.0,0.0,0.0,0.0,0.0,0.0,0.0,0.0,0.0,0.0,0.0,0.0,0.0,0.0,0.0,0.0,0.0,0.0,0.0,0.0,0.0,0.0,0.0,0.0,0.0,0.0,0.0,0.0,0.0,0.0,0.0,0.0,0.0,0.0,0.0,0.0,0.0,0.0,0.0,0.0,0.0,0.0,0.0,0.0,0.0,0.0,0.0,0.0,0.0,0.0,0.0,0.0,0.0,0.0,0.0,0.0,0.0,0.0,0.0,0.0,0.0,0.0,0.0,0.0,0.0,0.0,0.0,0.0,0.0,0.0,0.0,0.0,0.0,0.0,0.0,0.0,0.0,0.0,0.0,0.0,0.0,0.0,0.0,0.0,0.0,0.0,0.0,0.0,0.0,0.0,0.0,0.0,0.0,0.0,0.0,0.0,0.0,0.0,0.0,0.0,0.0,0.0,0.0,0.0,0.0,0.0,0.0,0.0,0.0,0.0,0.0,0.0,0.0,0.0,0.0,0.0,0.0,0.0,0.0,0.0,0.0,0.0,0.0,0.0,0.0,0.0,0.0,0.0,0.0,0.0,0.0,0.0,0.0,0.0,0.0,0.0,0.0,0.0,0.0,0.0,0.0,0.0,0.0,0.0,0.0,0.0,0.0,0.0,0.0,0.0,0.0,0.0,0.0,0.0,0.0,0.0,0.0,0.0,0.0,0.0,0.0,0.0,0.0,0.0,0.0,0.0,0.0,0.0,0.0,0.0,0.0,0.0,0.0,0.0,0.0,0.0,0.0,0.0,0.0,0.0,0.0,0.0,0.0,0.0,0.0,0.0,0.0,0.0,0.0,0.0,0.0,0.0,0.0,0.0,0.0,0.0,0.0,0.0,0.0,0.0,0.0,0.0,0.0,0.0,0.0,0.0,0.0,0.0,0.0,0.0,0.0,0.0,0.0,0.0,0.0,0.0,0.0,0.0,0.0,0.0,0.0,0.0,0.0,0.0,0.0,0.0,0.0,0.0,0.0,0.0,0.0,0.0,0.0,0.0,0.0,0.0,0.0,0.0,0.0,0.0,0.0,0.0,0.0,0.0,0.0,0.0,0.0,0.0,0.0,0.0,0.0,0.0,0.0,0.0,0.0,0.0,0.0,0.0,0.0,0.0,0.0,0.0,0.0,0.0,0.0,0.0,0.0,0.0,0.0,0.0,0.0,0.0,0.0,0.0,0.0,0.0,0.0,0.0,0.0,0.0,0.0,0.0,0.0,0.0,0.0,0.0,0.0,0.0,0.0,0.0,0.0,0.0,0.0,0.0,0.0,0.0,0.0,0.0,0.0,0.0,0.0,0.0,0.0,0.0,0.0,0.0,0.0,0.0,0.0,0.0,0.0,0.0,0.0,0.0,0.0,0.0,0.0,0.0,0.0,0.0,0.0,0.0,0.0,0.0,0.0,0.0,0.0,0.0,0.0,0.0,0.0,0.0,0.0,0.0,0.0,0.0,0.0,0.0,0.0,0.0,0.0,0.0,0.0,0.0,0.0,0.0,0.0,0.0,0.0,0.0,0.0,0.0,0.0,0.0,0.0,0.0,0.0,0.0,0.0,0.0,0.0,0.0,0.0,0.0,0.0,0.0,0.0,0.0,0.0,0.0,0.0,0.0,0.0,0.0,0.0,0.0,0.0,0.0,0.0,0.0,0.0,0.0,0.0,0.0,0.0,0.0,0.0,0.0,0.0,0.0,0.0,0.0,0.0,0.0,0.0,0.0,0.0,0.0,0.0,0.0,0.0,0.0,0.0,0.0,0.0,0.0,0.0,0.0,0.0,0.0,0.0,0.0,0.0,0.0,0.0,0.0,0.0,0.0,0.0,0.0,0.0,0.0,0.0,0.0,0.0,0.0,0.0,0.0,0.0,0.0,0.0,0.0,0.0,0.0,0.0,0.0,0.0,0.0,0.0,0.0,0.0,0.0,0.0,0.0,0.0,0.0,0.0,0.0,0.0,0.0,0.0,0.0,0.0,0.0,0.0,0.0,0.0,0.0,0.0,0.0,0.0,0.0,0.0,0.0,0.0,0.0,0.0,0.0,0.0,0.0,0.0,0.0,0.0,0.0,0.0,0.0,0.0,0.0,0.0,0.0,0.0,0.0,0.0,0.0,0.0,0.0,0.0,0.0,0.0,0.0,0.0,0.0,0.0,0.0,0.0,0.0,0.0,0.0,0.0,0.0,0.0,0.0,0.0,0.0,0.0,0.0,0.0,0.0,0.0,0.0,0.0,0.0,0.0,0.0,0.0,0.0,0.0,0.0,0.0,0.0,0.0,0.0,0.0,0.0,0.0,0.0,0.0,0.0,0.0,0.0,0.0,0.0,0.0,0.0,0.0,0.0,0.0,0.0,0.0,0.0,0.0,0.0,0.0,0.0,0.0,0.0,0.0,0.0,0.0,0.0,0.0,0.0,0.0,0.0,0.0,0.0,0.0,0.0,0.0,0.0,0.0,0.0,0.0,0.0,0.0,0.0,0.0,0.0,0.0,0.0,0.0,0.0,0.0,0.0,0.0,0.0,0.0,0.0,0.0,0.0,0.0,0.0,0.0,0.0,0.0,0.0,0.0,0.0,0.0,0.0,0.0,0.0,0.0,0.0,0.0,0.0,0.0,0.0,0.0,0.0,0.0,0.0,0.0,0.0,0.0,0.0,0.0,0.0,0.0,0.0,0.0,0.0,0.0,0.0,0.0,0.0,0.0,0.0,0.0,0.0,0.0,0.0,0.0,0.0,0.0,0.0,0.0,0.0,0.0,0.0,0.0,0.0,0.0,0.0,0.0,0.0,0.0,0.0,0.0,0.0,0.0,0.0,0.0,0.0,0.0,0.0,0.0,0.0,0.0,0.0,0.0,0.0,0.0,0.0,0.0,0.0,0.0,0.0,0.0,0.0,0.0,0.0,0.0,0.0,0.0,0.0,0.0,0.0,0.0,0.0,0.0,0.0,0.0,0.0,0.0,0.0,0.0,0.0,0.0,0.0,0.0,0.0,0.0,0.0,0.0,0.0,0.0,0.0,0.0,0.0,0.0,0.0,0.0,0.0,0.0,0.0,0.0,0.0,0.0,0.0,0.0,0.0,0.0,0.0,0.0,0.0,0.0,0.0,0.0,0.0,0.0,0.0,0.0,0.0,0.0,0.0,0.0,0.0,0.0,0.0,0.0,0.0,0.0,0.0,0.0,0.0,0.0,0.0,0.0,0.0,0.0,0.0,0.0,0.0,0.0,0.0,0.0,0.0,0.0,0.0,0.0,0.0,0.0,0.0,0.0,0.0,0.0,0.0,0.0,0.0,0.0,0.0,0.0,0.0,0.0,0.0,0.0,0.0,0.0,0.0,0.0,0.0,0.0,0.0,0.0,0.0,0.0,0.0,0.0,0.0,0.0,0.0,0.0,0.0,0.0,0.0,0.0,0.0,0.0,0.0,0.0,0.0,0.0,0.0,0.0,0.0,0.0,0.0,0.0,0.0,0.0,0.0,0.0,-4.0577,0.0,0.0,0.0,0.0,0.0,0.0,0.0,0.0,0.0,0.0,0.0,0.0,0.0,0.0,0.0,0.0,0.0,0.0,0.0,0.0,0.0,0.0,0.0,0.0,0.0,0.0,0.0,0.0,0.0,0.0,0.0,0.0,0.0,0.0,0.0,0.0,0.0,0.0,0.0,0.0,0.0,0.0,0.0,0.0,0.0,0.0,0.0,0.0,0.0,0.0,0.0,0.0,0.0,0.0,0.0,0.0,0.0,0.0,0.0,0.0,0.0,0.0,0.0,0.0,0.0,0.0,0.0,0.0,0.0,0.0,0.0,0.0,0.0,0.0,0.0,0.0,0.0,0.0,0.0,0.0,0.0,0.0,0.0,0.0,0.0,0.0,0.0,0.0,0.0,0.0,0.0,0.0,0.0,0.0,0.0,0.0,0.0,0.0,0.0,0.0,0.0,0.0,0.0,0.0,0.0,0.0,0.0,0.0,0.0,0.0,-4.4672,-4.3534,-4.318,-4.2299,-4.0719,0.0,0.0,0.0,0.0,0.0,0.0,0.0,0.0,0.0,0.0,0.0,0.0,0.0,0.0,0.0,0.0,0.0,0.0,0.0,0.0,0.0,0.0,0.0,0.0,0.0,0.0,0.0,0.0,0.0,0.0,0.0,0.0,0.0,0.0,0.0,0.0,0.0,0.0,0.0,0.0,0.0,0.0,0.0,0.0,0.0,0.0,0.0,0.0,0.0,0.0,0.0,0.0,0.0,0.0,0.0,0.0,0.0,0.0,0.0,0.0,0.0,0.0,0.0,0.0,0.0,0.0,0.0,0.0,0.0,0.0,0.0,0.0,0.0,0.0,0.0,0.0,0.0,0.0,0.0,0.0,0.0,0.0,0.0,0.0,0.0,0.0,0.0,0.0,0.0,0.0,0.0,0.0,0.0,0.0,0.0,0.0,0.0,0.0,0.0,0.0,0.0,0.0,0.0,0.0,0.0,0.0,0.0,0.0,0.0,0.0,0.0,0.0,-4.3688,-4.2622,-4.0845,0.0,0.0,0.0,0.0,0.0,0.0,0.0,0.0,0.0,0.0,0.0,0.0,0.0,0.0,0.0,0.0,0.0,0.0,0.0,0.0,0.0,0.0,0.0,0.0,0.0,0.0,0.0,0.0,0.0,0.0,0.0,0.0,0.0,0.0,0.0,0.0,0.0,0.0,0.0,0.0,0.0,0.0,0.0,0.0,0.0,0.0,0.0,0.0,0.0,0.0,0.0,0.0,0.0,0.0,0.0,0.0,0.0,0.0,0.0,0.0,0.0,0.0,0.0,0.0,0.0,0.0,0.0,0.0,0.0,0.0,0.0,0.0,0.0,0.0,0.0,0.0,0.0,0.0,0.0,0.0,0.0,0.0,0.0,0.0,0.0,0.0,0.0,0.0,0.0,0.0,0.0,0.0,0.0,0.0,0.0,0.0,0.0,0.0,0.0,0.0,0.0,0.0,0.0,0.0,0.0,0.0,0.0,0.0,0.0,0.0,-4.4401,-4.5956,-4.529,0.0,-4.1248,0.0,0.0,0.0,0.0,0.0,0.0,0.0,0.0,0.0,0.0,0.0,0.0,0.0,0.0,0.0,0.0,0.0,0.0,0.0,0.0,0.0,0.0,0.0,0.0,0.0,0.0,0.0,0.0,0.0,0.0,0.0,0.0,0.0,0.0,0.0,0.0,0.0,0.0,0.0,0.0,0.0,0.0,0.0,0.0,0.0,0.0,0.0,0.0,0.0,0.0,0.0,0.0,0.0,0.0,0.0,0.0,0.0,0.0,0.0,0.0,0.0,0.0,0.0,0.0,0.0,0.0,0.0,0.0,0.0,0.0,0.0,0.0,0.0,0.0,0.0,0.0,0.0,0.0,0.0,0.0,0.0,0.0,0.0,0.0,0.0,0.0,0.0,0.0,0.0,0.0,0.0,0.0,0.0,0.0,0.0,0.0,0.0,0.0,0.0,0.0,0.0,0.0,0.0,0.0,0.0,0.0,0.0,0.0,0.0,0.0,-4.4601,-4.5467,-4.4057,-4.2026,0.0,0.0,0.0,0.0,0.0,0.0,0.0,0.0,0.0,0.0,0.0,0.0,0.0,0.0,0.0,0.0,0.0,0.0,0.0,0.0,0.0,0.0,0.0,0.0,0.0,0.0,0.0,0.0,0.0,0.0,0.0,0.0,0.0,0.0,0.0,0.0,0.0,0.0,0.0,0.0,0.0,0.0,0.0,0.0,0.0,0.0,0.0,0.0,0.0,0.0,0.0,0.0,0.0,0.0,0.0,0.0,0.0,0.0,0.0,0.0,0.0,0.0,0.0,0.0,0.0,0.0,0.0,0.0,0.0,0.0,0.0,0.0,0.0,0.0,0.0,0.0,0.0,0.0,0.0,0.0,0.0,0.0,0.0,0.0,0.0,0.0,0.0,0.0,0.0,0.0,0.0,0.0,0.0,0.0,0.0,0.0,0.0,0.0,0.0,0.0,0.0,0.0,0.0,0.0,0.0,0.0,0.0,0.0,0.0,0.0,-4.4364,-4.4771,-4.521,-4.2881,-4.0661,-3.887,0.0,0.0,0.0,0.0,0.0,0.0,0.0,0.0,0.0,0.0,0.0,0.0,0.0,0.0,0.0,0.0,0.0,0.0,0.0,0.0,0.0,0.0,0.0,0.0,0.0,0.0,0.0,0.0,0.0,0.0,0.0,0.0,0.0,0.0,0.0,0.0,0.0,0.0,0.0,0.0,0.0,0.0,0.0,0.0,0.0,0.0,0.0,0.0,0.0,0.0,0.0,0.0,0.0,0.0,0.0,0.0,0.0,0.0,0.0,0.0,0.0,0.0,0.0,0.0,0.0,0.0,0.0,0.0,0.0,0.0,0.0,0.0,0.0,0.0,0.0,0.0,0.0,0.0,0.0,0.0,0.0,0.0,0.0,0.0,0.0,0.0,0.0,0.0,0.0,0.0,0.0,0.0,0.0,0.0,0.0,0.0,0.0,0.0,0.0,0.0,0.0,0.0,0.0,0.0,0.0,0.0,0.0,0.0,-4.7157,-4.5161,-4.4788,-4.6213,-4.2364,-4.0443,0.0,0.0,0.0,0.0,0.0,0.0,0.0,0.0,0.0,0.0,0.0,0.0,0.0,0.0,0.0,0.0,0.0,0.0,0.0,0.0,0.0,0.0,0.0,0.0,0.0,0.0,0.0,0.0,0.0,0.0,0.0,0.0,0.0,0.0,0.0,0.0,0.0,0.0,0.0,0.0,0.0,0.0,0.0,0.0,0.0,0.0,0.0,0.0,0.0,0.0,0.0,0.0,0.0,0.0,0.0,0.0,0.0,0.0,0.0,0.0,0.0,0.0,0.0,0.0,0.0,0.0,0.0,0.0,0.0,0.0,0.0,0.0,0.0,0.0,0.0,0.0,0.0,0.0,0.0,0.0,0.0,0.0,0.0,0.0,0.0,0.0,0.0,0.0,0.0,0.0,0.0,0.0,0.0,0.0,0.0,0.0,0.0,0.0,0.0,0.0,0.0,0.0,0.0,0.0,0.0,0.0,0.0,0.0,0.0,-4.3302,-4.3417,-4.3785,-4.4325,-4.1596,-3.9986,0.0,0.0,0.0,0.0,0.0,0.0,0.0,0.0,0.0,0.0,0.0,0.0,0.0,0.0,0.0,0.0,0.0,0.0,0.0,0.0,0.0,0.0,0.0,0.0,0.0,0.0,0.0,0.0,0.0,0.0,0.0,0.0,0.0,0.0,0.0,0.0,0.0,0.0,0.0,0.0,0.0,0.0,0.0,0.0,0.0,0.0,0.0,0.0,0.0,0.0,0.0,0.0,0.0,0.0,0.0,0.0,0.0,0.0,0.0,0.0,0.0,0.0,0.0,0.0,0.0,0.0,0.0,0.0,0.0,0.0,0.0,0.0,0.0,0.0,0.0,0.0,0.0,0.0,0.0,0.0,0.0,0.0,0.0,0.0,0.0,0.0,0.0,0.0,0.0,0.0,0.0,0.0,0.0,0.0,0.0,0.0,0.0,0.0,0.0,0.0,0.0,0.0,0.0,0.0,0.0,0.0,0.0,0.0,0.0,-4.1749,0.0,-4.3468,-4.2943,-4.112,-3.9546,0.0,0.0,0.0,0.0,0.0,0.0,0.0,0.0,0.0,0.0,0.0,0.0,0.0,0.0,0.0,0.0,0.0,0.0,0.0,0.0,0.0,0.0,0.0,0.0,0.0,0.0,0.0,0.0,0.0,0.0,0.0,0.0,0.0,0.0,0.0,0.0,0.0,0.0,0.0,0.0,0.0,0.0,0.0,0.0,0.0,0.0,0.0,0.0,0.0,0.0,0.0,0.0,0.0,0.0,0.0,0.0,0.0,0.0,0.0,0.0,0.0,0.0,0.0,0.0,0.0,0.0,0.0,0.0,0.0,0.0,0.0,0.0,0.0,0.0,0.0,0.0,0.0,0.0,0.0,0.0,0.0,0.0,0.0,0.0,0.0,0.0,0.0,0.0,0.0,0.0,0.0,0.0,0.0,0.0,0.0,0.0,0.0,0.0,0.0,0.0,0.0,0.0,0.0,0.0,0.0,0.0,0.0,0.0,-4.1162,-4.32,-4.4039,-4.3728,-4.2347,-4.0832,-3.9048,0.0,0.0,0.0,0.0,0.0,0.0,0.0,0.0,0.0,0.0,0.0,0.0,0.0,0.0,0.0,0.0,0.0,0.0,0.0,0.0,0.0,0.0,0.0,0.0,0.0,0.0,0.0,0.0,0.0,0.0,0.0,0.0,0.0,0.0,0.0,0.0,0.0,0.0,0.0,0.0,0.0,0.0,0.0,0.0,0.0,0.0,0.0,0.0,0.0,0.0,0.0,0.0,0.0,0.0,0.0,0.0,0.0,0.0,0.0,0.0,0.0,0.0,0.0,0.0,0.0,0.0,0.0,0.0,0.0,0.0,0.0,0.0,0.0,0.0,0.0,0.0,0.0,0.0,0.0,0.0,0.0,0.0,0.0,0.0,0.0,0.0,0.0,0.0,0.0,0.0,0.0,0.0,0.0,0.0,0.0,0.0,0.0,0.0,0.0,0.0,0.0,0.0,0.0,0.0,0.0,0.0,0.0,0.0,0.0,-4.0392,-4.161,-4.2523,-4.2929,-4.0155,-3.8773,0.0,0.0,0.0,0.0,0.0,0.0,0.0,0.0,0.0,0.0,0.0,0.0,0.0,0.0,0.0,0.0,0.0,0.0,0.0,0.0,0.0,0.0,0.0,0.0,0.0,0.0,0.0,0.0,0.0,0.0,0.0,0.0,0.0,0.0,0.0,0.0,0.0,0.0,0.0,0.0,0.0,0.0,0.0,0.0,0.0,0.0,0.0,0.0,0.0,0.0,0.0,0.0,0.0,0.0,0.0,0.0,0.0,0.0,0.0,0.0,0.0,0.0,0.0,0.0,0.0,0.0,0.0,0.0,0.0,0.0,0.0,0.0,0.0,0.0,0.0,0.0,0.0,0.0,0.0,0.0,0.0,0.0,0.0,0.0,0.0,0.0,0.0,0.0,0.0,0.0,0.0,0.0,0.0,0.0,0.0,0.0,0.0,0.0,0.0,0.0,0.0,0.0,0.0,0.0,0.0,0.0,0.0,0.0,0.0,-3.9918,-4.1271,-4.2219,-4.2591,-4.0087,-3.864,-3.8481,0.0,0.0,0.0,0.0,0.0,0.0,0.0,0.0,0.0,0.0,0.0,0.0,0.0,0.0,0.0,0.0,0.0,0.0,0.0,0.0,0.0,0.0,0.0,0.0,0.0,0.0,0.0,0.0,0.0,0.0,0.0,0.0,0.0,0.0,0.0,0.0,0.0,0.0,0.0,0.0,0.0,0.0,0.0,0.0,0.0,0.0,0.0,0.0,0.0,0.0,0.0,0.0,0.0,0.0,0.0,0.0,0.0,0.0,0.0,0.0,0.0,0.0,0.0,0.0,0.0,0.0,0.0,0.0,0.0,0.0,0.0,0.0,0.0,0.0,0.0,0.0,0.0,0.0,0.0,0.0,0.0,0.0,0.0,0.0,0.0,0.0,0.0,0.0,0.0,0.0,0.0,0.0,0.0,0.0,0.0,0.0,0.0,0.0,0.0,0.0,0.0,0.0,0.0,0.0,0.0,0.0,0.0,0.0,-4.1339,-4.2794,-4.2895,-4.1508,-4.0569,-3.8782,0.0,0.0,0.0,0.0,0.0,0.0,0.0,0.0,0.0,0.0,0.0,0.0,0.0,0.0,0.0,0.0,0.0,0.0,0.0,0.0,0.0,0.0,0.0,0.0,0.0,0.0,0.0,0.0,0.0,0.0,0.0,0.0,0.0,0.0,0.0,0.0,0.0,0.0,0.0,0.0,0.0,0.0,0.0,0.0,0.0,0.0,0.0,0.0,0.0,0.0,0.0,0.0,0.0,0.0,0.0,0.0,0.0,0.0,0.0,0.0,0.0,0.0,0.0,0.0,0.0,0.0,0.0,0.0,0.0,0.0,0.0,0.0,0.0,0.0,0.0,0.0,0.0,0.0,0.0,0.0,0.0,0.0,0.0,0.0,0.0,0.0,0.0,0.0,0.0,0.0,0.0,0.0,0.0,0.0,0.0,0.0,0.0,0.0,0.0,0.0,0.0,0.0,0.0,0.0,0.0,0.0,0.0,0.0,0.0,-4.2895,-4.4316,-4.4654,-4.3707,-4.1391,-3.9495,0.0,0.0,0.0,0.0,0.0,0.0,0.0,0.0,0.0,0.0,0.0,0.0,0.0,0.0,0.0,0.0,0.0,0.0,0.0,0.0,0.0,0.0,0.0,0.0,0.0,0.0,0.0,0.0,0.0,0.0,0.0,0.0,0.0,0.0,0.0,0.0,0.0,0.0,0.0,0.0,0.0,0.0,0.0,0.0,0.0,0.0,0.0,0.0,0.0,0.0,0.0,0.0,0.0,0.0,0.0,0.0,0.0,0.0,0.0,0.0,0.0,0.0,0.0,0.0,0.0,0.0,0.0,0.0,0.0,0.0,0.0,0.0,0.0,0.0,0.0,0.0,0.0,0.0,0.0,0.0,0.0,0.0,0.0,0.0,0.0,0.0,0.0,0.0,0.0,0.0,0.0,0.0,0.0,0.0,0.0,0.0,0.0,0.0,0.0,0.0,0.0,0.0,0.0,0.0,0.0,0.0,0.0,0.0,-4.3775,-4.4823,-4.6312,-4.6752,-4.6007,-4.3714,-4.1201,0.0,0.0,0.0,0.0,0.0,0.0,0.0,0.0,0.0,0.0,0.0,0.0,0.0,0.0,0.0,0.0,0.0,0.0,0.0,0.0,0.0,0.0,0.0,0.0,0.0,0.0,0.0,0.0,0.0,0.0,0.0,0.0,0.0,0.0,0.0,0.0,0.0,0.0,0.0,0.0,0.0,0.0,0.0,0.0,0.0,0.0,0.0,0.0,0.0,0.0,0.0,0.0,0.0,0.0,0.0,0.0,0.0,0.0,0.0,0.0,0.0,0.0,0.0,0.0,0.0,0.0,0.0,0.0,0.0,0.0,0.0,0.0,0.0,0.0,0.0,0.0,0.0,0.0,0.0,0.0,0.0,0.0,0.0,0.0,0.0,0.0,0.0,0.0,0.0,0.0,0.0,0.0,0.0,0.0,0.0,0.0,0.0,0.0,0.0,0.0,0.0,0.0,0.0,0.0,0.0,0.0,0.0,0.0,-4.5461,-4.6887,-4.8342,-4.8781,-4.7973,-4.6359,-4.3136,0.0,0.0,0.0,0.0,0.0,0.0,0.0,0.0,0.0,0.0,0.0,0.0,0.0,0.0,0.0,0.0,0.0,0.0,0.0,0.0,0.0,0.0,0.0,0.0,0.0,0.0,0.0,0.0,0.0,0.0,0.0,0.0,0.0,0.0,0.0,0.0,0.0,0.0,0.0,0.0,0.0,0.0,0.0,0.0,0.0,0.0,0.0,0.0,0.0,0.0,0.0,0.0,0.0,0.0,0.0,0.0,0.0,0.0,0.0,0.0,0.0,0.0,0.0,0.0,0.0,0.0,0.0,0.0,0.0,0.0,0.0,0.0,0.0,0.0,0.0,0.0,0.0,0.0,0.0,0.0,0.0,0.0,0.0,0.0,0.0,0.0,0.0,0.0,0.0,0.0,0.0,0.0,0.0,0.0,0.0,0.0,0.0,0.0,0.0,0.0,0.0,0.0,0.0,0.0,0.0,0.0,0.0,0.0,-4.6177,-4.7665,-4.9086,-4.9526,-4.8781,-4.5611,-4.2538,0.0,0.0,0.0,0.0,0.0,0.0,0.0,0.0,0.0,0.0,0.0,0.0,0.0,0.0,0.0,0.0,0.0,0.0,0.0,0.0,0.0,0.0,0.0,0.0,0.0,0.0,0.0,0.0,0.0,0.0,0.0,0.0,0.0,0.0,0.0,0.0,0.0,0.0,0.0,0.0,0.0,0.0,0.0,0.0,0.0,0.0,0.0,0.0,-3.5489,0.0,0.0,0.0,0.0,0.0,0.0,0.0,0.0,0.0,0.0,0.0,0.0,0.0,0.0,0.0,0.0,0.0,0.0,0.0,0.0,0.0,0.0,0.0,0.0,0.0,0.0,0.0,0.0,0.0,0.0,0.0,0.0,0.0,0.0,0.0,0.0,0.0,0.0,0.0,0.0,0.0,0.0,0.0,0.0,0.0,0.0,0.0,0.0,0.0,0.0,0.0,0.0,0.0,0.0,0.0,0.0,0.0,0.0,0.0,-4.7293,-4.9359,-4.9864,-5.0067,-4.99,-4.5727,-4.249,0.0,0.0,0.0,0.0,0.0,0.0,0.0,0.0,0.0,0.0,0.0,0.0,0.0,0.0,0.0,0.0,0.0,0.0,0.0,0.0,0.0,0.0,0.0,0.0,0.0,0.0,0.0,0.0,0.0,0.0,0.0,0.0,0.0,0.0,0.0,0.0,0.0,0.0,0.0,0.0,0.0,0.0,0.0,0.0,0.0,0.0,0.0,0.0,0.0,0.0,0.0,0.0,0.0,0.0,0.0,0.0,0.0,0.0,0.0,0.0,0.0,0.0,0.0,0.0,0.0,0.0,0.0,0.0,0.0,0.0,0.0,0.0,0.0,0.0,0.0,0.0,0.0,0.0,0.0,0.0,0.0,0.0,0.0,0.0,0.0,0.0,0.0,0.0,0.0,0.0,0.0,0.0,0.0,0.0,0.0,0.0,0.0,0.0,0.0,0.0,0.0,0.0,0.0,0.0,0.0,0.0,0.0,-4.5602,-4.824,-5.1048,-5.0608,-5.0473,-5.0779,-4.6001,-4.2664,-4.1144,0.0,0.0,0.0,0.0,0.0,0.0,0.0,0.0,0.0,0.0,0.0,0.0,0.0,0.0,0.0,0.0,0.0,0.0,0.0,0.0,0.0,0.0,0.0,0.0,0.0,0.0,0.0,0.0,0.0,0.0,0.0,0.0,0.0,0.0,0.0,0.0,0.0,0.0,-3.5759,-3.6058,0.0,0.0,0.0,0.0,0.0,0.0,0.0,0.0,-3.6028,0.0,0.0,0.0,0.0,0.0,0.0,0.0,0.0,0.0,0.0,0.0,0.0,0.0,0.0,0.0,0.0,0.0,0.0,0.0,0.0,0.0,0.0,0.0,0.0,0.0,0.0,0.0,0.0,0.0,0.0,0.0,0.0,0.0,0.0,0.0,0.0,0.0,0.0,0.0,0.0,0.0,0.0,0.0,0.0,0.0,0.0,0.0,0.0,0.0,0.0,0.0,0.0,0.0,0.0,0.0,0.0,-4.78,-4.7158,-4.824,-5.1083,-5.1082,-5.0507,-4.9325,-4.5402,-4.259,-4.1081,0.0,0.0,0.0,0.0,0.0,0.0,0.0,0.0,0.0,0.0,0.0,0.0,0.0,0.0,0.0,0.0,0.0,0.0,0.0,0.0,0.0,0.0,0.0,0.0,0.0,0.0,0.0,0.0,0.0,0.0,0.0,0.0,0.0,0.0,0.0,0.0,0.0,0.0,0.0,-3.8542,-3.905,0.0,0.0,0.0,0.0,0.0,0.0,0.0,0.0,-3.5818,0.0,0.0,0.0,0.0,0.0,0.0,0.0,0.0,0.0,0.0,0.0,0.0,0.0,0.0,0.0,0.0,0.0,0.0,0.0,0.0,0.0,0.0,0.0,0.0,0.0,0.0,0.0,0.0,0.0,0.0,0.0,0.0,0.0,0.0,0.0,0.0,0.0,0.0,0.0,0.0,0.0,0.0,0.0,0.0,0.0,0.0,0.0,0.0,0.0,0.0,0.0,0.0,0.0,0.0,0.0,-4.6413,-4.7082,-4.8713,-5.1624,-5.142,-5.0507,-4.8954,-4.4286,-4.1528,0.0,0.0,0.0,0.0,0.0,0.0,0.0,0.0,0.0,0.0,0.0,0.0,0.0,0.0,0.0,0.0,0.0,0.0,0.0,0.0,0.0,0.0,0.0,0.0,0.0,0.0,0.0,0.0,0.0,0.0,0.0,0.0,0.0,0.0,0.0,0.0,0.0,0.0,0.0,0.0,-3.7299,-3.7548,-3.7261,0.0,0.0,0.0,0.0,0.0,0.0,-3.5998,-3.5998,0.0,0.0,0.0,0.0,0.0,0.0,0.0,0.0,0.0,0.0,0.0,0.0,0.0,0.0,0.0,0.0,0.0,0.0,0.0,0.0,0.0,0.0,0.0,0.0,0.0,0.0,0.0,0.0,0.0,0.0,0.0,0.0,0.0,0.0,0.0,0.0,0.0,0.0,0.0,0.0,0.0,0.0,0.0,0.0,0.0,0.0,0.0,0.0,0.0,0.0,0.0,0.0,0.0,0.0,0.0,-4.4353,-4.6583,-4.9094,-5.1833,-5.1492,-5.0439,-4.8751,-4.3525,-4.0752,0.0,0.0,0.0,0.0,0.0,0.0,0.0,0.0,0.0,0.0,0.0,0.0,0.0,0.0,0.0,0.0,0.0,0.0,0.0,0.0,0.0,0.0,0.0,0.0,0.0,0.0,0.0,0.0,0.0,0.0,0.0,0.0,0.0,0.0,0.0,0.0,0.0,0.0,0.0,0.0,0.0,-3.6411,-3.6862,-3.6191,0.0,0.0,0.0,0.0,-3.5414,-3.6276,0.0,0.0,0.0,0.0,0.0,0.0,0.0,0.0,0.0,0.0,0.0,0.0,0.0,0.0,0.0,0.0,0.0,0.0,0.0,0.0,0.0,0.0,0.0,0.0,0.0,0.0,0.0,0.0,0.0,0.0,0.0,0.0,0.0,0.0,0.0,0.0,0.0,0.0,0.0,0.0,0.0,0.0,0.0,0.0,0.0,0.0,0.0,0.0,0.0,0.0,0.0,0.0,0.0,0.0,0.0,0.0,-4.4036,-4.6453,-4.8694,-5.0845,-5.1095,-5.0171,-4.8075,-4.4091,-4.14,0.0,0.0,0.0,0.0,0.0,0.0,0.0,0.0,0.0,0.0,0.0,0.0,0.0,0.0,0.0,0.0,0.0,0.0,0.0,0.0,0.0,0.0,0.0,0.0,0.0,0.0,0.0,0.0,0.0,0.0,0.0,0.0,0.0,0.0,0.0,0.0,0.0,0.0,0.0,0.0,0.0,-3.9195,-3.6681,-3.7042,-3.7001,0.0,0.0,-3.5675,-3.5363,-3.6942,0.0,0.0,0.0,0.0,0.0,0.0,0.0,0.0,0.0,0.0,0.0,0.0,0.0,0.0,0.0,0.0,0.0,0.0,0.0,0.0,0.0,0.0,0.0,0.0,0.0,0.0,0.0,0.0,0.0,0.0,0.0,0.0,0.0,0.0,0.0,0.0,0.0,0.0,0.0,0.0,0.0,0.0,0.0,0.0,0.0,0.0,0.0,0.0,0.0,0.0,0.0,0.0,0.0,0.0,0.0,-3.9918,-4.2811,-4.5345,-4.7305,-4.8777,-4.9817,-4.8895,-4.5798,-4.2743,-4.054,0.0,0.0,0.0,0.0,0.0,0.0,0.0,0.0,0.0,0.0,0.0,0.0,0.0,0.0,0.0,0.0,0.0,0.0,0.0,0.0,0.0,0.0,0.0,0.0,0.0,0.0,0.0,0.0,0.0,0.0,0.0,0.0,0.0,0.0,0.0,0.0,0.0,0.0,0.0,0.0,0.0,0.0,-3.5931,-3.6515,0.0,0.0,0.0,-3.6234,-3.6565,0.0,0.0,0.0,0.0,0.0,0.0,0.0,0.0,0.0,0.0,0.0,0.0,0.0,0.0,0.0,0.0,0.0,0.0,0.0,0.0,0.0,0.0,0.0,0.0,0.0,0.0,0.0,0.0,0.0,0.0,0.0,0.0,0.0,0.0,0.0,0.0,0.0,0.0,0.0,0.0,0.0,0.0,0.0,0.0,0.0,0.0,0.0,0.0,0.0,0.0,0.0,0.0,0.0,0.0,0.0,0.0,0.0,-4.1533,-4.4223,-4.6135,-4.7225,-4.8447,-4.755,-4.4447,-4.1789,0.0,0.0,0.0,0.0,0.0,0.0,0.0,0.0,0.0,0.0,0.0,0.0,0.0,0.0,0.0,0.0,0.0,0.0,0.0,0.0,0.0,0.0,0.0,0.0,0.0,0.0,0.0,-2.8053,0.0,0.0,0.0,0.0,0.0,0.0,0.0,0.0,0.0,0.0,0.0,0.0,0.0,0.0,-3.5182,-3.5458,-3.6335,-3.6893,0.0,0.0,-3.6794,-3.7047,-3.7166,-3.6404,0.0,0.0,0.0,0.0,0.0,0.0,0.0,0.0,0.0,0.0,0.0,0.0,0.0,0.0,0.0,0.0,0.0,0.0,0.0,0.0,0.0,0.0,0.0,0.0,0.0,0.0,0.0,0.0,0.0,0.0,0.0,0.0,0.0,0.0,0.0,0.0,0.0,0.0,0.0,0.0,0.0,0.0,0.0,0.0,0.0,0.0,0.0,0.0,0.0,0.0,0.0,0.0,0.0,0.0,0.0,-4.0544,-4.3451,-4.5577,-4.6874,-4.7284,-4.6696,-4.5154,-4.2275,-4.0115,0.0,0.0,0.0,0.0,0.0,0.0,0.0,0.0,0.0,0.0,0.0,0.0,0.0,0.0,0.0,0.0,0.0,0.0,0.0,0.0,0.0,0.0,0.0,0.0,0.0,0.0,0.0,0.0,0.0,0.0,0.0,0.0,0.0,0.0,0.0,0.0,0.0,0.0,0.0,0.0,0.0,-3.6107,-3.5558,-3.7362,-3.8341,0.0,0.0,-3.7407,-3.589,-3.8212,-3.8414,-3.3207,0.0,0.0,0.0,0.0,0.0,0.0,0.0,0.0,0.0,0.0,0.0,0.0,0.0,0.0,0.0,0.0,0.0,0.0,0.0,0.0,0.0,0.0,0.0,0.0,0.0,0.0,0.0,0.0,0.0,0.0,0.0,0.0,0.0,0.0,0.0,0.0,0.0,0.0,0.0,0.0,0.0,0.0,0.0,0.0,0.0,0.0,0.0,0.0,0.0,0.0,0.0,0.0,0.0,-3.8841,-3.9798,-4.2523,-4.417,-4.4695,-4.5756,-4.5204,-4.2879,-4.1527,-3.972,0.0,0.0,0.0,0.0,0.0,0.0,0.0,0.0,0.0,0.0,0.0,0.0,0.0,0.0,0.0,0.0,0.0,0.0,0.0,0.0,0.0,0.0,0.0,0.0,0.0,0.0,0.0,0.0,-2.7058,-2.7037,-2.6934,0.0,0.0,0.0,0.0,0.0,0.0,0.0,0.0,0.0,0.0,-3.4389,-3.5526,-3.6765,0.0,0.0,-3.7815,-3.8442,-3.814,-3.7664,-3.6483,-3.3696,-3.28,0.0,0.0,0.0,0.0,0.0,0.0,0.0,0.0,0.0,0.0,0.0,0.0,0.0,0.0,0.0,0.0,0.0,0.0,0.0,0.0,0.0,0.0,0.0,0.0,0.0,0.0,0.0,0.0,0.0,0.0,0.0,0.0,0.0,0.0,0.0,0.0,0.0,0.0,0.0,0.0,0.0,0.0,0.0,0.0,0.0,0.0,0.0,0.0,0.0,0.0,0.0,0.0,-3.8056,-3.9373,-4.1148,-4.2456,-4.329,-4.4248,-4.3647,-4.149,-4.0548,-3.9032,0.0,0.0,0.0,0.0,0.0,0.0,0.0,0.0,0.0,0.0,0.0,0.0,0.0,0.0,0.0,0.0,0.0,0.0,0.0,0.0,0.0,0.0,0.0,0.0,0.0,0.0,0.0,0.0,-2.66,-2.6499,-2.6499,0.0,0.0,0.0,0.0,0.0,0.0,0.0,0.0,0.0,0.0,-3.3273,-3.4955,-3.5993,-3.639,-3.6086,-3.6952,-3.7694,-3.7913,-3.6377,-3.4653,-3.2977,0.0,0.0,0.0,0.0,0.0,0.0,0.0,0.0,0.0,0.0,0.0,0.0,0.0,0.0,0.0,0.0,0.0,0.0,0.0,0.0,0.0,0.0,0.0,0.0,0.0,0.0,0.0,-4.3104,0.0,0.0,-4.0795,0.0,0.0,0.0,0.0,0.0,0.0,0.0,0.0,0.0,0.0,0.0,0.0,0.0,0.0,0.0,0.0,0.0,0.0,0.0,0.0,0.0,0.0,-3.6499,-3.9307,-3.9203,-4.0471,-4.3091,-4.277,-4.2073,-4.1316,-3.9505,-3.8128,-3.734,0.0,0.0,0.0,0.0,0.0,0.0,0.0,0.0,0.0,0.0,0.0,0.0,0.0,0.0,0.0,0.0,0.0,0.0,0.0,0.0,0.0,0.0,0.0,0.0,0.0,0.0,-2.7374,-2.6826,-2.6499,0.0,0.0,0.0,0.0,0.0,0.0,0.0,0.0,0.0,0.0,-3.2159,-3.3153,-3.3742,-3.5096,-3.569,-3.4791,-3.471,-3.4553,-3.4125,-3.4328,-3.36,0.0,0.0,0.0,0.0,0.0,0.0,0.0,0.0,0.0,0.0,0.0,0.0,0.0,0.0,0.0,0.0,0.0,0.0,0.0,0.0,0.0,0.0,0.0,0.0,0.0,0.0,0.0,-4.3148,-4.3247,0.0,0.0,0.0,0.0,0.0,0.0,0.0,0.0,0.0,0.0,0.0,-3.6279,-3.5786,0.0,0.0,0.0,0.0,0.0,0.0,0.0,0.0,0.0,0.0,0.0,0.0,-3.5479,-3.7195,-3.7642,-3.8658,-4.0402,-3.9902,-3.9287,-3.8649,-3.8225,-3.731,-3.5828,0.0,0.0,0.0,0.0,0.0,0.0,0.0,0.0,0.0,0.0,0.0,0.0,0.0,0.0,0.0,0.0,0.0,0.0,0.0,0.0,0.0,0.0,0.0,0.0,0.0,-2.8812,0.0,0.0,0.0,0.0,0.0,0.0,0.0,0.0,0.0,0.0,0.0,-2.9376,-3.1442,-3.102,-3.1025,-3.2298,-3.3169,-3.3664,0.0,0.0,0.0,0.0,0.0,0.0,0.0,0.0,0.0,0.0,0.0,0.0,0.0,0.0,-2.9899,-2.8169,-2.7459,-2.7283,-2.7657,0.0,0.0,0.0,0.0,0.0,0.0,0.0,0.0,0.0,0.0,0.0,0.0,0.0,0.0,-4.2364,0.0,-4.0654,0.0,0.0,0.0,0.0,0.0,0.0,0.0,0.0,-3.6536,-3.6157,-3.5704,-3.5248,-3.5141,0.0,-3.4594,-3.4147,0.0,0.0,0.0,0.0,0.0,0.0,0.0,0.0,-3.435,-3.588,-3.6195,-3.714,-3.8643,-3.8186,-3.7647,-3.7191,-3.6821,-3.5833,-3.415,-3.3362,-3.2619,0.0,0.0,0.0,0.0,0.0,0.0,0.0,0.0,0.0,0.0,0.0,0.0,0.0,0.0,0.0,0.0,0.0,0.0,0.0,0.0,0.0,0.0,0.0,-2.8965,0.0,0.0,0.0,0.0,0.0,0.0,0.0,0.0,0.0,-2.9401,-2.9195,-2.9619,-3.1149,-3.0069,-2.9623,-3.086,0.0,0.0,0.0,0.0,0.0,0.0,0.0,-3.1154,-3.108,-3.0773,-3.0179,-2.9136,-2.9451,-2.9551,-2.8828,0.0,0.0,-2.884,-2.8256,-2.8073,-2.8347,-2.8458,-2.8279,-2.795,-2.7688,-2.7308,0.0,0.0,0.0,0.0,0.0,0.0,0.0,0.0,-4.074,-4.1428,0.0,-4.0629,0.0,0.0,0.0,0.0,0.0,-3.7477,0.0,0.0,-3.451,-3.3715,-3.3262,-3.328,-3.291,-3.2416,-3.3413,-3.3241,-3.2184,-3.2399,0.0,0.0,0.0,0.0,0.0,0.0,-3.3081,-3.5173,-3.4929,-3.5828,-3.791,-3.7386,-3.7083,-3.7027,-3.5306,-3.3771,-3.2607,-3.2569,-3.2274,-3.1626,-3.2226,0.0,0.0,0.0,0.0,0.0,0.0,0.0,0.0,0.0,0.0,0.0,0.0,0.0,0.0,0.0,0.0,0.0,0.0,0.0,0.0,-2.9397,0.0,0.0,0.0,0.0,0.0,0.0,0.0,0.0,0.0,0.0,-2.8727,-2.942,-2.9904,-2.988,0.0,0.0,0.0,0.0,-3.0059,-2.9763,-2.9998,-3.0252,-3.0252,-3.0213,-2.99,-2.9137,0.0,0.0,-2.8594,-2.9394,-2.9824,-2.8633,-2.916,-2.9883,-3.0683,-2.9721,-2.8957,-2.8883,-2.8402,-2.7826,-2.7806,-2.795,-2.7878,-4.5813,0.0,0.0,0.0,0.0,-4.1568,-4.1462,-4.1479,-4.1921,-4.1213,-3.9694,-3.9702,0.0,0.0,0.0,0.0,0.0,0.0,-3.6102,-3.5488,-3.5931,-3.5692,-3.4826,-3.4781,-3.4705,-3.453,-3.3721,-3.3139,-3.2775,-3.2063,-3.2023,-3.2585,0.0,0.0,0.0,0.0,-3.2071,-3.3075,-3.3418,-3.4101,-3.5098,-3.458,-3.4622,-3.541,-3.3732,-3.2842,-3.2844,-3.239,-3.192,-3.1359,-3.2154,0.0,0.0,0.0,0.0,0.0,0.0,0.0,0.0,0.0,0.0,0.0,0.0,0.0,0.0,0.0,0.0,0.0,0.0,0.0,-2.9223,-2.8722,-2.8238,0.0,0.0,0.0,0.0,0.0,0.0,0.0,0.0,0.0,-2.9579,-3.0068,-3.0132,0.0,0.0,-2.8965,-2.9082,-2.9726,-3.0273,-3.0488,-3.0332,0.0,-3.0195,-2.9687,-2.9414,-2.9766,-3.0312,-3.0566,-3.0215,-3.0449,-3.0586,-3.0176,-3.0351,-3.0605,-3.0762,-3.0078,-2.9434,-2.9375,-2.9414,-2.9473,-2.9473,-2.9473,-2.9453,-4.7668,-4.5371,-4.3947,-4.2407,-4.1063,-4.1018,-4.0905,-4.0784,-4.139,-4.0895,-3.9668,-3.9556,-3.7965,-3.5388,-3.6053,0.0,0.0,0.0,-3.5868,-3.5719,-3.5989,-3.6044,-3.5855,-3.5855,-3.5755,-3.5458,-3.4525,-3.3721,-3.3068,-3.2432,-3.2071,-3.2106,0.0,0.0,-3.0983,-3.1483,-3.1888,-3.2215,-3.2792,-3.3244,-3.3571,-3.3244,-3.3386,-3.4011,-3.2869,-3.2228,-3.2354,-3.1785,-3.1216,-3.0684,-3.1156,-3.1489,0.0,0.0,0.0,0.0,0.0,0.0,0.0,0.0,0.0,0.0,0.0,-2.8954,0.0,0.0,0.0,0.0,-2.8649,-2.8612,-2.8308,-2.833,0.0,0.0,0.0,0.0,0.0,0.0,0.0,-2.8958,-3.0064,-3.0652,-3.0264,-3.1113,-3.1068,-2.9363,-2.9158,-2.9238,-2.9394,0.0,-3.0293,-3.0586,-3.0527,-3.0469,-3.0469,-3.0039,-2.9883,-3.0391,-3.0703,-3.0879,-3.0898,-3.0898,-3.0898,-3.0898,-3.0898,-3.0898,-3.0898,-3.0449,-3.0098,-3.0098,-3.0293,-3.0469,-3.0469,-3.0469,-3.0469,-4.9104,-4.7181,-4.5403,-4.2552,-3.9396,-4.0803,-4.0202,-3.8293,-3.9861,-4.0466,-4.0319,-3.9832,-3.8956,-3.7759,-3.6482,0.0,-3.6031,-3.563,-3.566,-3.6061,-3.5206,-3.5378,-3.6405,-3.6405,-3.6107,-3.5558,-3.5483,-3.4655,-3.3312,-3.3119,-3.2516,-3.1486,-3.1512,-3.1235,-3.0758,-3.1687,-3.2215,-3.2215,-3.2792,-3.3136,-3.3136,-3.3136,-3.3086,-3.3061,-3.2491,-3.1938,-3.1336,-3.0884,-3.0357,-2.9829,-2.9779,-2.9779,-2.9779,0.0,0.0,0.0,0.0,0.0,0.0,0.0,0.0,0.0,0.0,0.0,0.0,0.0,0.0,0.0,-2.9401,0.0,-2.7496,-2.8153,0.0,0.0,0.0,-2.7259,-2.6226,-2.7672,-2.8925,-2.9418,0.0,0.0,-3.0919,-3.2347,-3.2468,-3.0153,-2.9849,-2.9914,-3.0137,-3.0234,-3.0254,-3.0312,-3.0625,-3.0879,-3.084,-3.0801,-3.0781,-3.084,-3.0898,-3.0898,-3.0898,-3.0898,-3.0898,-3.0898,-3.0898,-3.0898,-3.0898,-3.0859,-3.0898,-3.084,-3.0859,-3.0879,-3.0859,-3.0859,-3.0859,-4.9554,-4.7369,-4.6871,-4.4761,-4.1622,-4.1146,-4.035,-3.9396,-4.0166,-3.9423,-3.7469,-3.8485,-3.8004,-3.6292,-3.4601,-3.4412,-3.5462,-3.5061,-3.5161,-3.5649,-3.5873,-3.6153,-3.6405,-3.6405,-3.6355,-3.6132,-3.5303,-3.4726,-3.4299,-3.347,-3.2717,-3.2064,-3.2466,-3.219,-3.1286,-3.1863,-3.2215,-3.2215,-3.2792,-3.3136,-3.3136,-3.3136,-3.2867,-3.2416,-3.229,-3.1763,-3.0834,-3.0643,-3.0357,-2.9829,-2.9779,-2.9779,-2.9779,-2.9779,0.0,0.0,0.0,0.0,0.0,0.0,0.0,0.0,0.0,-2.9038,-2.9377,0.0,-2.9126,0.0,-2.8954,-2.8338,-2.7981,-2.7648,0.0,0.0,-2.7116,-2.7155,-2.6395,-2.7606,-2.886,-2.9909,-3.153,-3.2653,-3.2792,-3.3845,-3.4009,-3.2416,-3.1939,-3.1391,-3.0403,-3.0508,-3.0723,-3.0781,-3.0897,-3.0898,-3.0937,-3.0898,-3.0898,-3.0898,-3.0898,-3.0898,-3.0898,-3.0898,-3.0898,-3.0898,-3.0898,-3.0898,-3.0898,-3.0898,-3.0898,-3.0898,-3.0898,-3.0898,-3.0898,-3.0898,-3.0898,-4.925,-4.698,-4.6951,-4.4931,-4.168,-4.1058,-4.0589,-4.018,-3.9664,-3.8424,-3.6779,-3.7092,-3.6709,-3.5667,-3.4634,-3.4635,-3.5384,-3.5406,-3.5604,-3.5931,-3.6254,-3.6405,-3.6405,-3.6107,-3.5981,-3.5981,-3.5332,-3.4781,-3.4374,-3.4223,-3.3646,-3.2641,-3.3169,-3.3018,-3.219,-3.2441,-3.2717,-3.2968,-3.3086,-3.3194,-3.342,-3.2943,-3.2667,-3.2591,-3.2114,-3.1587,-3.0984,-3.0733,-3.0357,-2.9829,-2.9779,-2.9779,-2.9779,-2.9326,-2.888,0.0,0.0,0.0,0.0,0.0,0.0,0.0,0.0,0.0,0.0,0.0,-2.9528,-3.0105,-2.9092,-2.8292,-2.805,-2.7343,-2.6594,-2.5773,-2.6445,-2.6781,-2.6467,-2.793,-2.9535,-3.0953,-3.2096,-3.3049,-3.3813,-3.4574,-3.4571,-3.3196,-3.3532,-3.3496,-3.2364,-3.2523,-3.2871,-3.2871,-3.2648,-3.2164,-3.1617,-3.1148,-3.0898,-3.0898,-3.0898,-3.0898,-3.0898,-3.0898,-3.0898,-3.0898,-3.0898,-3.0898,-3.0898,-3.0898,-3.0898,-3.0898,-3.0898,-3.0898,-3.0898,-3.0898,-3.084,-4.8719,-4.6385,-4.6385,-4.434,-4.101,-4.0786,-4.0566,-4.0324,-3.8685,-3.7688,-3.7111,-3.6107,-3.5608,-3.5583,-3.5608,-3.5608,-3.5633,-3.6132,-3.6405,-3.6405,-3.6405,-3.6405,-3.638,-3.5881,-3.5558,-3.5483,-3.5433,-3.4856,-3.3947,-3.4806,-3.4575,-3.3212,-3.3621,-3.3671,-3.3194,-3.3119,-3.3363,-3.3771,-3.3395,-3.342,-3.3872,-3.2867,-3.2516,-3.2893,-3.1888,-3.126,-3.1185,-3.0758,-3.0281,-2.9829,-2.9779,-2.974,-2.9585,-2.8648,-2.8044,0.0,-2.6994,0.0,0.0,0.0,0.0,0.0,0.0,0.0,0.0,-2.9752,-3.0105,-3.0583,-2.9602,-2.8654,-2.7981,-2.7181,-2.6141,-2.4808,-2.5664,-2.6406,-2.6534,-2.84,-3.0341,-3.2046,-3.2387,-3.3105,-3.4483,-3.5062,-3.4804,-3.3922,-3.4899,-3.5418,-3.4683,-3.4598,-3.4714,-3.4957,-3.4492,-3.3343,-3.2649,-3.1917,-3.1476,-3.1305,-3.1267,-3.1112,-3.0957,-3.082,-3.082,-3.0859,-3.0762,-3.0703,-3.0781,-3.0742,-3.0703,-3.0664,-3.0644,-3.0703,-3.0859,-3.0898,-3.0742,-4.8719,-4.6431,-4.6385,-4.4854,-4.2238,-4.0716,-3.9459,-3.8486,-3.8139,-3.7688,-3.7136,-3.6483,-3.6254,-3.6254,-3.6254,-3.6254,-3.6279,-3.6355,-3.6405,-3.6405,-3.6405,-3.6405,-3.6405,-3.6304,-3.5981,-3.5483,-3.5031,-3.455,-3.3897,-3.4123,-3.3822,-3.3119,-3.3621,-3.3847,-3.3721,0.0,0.0,0.0,-3.3571,-3.3796,-3.3872,-3.3269,-3.2742,-3.2365,-3.1336,0.0,-3.0105,-3.0005,-2.9905,-2.9804,-2.9779,0.0,0.0,0.0,0.0,0.0,0.0,0.0,0.0,0.0,0.0,0.0,-2.8187,-2.8426,-2.845,-2.9643,-3.0468,-3.0568,-3.0024,-2.9136,-2.8004,-2.7271,-2.6501,-2.5613,-2.6035,-2.6523,-2.6906,-2.8584,-3.0234,-3.1649,-3.305,-3.4459,-3.5667,-3.61,-3.6055,-3.572,-3.6429,-3.6358,-3.5206,-3.4439,-3.3678,-3.2992,-3.295,-3.3114,-3.3878,-3.3781,-3.3249,-3.2895,-3.2701,-3.2187,-3.1149,-3.0547,-3.0488,-3.0762,-3.0312,-2.9961,-3.0254,-3.0059,-2.9939,-2.988,-2.99,-3.0039,-3.0723,-3.0879,-3.0762,-4.7558,0.0,-4.4676,-4.2932,0.0,-3.9073,-3.8063,-3.7235,-3.7186,-3.7036,-3.6807,-3.6531,-3.6405,-3.6405,-3.6081,-3.5956,-3.5956,-3.568,-3.5705,-3.5956,-3.5956,-3.6107,-3.6405,-3.5805,-3.5403,-3.5082,-3.4575,-3.4173,-3.3922,-3.4173,-3.4022,-3.3539,-3.3746,-3.3771,-3.3495,-3.3219,-3.3262,-3.347,-3.3495,-3.3621,-3.3847,-3.3093,-3.2491,-3.219,-3.1185,0.0,0.0,0.0,0.0,0.0,0.0,0.0,0.0,-2.7602,0.0,-2.5714,-2.5147,-2.4808,-2.4808,-2.5039,-2.5402,-2.5935,-2.7253,-2.838,-2.926,-3.0378,-3.111,-3.1345,-3.0615,-2.9938,-2.9519,-2.8178,-2.7066,-2.6696,-2.6507,-2.6562,-2.7074,-2.8574,-3.0024,-3.1048,-3.2994,-3.4678,-3.5331,-3.6048,-3.6358,-3.6383,-3.6033,-3.5576,-3.4986,-3.4852,-3.4514,-3.3832,-3.3874,-3.4131,-3.453,-3.4268,-3.3915,-3.3399,-3.2827,-3.2128,-3.1365,-3.0492,-2.998,-3.0176,-2.9863,-2.9724,-2.9805,-2.9707,-2.957,-2.957,-2.957,-2.9687,-3.0156,-3.0234,-3.0117,-4.6541,-4.3779,-4.3008,-4.0971,-3.8284,-3.7509,-3.6908,-3.6405,0.0,0.0,0.0,-3.6405,-3.6405,-3.638,-3.578,-3.5483,-3.5458,-3.4977,-3.4931,-3.5357,-3.5357,-3.5629,-3.6053,-3.5152,-3.4675,-3.455,-3.4123,-3.3847,-3.3771,-3.4299,-3.4299,-3.3822,-3.3847,-3.3671,-3.3244,-3.3219,-3.3445,-3.3847,-3.3445,-3.3445,-3.3847,-3.2893,-3.2315,-3.2215,-3.1185,-3.0557,-3.0457,-3.003,-2.9779,-2.9779,-2.9779,-2.9209,-2.7884,-2.6994,-2.588,-2.4575,-2.3627,-2.312,-2.3218,-2.3594,-2.3988,-2.4451,-2.7086,-2.9244,-3.0663,-3.1235,-3.1712,-3.219,-3.1418,-3.0989,-3.1131,-2.9258,-2.7814,-2.7647,-2.6818,-2.6406,-2.6808,-2.8178,-2.9411,-3.0368,-3.2451,-3.4144,-3.4511,-3.5639,-3.6355,-3.6091,-3.5282,-3.4141,-3.3889,-3.424,-3.4611,-3.4392,-3.4211,-3.468,-3.4984,-3.4513,-3.3937,-3.4065,-3.2952,-3.1963,-3.1475,-3.0394,-2.9603,-2.9629,-2.9548,-2.943,-2.9414,-2.9355,-2.9355,-2.9355,-2.9391,-2.9336,-2.9336,-2.9355,-2.9258,-4.7021,-4.5012,-4.338,-4.1536,-3.9511,-3.7871,-3.6933,-3.643,-3.6405,-3.6405,-3.6405,-3.6405,-3.6405,-3.638,-3.578,-3.5483,-3.5458,-3.4931,-3.4751,-3.4806,-3.4826,-3.4831,-3.4951,-3.4731,-3.4474,-3.4048,-3.3922,-3.3646,-3.3294,-3.3746,-3.3746,-3.3363,-3.3671,-3.3847,-3.3796,-3.3796,-3.3822,-3.3897,-3.3822,-3.3822,-3.3897,-3.3269,-3.2717,-3.219,-3.1185,-3.0382,-2.993,-2.9829,-2.9779,-2.9779,-2.9779,-2.887,-2.6894,-2.6607,-2.5546,-2.356,-2.3169,-2.3257,-2.3672,-2.375,-2.4804,-2.7195,-2.9991,-3.1506,-3.132,-3.1788,-3.2139,-3.2198,-3.2429,-3.2271,-3.1311,-2.9897,-2.868,-2.7673,-2.6536,-2.581,-2.5947,-2.6892,-2.8236,-2.9978,-3.1591,-3.3206,-3.4397,-3.5569,-3.6107,-3.5644,-3.4726,-3.3528,-3.1615,-3.1325,-3.1954,-3.2418,-3.2096,-3.2753,-3.4497,-3.5096,-3.4957,-3.5427,-3.4266,-3.2831,-3.1836,-3.0146,-2.9251,-2.9492,-2.8984,-2.8711,-2.8926,-2.8691,-2.8594,-2.8574,-2.8574,-2.8555,-2.8574,-2.8555,-2.8613,-4.6429,-4.4283,-4.2805,-4.0911,-3.8768,-3.7349,-3.6433,-3.5956,-3.6279,-3.6405,-3.6405,-3.6405,-3.6207,-3.5881,-3.5307,-3.4926,-3.4625,-3.4073,-3.3997,-3.4274,-3.4274,-3.4424,-3.4675,-3.4424,-3.4148,-3.3897,-3.3596,-3.347,-3.352,-3.3495,-3.347,-3.3495,-3.3495,-3.3596,-3.3872,-3.3596,-3.3596,-3.3872,-3.3596,-3.3445,-3.3445,-3.3262,-3.2817,-3.2215,-3.1712,-3.1085,-3.0281,-3.0231,-3.0105,-2.9804,-2.9779,-2.9052,-2.7481,-2.736,-2.6448,-2.4536,-2.4338,-2.4275,-2.4147,-2.4355,-2.5737,-2.8477,-2.9931,-3.1187,-3.2273,-3.2541,-3.2692,-3.2692,-3.2918,-3.2612,-3.1311,-3.0124,-2.8912,-2.772,-2.6476,-2.584,-2.6173,-2.7111,-2.8193,-2.9429,-3.134,-3.2864,-3.3538,-3.4715,-3.5403,-3.4994,-3.3863,-3.19,-2.9373,-2.929,-2.9949,-3.1043,-3.2075,-3.3275,-3.4521,-3.4768,-3.5134,-3.5966,-3.435,-3.29,-3.1915,-3.0166,-2.8908,-2.8809,-2.8516,-2.8398,-2.8574,-2.8437,-2.832,-2.8301,-2.8301,-2.8301,-2.8301,-2.8301,-2.8359,-4.5553,-4.3393,-4.1966,-3.9926,-3.7612,-3.6782,-3.6107,-3.578,-3.6182,-3.6405,-3.6405,-3.6279,-3.5931,-3.5458,-3.4806,-3.4299,-3.3872,-3.3319,-3.3319,-3.3696,-3.3721,-3.3947,-3.4274,-3.3897,-3.3721,-3.3671,-3.3269,-3.3319,-3.3621,-3.3294,-3.3338,-3.3646,-3.3395,-3.3545,-3.4073,-3.3545,-3.352,-3.3997,-3.342,-3.3136,-3.3136,-3.3136,-3.2792,-3.2265,-3.2215,-3.1763,-3.0859,-3.0683,-3.0457,-3.0181,-2.993,-2.9386,-2.8562,-2.8079,-2.7217,-2.576,-2.5316,-2.4986,-2.467,-2.5505,-2.704,-2.919,-2.992,-3.1045,-3.281,-3.3136,-3.3136,-3.3136,-3.3111,-3.2698,-3.1689,-3.0283,-2.9004,-2.8049,-2.662,-2.5859,-2.6271,-2.75,-2.8528,-2.9095,-3.1265,-3.2815,-3.3015,-3.3917,-3.4409,-3.3633,-3.239,-3.0469,-2.8313,-2.816,-2.9003,-2.9891,-3.1695,-3.3028,-3.3674,-3.3895,-3.4605,-3.6001,-3.4483,-3.3047,-3.2117,-3.0297,-2.8761,-2.85,-2.834,-2.8301,-2.8301,-2.8301,-2.8301,-2.8301,-2.8301,-2.8301,-2.8301,-2.8301,-2.8301,-4.4794,-4.3216,-4.1059,-3.8726,-3.6653,-3.6455,-3.6355,-3.6304,-3.638,-3.6405,-3.6329,-3.583,-3.5558,-3.5357,-3.4449,-3.3947,-3.3822,-3.3319,-3.3119,-3.3212,-3.3187,-3.3194,-3.3269,-3.3237,-3.3212,-3.3212,-3.3162,-3.3162,-3.3237,-3.3162,-3.3162,-3.3262,-3.3596,-3.4073,-3.45,-3.4073,-3.4073,-3.46,-3.3596,-3.3136,-3.3136,-3.3136,-3.2792,-3.224,-3.2215,-3.1938,-3.1336,-3.0859,-3.0809,-3.111,-3.0306,-2.9757,-2.9511,-2.8142,-2.6907,-2.6246,-2.5159,-2.4643,-2.5169,-2.7501,-2.8984,-2.9487,-3.1335,-3.2655,-3.3068,-3.3136,-3.3136,-3.3136,-3.3136,-3.2982,-3.281,-3.0822,-2.9442,-2.905,-2.7173,-2.5713,-2.6035,-2.7219,-2.8487,-2.9298,-3.1298,-3.2781,-3.3069,-3.3915,-3.3643,-3.1714,-3.1213,-3.0101,-2.8113,-2.8428,-2.894,-2.8635,-2.888,-3.0078,-3.1882,-3.2532,-3.3656,-3.5593,-3.5138,-3.3728,-3.2419,-3.1098,-2.9807,-2.8847,-2.8301,-2.8301,-2.8301,-2.8301,-2.8301,-2.8301,-2.8301,-2.8301,-2.8301,-2.8301,-2.8301,-4.421,-4.2242,-4.0585,-3.8532,-3.6575,-3.6405,-3.6182,-3.5906,-3.6279,-3.6182,-3.5855,-3.5583,-3.5332,-3.4956,-3.4248,-3.3721,-3.3438,-3.3169,-3.3136,-3.3136,-3.3136,-3.3136,-3.3136,-3.3136,-3.3136,-3.3136,-3.3136,-3.3136,-3.3136,-3.3136,-3.3136,-3.3136,-3.3319,-3.3696,-3.4148,-3.3696,-3.3696,-3.4198,-3.347,-3.3136,-3.3136,-3.3136,-3.2968,-3.2767,-3.2717,-3.2466,-3.1913,-3.1662,-3.1512,-3.1386,-3.0959,-3.0773,-3.0721,-3.0005,-2.9051,-2.7699,-2.6099,-2.5273,-2.5449,-2.6594,-2.784,-2.9258,-3.0328,-3.1468,-3.2939,-3.3136,-3.3136,-3.3136,-3.3136,-3.2828,-3.2064,-3.1045,-3.0214,-2.935,-2.7861,-2.6791,-2.686,-2.7413,-2.8241,-2.9325,-3.0811,-3.2219,-3.2916,-3.347,-3.2654,-3.0651,-3.0178,-2.9505,-2.7502,-2.76,-2.787,-2.7636,-2.7539,-2.8788,-3.1118,-3.1806,-3.2922,-3.443,-3.4285,-3.31,-3.2917,-3.1105,-2.9683,-2.9452,-2.8794,-2.8335,-2.8301,-2.8301,-2.8301,-2.8301,-2.8301,-2.8301,-2.8301,-2.8301,-2.8301,-4.3013,-4.0851,-3.9633,-3.8071,-3.643,-3.6405,-3.6132,-3.5855,-3.6182,-3.6132,-3.5734,-3.5583,-3.5282,-3.4856,-3.4223,-3.3596,-3.3162,-3.3136,-3.3136,-3.3136,-3.3136,-3.3136,-3.3136,-3.3136,-3.3136,-3.3136,-3.3136,-3.3136,-3.3136,-3.3136,-3.3136,-3.3136,-3.3136,-3.3345,-3.3771,-3.3388,-3.3345,-3.3796,-3.337,-3.3136,-3.3136,-3.3136,-3.3136,-3.3136,-3.3136,-3.2867,-3.2466,-3.229,-3.2114,-3.1905,-3.1562,-3.1537,-3.1838,-3.1398,-3.0276,-2.843,-2.6656,-2.5868,-2.6207,-2.6524,-2.7626,-2.9579,-3.0192,-3.1134,-3.2655,-3.3136,-3.3136,-3.3136,-3.3136,-3.2655,-3.1909,-3.14,-3.0798,-2.9943,-2.8588,-2.7626,-2.7552,-2.7814,-2.847,-2.935,-3.0913,-3.204,-3.2853,-3.3075,-3.2269,-3.008,-2.9639,-2.9033,-2.7041,-2.673,-2.6926,-2.6992,-2.7031,-2.8228,-3.0707,-3.1363,-3.2319,-3.3801,-3.3983,-3.3763,-3.3553,-3.1483,-2.9947,-3.0026,-2.9092,-2.8388,-2.8301,-2.8301,-2.8301,-2.8301,-2.8301,-2.8301,-2.8301,-2.8301,-2.8301,-4.0657,-3.9019,-3.7786,-3.7054,-3.6405,-3.6405,-3.6405,-3.6329,-3.6405,-3.638,-3.6279,-3.578,-3.5483,-3.5332,-3.4424,-3.3621,-3.3187,-3.3162,-3.3162,-3.3136,-3.3136,-3.3136,-3.3136,-3.3136,-3.3136,-3.3136,-3.3136,-3.3136,-3.3136,-3.3136,-3.3136,-3.3136,-3.3136,-3.3345,-3.3721,-3.3363,-3.3345,-3.3771,-3.3388,-3.3136,-3.3136,-3.3136,-3.3136,-3.3136,-3.3136,-3.3086,-3.2968,-3.2516,-3.2441,-3.2968,-3.2014,-3.1888,-3.2724,-3.1393,-2.9706,-2.7874,-2.6524,-2.6275,-2.7336,-2.8305,-2.9578,-3.089,-3.1757,-3.2853,-3.2982,-3.2982,-3.2982,-3.3068,-3.3136,-3.3025,-3.281,-3.1952,-3.1311,-3.0911,-2.9004,-2.7814,-2.76,-2.8402,-2.9212,-2.9715,-3.1424,-3.2742,-3.3068,-3.3136,-3.1889,-3.0102,-2.9395,-2.8643,-2.6901,-2.6387,-2.6593,-2.6898,-2.7219,-2.7935,-3.0317,-3.0871,-3.1994,-3.3573,-3.4359,-3.4774,-3.3792,-3.2741,-3.1627,-3.0493,-2.9197,-2.8441,-2.8354,-2.8301,-2.8301,-2.8301,-2.8301,-2.8301,-2.8301,-2.8301,-2.8301,-4.0324,-3.8266,-3.7513,-3.6908,-3.643,-3.6405,-3.6405,-3.6405,-3.6405,-3.6405,-3.638,-3.6157,-3.568,-3.4956,-3.4931,-3.4449,-3.3646,-3.3596,-3.342,-3.3162,-3.3136,-3.3136,-3.3136,-3.3136,-3.3136,-3.3136,-3.3136,-3.3136,-3.3136,-3.3136,-3.3136,-3.3136,-3.3136,-3.3237,-3.3338,-3.3237,-3.3388,-3.3796,-3.337,-3.3244,-3.3495,-3.3244,-3.3136,-3.3136,-3.3136,-3.3136,-3.3136,-3.2867,-3.2867,-3.3111,-3.2709,-3.2641,-3.2907,-3.1739,-3.0299,-2.8866,-2.7851,-2.7171,-2.7045,-2.7923,-2.9164,-3.0261,-3.058,-3.1512,-3.2568,-3.2413,-3.2196,-3.2896,-3.3136,-3.3136,-3.3025,-3.2655,-3.2084,-3.1134,-2.9761,-2.8355,-2.7861,-2.8002,-2.8541,-2.9555,-3.1557,-3.3068,-3.2896,-3.2438,-3.1223,-2.9738,-2.8773,-2.7662,-2.6415,-2.5927,-2.6251,-2.7142,-2.7475,-2.8253,-3.0675,-3.0553,-3.1018,-3.2828,-3.3959,-3.4395,-3.3964,-3.2737,-3.1562,-3.1302,-2.9911,-2.8548,-2.8441,-2.8301,-2.8301,-2.8301,-2.8301,-2.8301,-2.8301,-2.8301,-2.8301,-3.9669,-3.8088,-3.7412,-3.686,-3.643,-3.6405,-3.6405,-3.6405,-3.6405,-3.6405,-3.6405,-3.6405,-3.583,-3.5107,-3.5332,-3.4951,-3.3972,-3.3897,-3.3596,-3.3119,-3.3136,-3.3136,-3.3136,-3.3136,-3.3136,-3.3136,-3.3136,-3.3136,-3.3136,-3.3136,-3.3136,-3.3136,-3.3136,-3.3136,-3.3136,-3.3136,-3.3294,-3.3495,-3.3244,-3.3312,-3.3545,-3.3269,-3.3136,-3.3136,-3.3136,-3.3136,-3.3136,-3.3136,-3.3136,-3.3136,-3.3136,-3.3136,-3.2982,-3.2079,-3.1125,-3.0285,-2.9346,-2.8492,-2.7813,-2.822,-2.8972,-2.9702,-2.9643,-3.0328,-3.2152,-3.1689,-3.1909,-3.2742,-3.3111,-3.3025,-3.2568,-3.2457,-3.2108,-3.1223,-3.0124,-2.8912,-2.7767,-2.7579,-2.819,-2.935,-3.1134,-3.2283,-3.2481,-3.2127,-3.1311,-3.0124,-2.8958,-2.772,-2.662,-2.5917,-2.6159,-2.7315,-2.7547,-2.8675,-3.0466,-3.0857,-3.1179,-3.2744,-3.3746,-3.4148,-3.4148,-3.2889,-3.2071,-3.185,-3.0876,-2.9303,-2.8495,-2.8354,-2.8301,-2.8301,-2.8301,-2.8301,-2.8301,-2.8301,-2.8301,-3.8592,-3.7965,-3.7412,-3.686,-3.6455,-3.6405,-3.6405,-3.6405,-3.6405,-3.6405,-3.6405,-3.638,-3.5931,-3.5483,-3.5382,-3.4856,-3.3972,-3.3872,-3.3596,-3.3162,-3.3136,-3.3136,-3.3136,-3.3136,-3.3136,-3.3136,-3.3136,-3.3136,-3.3136,-3.3136,-3.3136,-3.3136,-3.3136,-3.3136,-3.3136,-3.3136,-3.3136,-3.3212,-3.3144,-3.3119,-3.3136,-3.3119,-3.3136,-3.3136,-3.3136,-3.3136,-3.3162,-3.3136,-3.3136,-3.3136,-3.3136,-3.3136,-3.3057,-3.2479,-3.2051,-3.1778,-3.0858,-3.0274,-2.9969,-2.9611,-2.9433,-2.9389,-2.9325,-2.9784,-3.0866,-3.1,-3.1424,-3.2568,-3.2853,-3.2568,-3.1689,-3.1577,-3.14,-3.1045,-2.9897,-2.8727,-2.8049,-2.7694,-2.8049,-2.9189,-3.0395,-3.111,-3.1444,-3.1821,-3.1733,-3.0822,-2.9738,-2.8556,-2.7297,-2.6355,-2.6392,-2.7357,-2.8156,-2.9205,-3.0306,-3.1335,-3.2045,-3.2866,-3.3533,-3.4028,-3.4284,-3.3574,-3.2996,-3.2624,-3.1162,-2.9723,-2.8953,-2.8741,-2.8354,-2.8301,-2.8301,-2.8301,-2.8301,-2.8301,-2.8301,-3.8542,-3.7965,-3.7412,-3.6908,-3.643,-3.6405,-3.6405,-3.6405,-3.6405,-3.6405,-3.6329,-3.5956,-3.5458,-3.5031,-3.4931,-3.4399,-3.342,-3.3671,-3.3596,-3.3212,-3.3136,-3.3162,-3.3162,-3.3136,-3.3136,-3.3136,-3.3136,-3.3136,-3.3136,-3.3136,-3.3136,-3.3136,-3.3136,-3.3136,-3.3136,-3.3136,-3.3219,-3.3571,-3.3269,-3.3287,-3.3545,-3.3269,-3.3136,-3.3136,-3.3136,-3.3287,-3.3596,-3.3294,-3.3136,-3.3136,-3.3136,-3.3136,-3.3075,-3.2916,-3.2592,-3.2168,-3.2041,-3.1213,-3.0079,-3.0167,-2.9954,-2.9149,-2.8507,-2.8817,-2.9647,-2.9235,-2.9784,-3.1424,-3.1821,-3.1821,-3.2394,-3.25,-3.1733,-3.0124,-2.889,-2.8541,-2.8588,-2.868,-2.8588,-2.8308,-2.9212,-3.0214,-3.0866,-3.1267,-3.0777,-3.0351,-2.934,-2.8285,-2.7142,-2.6605,-2.7114,-2.8735,-2.9233,-2.9893,-3.144,-3.2372,-3.2822,-3.3152,-3.3558,-3.4098,-3.4284,-3.4391,-3.3887,-3.3024,-3.1578,-3.0411,-2.9702,-2.9144,-2.8741,-2.8354,-2.8301,-2.8301,-2.8301,-2.8301,-2.8301,-3.8718,-3.799,-3.7638,-3.7036,-3.6455,-3.6405,-3.6405,-3.6405,-3.6405,-3.6405,-3.6304,-3.5734,-3.5207,-3.4756,-3.468,-3.4223,-3.3495,-3.3947,-3.3897,-3.3445,-3.3395,-3.347,-3.3621,-3.3445,-3.3287,-3.3136,-3.3136,-3.3136,-3.3136,-3.3136,-3.3136,-3.3136,-3.3136,-3.3136,-3.3162,-3.3294,-3.3571,-3.3822,-3.3771,-3.3771,-3.3847,-3.3771,-3.3495,-3.3237,-3.3312,-3.3445,-3.3614,-3.3269,-3.3169,-3.3294,-3.3219,-3.3212,-3.3345,-3.3552,-3.3513,-3.3252,-3.3303,-3.2723,-3.0636,-3.0621,-3.0052,-2.8471,-2.7513,-2.7708,-2.8498,-2.8057,-2.868,-3.0687,-3.0798,-3.1045,-3.2064,-3.1865,-3.1,-2.9624,-2.9304,-2.8866,-2.8912,-2.8308,-2.8049,-2.7861,-2.8727,-2.9852,-3.0643,-3.1223,-3.0732,-3.0668,-2.9682,-2.8732,-2.7737,-2.6992,-2.814,-2.925,-2.9922,-3.1112,-3.2901,-3.3502,-3.3652,-3.3696,-3.3721,-3.4148,-3.449,-3.4693,-3.4483,-3.3734,-3.2504,-3.1081,-3.0255,-2.9702,-2.925,-2.8847,-2.8301,-2.8301,-2.8301,-2.8301,-2.8301,-3.912,-3.804,-3.799,-3.7337,-3.648,-3.6405,-3.6405,-3.6405,-3.6405,-3.6405,-3.6304,-3.568,-3.5182,-3.4806,-3.4655,-3.4324,-3.4098,-3.4399,-3.4474,-3.4148,-3.4073,-3.4223,-3.4324,-3.3972,-3.3545,-3.3187,-3.3136,-3.3119,-3.3262,-3.3262,-3.3187,-3.3294,-3.3388,-3.3262,-3.337,-3.3696,-3.3847,-3.3947,-3.4324,-3.4274,-3.3872,-3.4299,-3.4148,-3.3262,-3.352,-3.3621,-3.347,-3.337,-3.3445,-3.3696,-3.3294,-3.3294,-3.3847,-3.4374,-3.4379,-3.4495,-3.5136,-3.3834,-3.1821,-3.1076,-3.0035,-2.7915,-2.7042,-2.6844,-2.7731,-2.7723,-2.8271,-3.0352,-2.9942,-2.9942,-3.0784,-3.0669,-2.9988,-2.9875,-3.0169,-2.9715,-2.8002,-2.6935,-2.7173,-2.7861,-2.8773,-2.9852,-3.1045,-3.1952,-3.237,-3.2206,-3.0927,-2.9967,-2.9074,-2.8229,-2.8263,-2.9004,-3.0046,-3.1113,-3.2572,-3.3602,-3.3753,-3.3847,-3.3947,-3.4424,-3.4851,-3.5077,-3.531,-3.451,-3.3575,-3.2151,-3.0927,-3.0411,-2.9513,-2.8654,-2.8354,-2.8301,-2.8301,-2.8301,-2.8301,-3.9873,-3.804,-3.799,-3.7362,-3.648,-3.6405,-3.6405,-3.6405,-3.6405,-3.6405,-3.6229,-3.5353,-3.5082,-3.5182,-3.45,-3.4223,-3.45,-3.47,-3.4906,-3.5056,-3.5082,-3.465,-3.4223,-3.3997,-3.3646,-3.3194,-3.3237,-3.3294,-3.3646,-3.3696,-3.3872,-3.4274,-3.4173,-3.4223,-3.4299,-3.3997,-3.3897,-3.3897,-3.4048,-3.3922,-3.3571,-3.3922,-3.3972,-3.3746,-3.347,-3.3696,-3.4173,-3.4299,-3.3922,-3.3363,-3.3169,-3.3319,-3.3847,-3.3796,-3.4198,-3.5056,-3.5011,-3.4585,-3.3431,-3.2251,-3.0767,-2.9102,-2.7492,-2.6586,-2.6814,-2.6814,-2.7475,-2.87,-2.8914,-2.9589,-3.064,-3.1067,-3.1382,-3.1805,-3.0913,-2.9761,-2.9074,-2.868,-2.8588,-2.8912,-2.928,-3.0033,-3.1045,-3.1645,-3.1952,-3.1765,-3.1089,-3.0179,-2.9365,-2.8342,-2.7814,-2.8908,-2.9882,-3.0811,-3.1908,-3.3128,-3.3828,-3.3972,-3.4274,-3.4801,-3.5278,-3.5712,-3.594,-3.5786,-3.4775,-3.3453,-3.2079,-3.1081,-2.9911,-2.8847,-2.8335,-2.8335,-2.8301,-2.8301,-2.8301,-3.9699,-3.8015,-3.799,-3.7362,-3.648,-3.6405,-3.6405,-3.6405,-3.6405,-3.6405,-3.6204,-3.5479,-3.5207,-3.5408,-3.4831,-3.4751,-3.5077,-3.5303,-3.5408,-3.5408,-3.5458,-3.5132,-3.4726,-3.4575,-3.4299,-3.3822,-3.3771,-3.3972,-3.4198,-3.4248,-3.4449,-3.455,-3.45,-3.4399,-3.4299,-3.4349,-3.4248,-3.4349,-3.4625,-3.465,-3.4198,-3.4399,-3.4399,-3.4274,-3.3922,-3.4148,-3.465,-3.468,-3.4299,-3.3671,-3.3646,-3.3922,-3.4198,-3.4198,-3.4575,-3.5483,-3.5429,-3.5071,-3.4102,-3.3182,-3.195,-3.021,-2.8502,-2.7632,-2.7249,-2.7211,-2.7976,-2.9246,-2.958,-3.0589,-3.1925,-3.2414,-3.2696,-3.2906,-3.1241,-2.9919,-3.0125,-2.9624,-2.9715,-2.9943,-3.0214,-3.0643,-3.1821,-3.1952,-3.1952,-3.1809,-3.1066,-3.022,-2.9461,-2.8216,-2.766,-2.8715,-2.9688,-3.0578,-3.1709,-3.2983,-3.384,-3.4003,-3.4454,-3.5023,-3.5444,-3.6038,-3.6232,-3.6143,-3.5571,-3.4775,-3.3304,-3.1949,-3.0876,-2.9911,-2.9006,-2.8335,-2.8354,-2.8301,-2.8301,-3.912,-3.799,-3.799,-3.7362,-3.6505,-3.6405,-3.6405,-3.6405,-3.6405,-3.6405,-3.6279,-3.578,-3.5533,-3.5558,-3.5408,-3.5508,-3.5655,-3.6006,-3.5956,-3.5805,-3.5658,-3.5558,-3.5554,-3.5332,-3.5006,-3.4625,-3.4655,-3.468,-3.4731,-3.4756,-3.4876,-3.4951,-3.4575,-3.4299,-3.455,-3.47,-3.4801,-3.4951,-3.5529,-3.5579,-3.5157,-3.5182,-3.5107,-3.4806,-3.4731,-3.468,-3.4806,-3.4781,-3.46,-3.4123,-3.4449,-3.4525,-3.4675,-3.5107,-3.5408,-3.5583,-3.5859,-3.5437,-3.427,-3.4196,-3.3231,-3.1033,-3.0049,-2.9116,-2.8101,-2.833,-2.9275,-3.0188,-3.0938,-3.2012,-3.3425,-3.3377,-3.3204,-3.3404,-3.1874,-3.102,-3.1125,-3.0419,-3.0033,-3.1178,-3.14,-3.1996,-3.2655,-3.3119,-3.3082,-3.1805,-3.1065,-3.0384,-2.937,-2.814,-2.7964,-2.8577,-2.9493,-3.0298,-3.1597,-3.2949,-3.3583,-3.409,-3.4576,-3.5051,-3.5439,-3.5904,-3.6238,-3.6216,-3.5883,-3.5283,-3.4288,-3.3005,-3.1876,-3.0618,-2.9493,-2.8794,-2.8354,-2.8301,-2.8301,-3.9973,-3.799,-3.799,-3.7387,-3.6505,-3.6405,-3.6405,-3.6405,-3.6405,-3.6405,-3.6304,-3.578,-3.5805,-3.6132,-3.5759,-3.578,-3.6107,-3.6355,-3.6329,-3.6279,-3.6182,-3.6182,-3.6081,-3.578,-3.5232,-3.4856,-3.4705,-3.4931,-3.5207,-3.5357,-3.5579,-3.5881,-3.5655,-3.5805,-3.5751,-3.5328,-3.5332,-3.5357,-3.5608,-3.5529,-3.5207,-3.5332,-3.5433,-3.5282,-3.5307,-3.5307,-3.5332,-3.5332,-3.5257,-3.5006,-3.453,-3.4449,-3.4675,-3.4575,-3.5027,-3.5805,-3.5855,-3.574,-3.5588,-3.4776,-3.37,-3.1933,-3.0461,-2.9147,-2.7969,-2.885,-2.9589,-3.0206,-3.1174,-3.2486,-3.3577,-3.2718,-3.3102,-3.3811,-3.3295,-3.2717,-3.3301,-3.2082,-3.1564,-3.2313,-3.2661,-3.281,-3.3119,-3.3571,-3.3126,-3.193,-3.1133,-3.0523,-2.9327,-2.7992,-2.7795,-2.7999,-2.863,-2.9324,-3.0121,-3.1551,-3.2733,-3.3341,-3.3979,-3.4414,-3.48,-3.521,-3.5355,-3.5858,-3.6358,-3.5523,-3.4337,-3.392,-3.2755,-3.1389,-3.0016,-2.925,-2.8708,-2.8495,-2.8301,-3.9649,-3.804,-3.799,-3.7362,-3.6505,-3.6405,-3.6405,-3.6405,-3.6405,-3.6405,-3.6355,-3.6031,-3.6107,-3.638,-3.6081,-3.6107,-3.6355,-3.6405,-3.6405,-3.6405,-3.6405,-3.6405,-3.638,-3.6107,-3.5755,-3.5504,-3.5504,-3.5705,-3.5881,-3.5931,-3.6056,-3.6329,-3.6132,-3.5855,-3.5981,-3.5658,-3.5483,-3.5558,-3.5805,-3.5755,-3.5604,-3.5433,-3.5483,-3.5583,-3.578,-3.5906,-3.5906,-3.5931,-3.578,-3.5433,-3.5002,-3.4776,-3.5077,-3.5077,-3.56,-3.6103,-3.6132,-3.6031,-3.5998,-3.5162,-3.3773,-3.2381,-3.0823,-2.9446,-2.8665,-2.9218,-2.9848,-3.03,-3.1396,-3.2696,-3.3739,-3.4246,-3.4481,-3.4629,-3.4527,-3.4336,-3.4379,-3.3345,-3.2798,-3.3539,-3.3627,-3.3677,-3.3872,-3.4098,-3.379,-3.2852,-3.0996,-3.0267,-2.9186,-2.7881,-2.6878,-2.6907,-2.7593,-2.8232,-2.8762,-2.9958,-3.1575,-3.2251,-3.2806,-3.3102,-3.336,-3.3824,-3.424,-3.4654,-3.4896,-3.4969,-3.4019,-3.3773,-3.3304,-3.2028,-3.0721,-2.9755,-2.89,-2.8441,-2.8301,-3.9019,-3.799,-3.799,-3.7362,-3.6505,-3.6405,-3.6405,-3.6405,-3.6405,-3.6405,-3.6405,-3.6405,-3.6355,-3.6405,-3.638,-3.6405,-3.6405,-3.6405,-3.6405,-3.6405,-3.6405,-3.6405,-3.638,-3.6355,-3.6329,-3.6405,-3.6304,-3.6355,-3.6355,-3.6405,-3.6329,-3.6329,-3.5956,-3.5881,-3.5755,-3.5633,-3.5683,-3.5805,-3.6081,-3.6304,-3.6254,-3.5906,-3.5755,-3.583,-3.6056,-3.6329,-3.6329,-3.6304,-3.6132,-3.5658,-3.5633,-3.5608,-3.5755,-3.5956,-3.6355,-3.638,-3.6355,-3.6355,-3.6143,-3.5114,-3.3773,-3.2381,-3.106,-2.9702,-2.8913,-2.9399,-3.0089,-3.0678,-3.152,-3.2733,-3.397,-3.4339,-3.4847,-3.5006,-3.5024,-3.5105,-3.4728,-3.4295,-3.4335,-3.4379,-3.4248,-3.4173,-3.4424,-3.463,-3.4215,-3.3538,-3.1646,-2.9972,-2.8896,-2.7804,-2.6774,-2.6269,-2.6954,-2.7717,-2.8253,-2.9697,-3.1134,-3.1349,-3.1833,-3.1784,-3.1832,-3.1651,-3.1977,-3.2682,-3.2932,-3.3155,-3.3353,-3.3105,-3.2605,-3.2028,-3.1162,-2.9859,-2.9059,-2.8388,-2.8301,-3.9044,-3.799,-3.799,-3.7387,-3.6505,-3.643,-3.643,-3.6405,-3.6405,-3.6405,-3.6405,-3.6405,-3.6405,-3.6405,-3.6405,-3.643,-3.648,-3.6455,-3.643,-3.6455,-3.643,-3.6405,-3.6405,-3.6405,-3.6405,-3.6405,-3.6405,-3.6405,-3.6405,-3.6405,-3.6405,-3.6405,-3.6304,-3.6182,-3.6157,-3.6254,-3.6157,-3.6107,-3.6282,-3.6405,-3.638,-3.6304,-3.6157,-3.6157,-3.6355,-3.6405,-3.6405,-3.6405,-3.6355,-3.6232,-3.6279,-3.6254,-3.6107,-3.5931,-3.6006,-3.6304,-3.6405,-3.6405,-3.6216,-3.5066,-3.3773,-3.2431,-3.0927,-2.9702,-2.9006,-2.9355,-2.9911,-3.0463,-3.1286,-3.2381,-3.2582,-3.3181,-3.3059,-3.3165,-3.3879,-3.4438,-3.4438,-3.4691,-3.4803,-3.4703,-3.4595,-3.47,-3.5002,-3.5015,-3.4491,-3.3628,-3.2018,-3.0334,-2.9033,-2.7878,-2.681,-2.6523,-2.6516,-2.729,-2.7959,-2.9721,-3.1113,-3.0799,-3.0889,-3.0521,-3.0307,-2.9387,-2.9565,-3.0721,-3.1622,-3.2079,-3.218,-3.218,-3.1825,-3.1214,-3.0514,-2.9859,-2.9059,-2.8301,-2.8301,-3.9195,-3.8467,-3.8467,-3.7814,-3.691,-3.6832,-3.6656,-3.643,-3.6405,-3.6405,-3.6405,-3.6405,-3.6405,-3.6405,-3.6405,-3.6556,-3.6732,-3.6505,-3.6581,-3.6707,-3.6556,-3.6405,-3.6405,-3.6405,-3.6405,-3.6405,-3.6405,-3.6405,-3.6405,-3.6405,-3.6405,-3.6405,-3.6405,-3.6405,-3.6405,-3.638,-3.6405,-3.6405,-3.6405,-3.6405,-3.6405,-3.6405,-3.6405,-3.6405,-3.6405,-3.6405,-3.6405,-3.6405,-3.6405,-3.6405,-3.6405,-3.6405,-3.6329,-3.6182,-3.6081,-3.6355,-3.6358,-3.6358,-3.5953,-3.4605,-3.2955,-3.2252,-3.0514,-2.9092,-2.8635,-2.8847,-2.9303,-2.9618,-3.0411,-3.1286,-3.1286,-3.1774,-3.223,-3.2381,-3.2955,-3.3254,-3.3555,-3.4318,-3.4675,-3.4758,-3.4935,-3.5215,-3.5655,-3.5422,-3.4733,-3.3624,-3.231,-3.0762,-2.9161,-2.7931,-2.6784,-2.6547,-2.6457,-2.6992,-2.767,-2.8944,-3.032,-3.0134,-3.0004,-2.9641,-2.9303,-2.8708,-2.8794,-2.9513,-3.0224,-3.0824,-3.106,-3.1081,-3.0721,-3.0463,-3.0172,-2.9702,-2.8847,-2.8301,-2.8301,-3.9626,-3.8919,-3.8919,-3.8291,-3.7437,-3.7337,-3.7111,-3.6782,-3.6631,-3.6606,-3.6556,-3.6455,-3.6405,-3.6455,-3.6581,-3.6832,-3.7136,-3.6732,-3.6857,-3.6935,-3.6656,-3.6405,-3.6405,-3.6405,-3.6405,-3.6405,-3.6405,-3.6405,-3.6405,-3.6405,-3.6405,-3.6405,-3.6405,-3.6405,-3.6405,-3.6405,-3.6405,-3.6405,-3.6405,-3.6405,-3.6405,-3.6405,-3.6405,-3.6405,-3.6405,-3.6405,-3.6405,-3.6405,-3.6405,-3.6405,-3.6405,-3.6405,-3.6405,-3.6405,-3.6405,-3.6358,-3.6168,-3.5906,-3.4945,-3.338,-3.1825,-3.1571,-2.9618,-2.8601,-2.8354,-2.8388,-2.8388,-2.8495,-2.9144,-2.9911,-3.0016,-3.0773,-3.1235,-3.1469,-3.1774,-3.2331,-3.2632,-3.3383,-3.4751,-3.5014,-3.534,-3.5694,-3.6081,-3.5915,-3.5266,-3.3792,-3.2469,-3.0789,-2.9235,-2.7901,-2.6929,-2.6584,-2.6545,-2.6898,-2.7385,-2.7843,-2.8834,-2.9036,-2.8991,-2.8827,-2.8654,-2.8354,-2.8601,-2.8847,-2.8814,-2.9355,-2.965,-2.9911,-2.965,-2.9545,-2.9807,-2.9513,-2.8654,-2.8301,-2.8301,-4.0408,-3.8919,-3.8944,-3.8492,-3.7965,-3.7914,-3.7889,-3.7762,-3.731,-3.7086,-3.7177,-3.6656,-3.6455,-3.6556,-3.6885,-3.7086,-3.7235,-3.7134,-3.7086,-3.7186,-3.6707,-3.6405,-3.6405,-3.6405,-3.6405,-3.6405,-3.6405,-3.6405,-3.6405,-3.6405,-3.6405,-3.6405,-3.6405,-3.6405,-3.6405,-3.6405,-3.6405,-3.6405,-3.6405,-3.6405,-3.6405,-3.6405,-3.6405,-3.6405,-3.6405,-3.6405,-3.6405,-3.6405,-3.6405,-3.6405,-3.6405,-3.6405,-3.6405,-3.6405,-3.6405,-3.6073,-3.5307,-3.4117,-3.3204,-3.1724,-3.0773,-3.0566,-2.9144,-2.8441,-2.8301,-2.8301,-2.8301,-2.8301,-2.8548,-2.8688,-2.8794,-2.8794,-2.8847,-2.9755,-3.0927,-3.1081,-3.1338,-3.3453,-3.4678,-3.4848,-3.5063,-3.5754,-3.6329,-3.6091,-3.5707,-3.4126,-3.2532,-3.0866,-2.9295,-2.7894,-2.707,-2.6758,-2.6836,-2.7187,-2.7402,-2.7845,-2.8027,-2.8281,-2.8281,-2.8301,-2.8301,-2.8301,-2.8301,-2.8388,-2.8301,-2.8301,-2.8794,-2.8953,-2.8654,-2.8741,-2.9059,-2.8847,-2.8388,-2.8301,-2.8301,-4.2457,-4.0432,-4.0432,-3.9674,-3.8567,-3.8492,-3.8712,-3.882,-3.8081,-3.7873,-3.7998,-3.7222,-3.6883,-3.7003,-3.7111,-3.7563,-3.7864,-3.7561,-3.7387,-3.7387,-3.6908,-3.6455,-3.6405,-3.6405,-3.6405,-3.6405,-3.6405,-3.6405,-3.6405,-3.6405,-3.6405,-3.6405,-3.6405,-3.6405,-3.6405,-3.6405,-3.6405,-3.6405,-3.6405,-3.6405,-3.6405,-3.6405,-3.6405,-3.6405,-3.6405,-3.6405,-3.6405,-3.6405,-3.6405,-3.6405,-3.6405,-3.6405,-3.6405,-3.631,-3.6168,-3.5235,-3.4775,-3.4166,-3.3453,-3.144,-3.0514,-2.9964,-2.9164,-2.8354,-2.8301,-2.8301,-2.8301,-2.8301,-2.8301,-2.8301,-2.8301,-2.8301,-2.8301,-2.89,-3.0224,-2.9911,-3.0514,-3.3254,-3.4824,-3.4824,-3.4945,-3.5667,-3.6121,-3.5595,-3.4993,-3.3684,-3.204,-3.0405,-2.8931,-2.7648,-2.7129,-2.6992,-2.7226,-2.763,-2.7748,-2.7982,-2.8105,-2.8281,-2.8301,-2.8301,-2.8301,-2.8301,-2.8301,-2.8301,-2.8301,-2.8301,-2.8301,-2.8354,-2.8441,-2.8388,-2.8301,-2.8301,-2.8301,-2.8301,-2.8301,-4.461,-4.2544,-4.2204,-4.1255,-4.0074,-4.0074,-4.0331,-4.0632,-3.9707,-3.9411,-3.9336,-3.8684,-3.8161,-3.8243,-3.8618,-3.9165,-3.9293,-3.8479,-3.8034,-3.776,-3.7236,-3.6684,-3.6581,-3.6505,-3.6556,-3.6452,-3.6405,-3.6405,-3.6405,-3.6405,-3.6405,-3.6405,-3.6405,-3.6405,-3.6405,-3.6405,-3.6405,-3.6405,-3.6405,-3.6405,-3.6405,-3.6405,-3.6405,-3.6405,-3.6405,-3.6405,-3.6405,-3.6405,-3.6405,-3.6405,-3.6405,-3.6405,-3.6405,-3.6358,-3.6073,-3.5331,-3.4775,-3.4385,-3.3476,-3.1999,-3.0463,-2.9618,-2.9112,-2.8301,-2.8301,-2.8301,-2.8301,-2.8301,-2.8301,-2.8301,-2.8301,-2.8301,-2.8301,-2.8708,-2.9565,-2.9059,-2.927,-3.2123,-3.3944,-3.3798,-3.424,-3.5595,-3.5715,-3.4969,-3.4117,-3.3032,-3.1556,-2.9932,-2.8753,-2.7616,-2.748,-2.7461,-2.7617,-2.791,-2.7969,-2.8105,-2.8262,-2.8301,-2.8301,-2.8301,-2.8301,-2.8301,-2.8301,-2.8301,-2.8301,-2.8301,-2.8301,-2.8301,-2.8301,-2.8301,-2.8301,-2.8301,-2.8301,-2.8301,-2.8301,-4.6388,-4.5024,-4.3882,-4.3286,-4.2965,-4.3183,-4.3156,-4.3078,-4.2496,-4.1808,-4.1279,-4.0703,-4.0177,-4.064,-4.1055,-4.1173,-4.0627,-4.0544,-3.9599,-3.8608,-3.7888,-3.7619,-3.7432,-3.7304,-3.7166,-3.6785,-3.6943,-3.6849,-3.6499,-3.6709,-3.6546,-3.6405,-3.6405,-3.6405,-3.6405,-3.6405,-3.6405,-3.6405,-3.6405,-3.6455,-3.6455,-3.6455,-3.643,-3.6455,-3.643,-3.6405,-3.6405,-3.6405,-3.6405,-3.6405,-3.6405,-3.6405,-3.6405,-3.6405,-3.6121,-3.5858,-3.5162,-3.4727,-3.3871,-3.1949,-2.9911,-2.8847,-2.8335,-2.8301,-2.8301,-2.8301,-2.8301,-2.8359,-2.8418,-2.8379,-2.8359,-2.8301,-2.8398,-2.8674,-2.9258,-2.9278,-2.9647,-3.124,-3.2745,-3.2728,-3.338,-3.4557,-3.4945,-3.4215,-3.4385,-3.3453,-3.1876,-3.0275,-2.9221,-2.8265,-2.8153,-2.8086,-2.8105,-2.8223,-2.8223,-2.8301,-2.8301,-2.8301,-2.8301,-2.8301,-2.8301,-2.8301,-2.8301,-2.8301,-2.8301,-2.8301,-2.8301,-2.8301,-2.8301,-2.8301,-2.8301,-2.8301,-2.8301,-2.8301,-2.8301,-4.7019,-4.655,-4.6003,-4.4932,-4.3476,-4.3476,-4.3929,-4.4414,-4.3631,-4.286,-4.226,-4.0979,-4.0896,-4.1771,-4.1801,-4.1855,-4.1409,-4.1788,-4.0877,-4.0372,-3.9955,-3.9794,-3.9459,-3.9036,-3.9165,-3.8557,-3.845,-3.8043,-3.7494,-3.7448,-3.6896,-3.6687,-3.664,-3.6405,-3.6405,-3.6405,-3.6405,-3.643,-3.6455,-3.6531,-3.6784,-3.6581,-3.6556,-3.686,-3.6505,-3.643,-3.6405,-3.6405,-3.6405,-3.6405,-3.6405,-3.6405,-3.6405,-3.6405,-3.6405,-3.6405,-3.5715,-3.5235,-3.4117,-3.1999,-2.9755,-2.8654,-2.8301,-2.8301,-2.832,-2.8301,-2.8457,-2.8555,-2.8672,-2.8691,-2.8691,-2.8672,-2.8706,-2.8832,-2.906,-2.9333,-2.9917,-3.1144,-3.176,-3.1819,-3.2319,-3.3132,-3.3281,-3.3281,-3.3773,-3.397,-3.2303,-3.0721,-2.965,-2.8794,-2.8548,-2.8441,-2.8441,-2.8301,-2.8301,-2.8301,-2.8301,-2.8301,-2.8301,-2.8301,-2.8301,-2.8301,-2.8301,-2.8301,-2.8301,-2.8301,-2.8301,-2.8301,-2.8301,-2.8301,-2.8301,-2.8301,-2.8301,-2.8301,-2.8301,-4.7309,-4.7309,-4.7309,-4.6299,-4.4748,-4.4656,-4.5001,-4.5399,-4.4755,-4.4004,-4.3369,-4.2121,-4.2319,-4.334,-4.3652,-4.3156,-4.318,-4.3183,-4.2504,-4.2004,-4.1778,-4.1643,-4.1145,-4.078,-4.0402,-4.0106,-3.9842,-3.9271,-3.8649,-3.8649,-3.8289,-3.7815,-3.7381,-3.7289,-3.6405,-3.6405,-3.6405,-3.643,-3.6631,-3.6782,-3.7086,-3.7061,-3.7059,-3.7312,-3.6983,-3.6732,-3.6656,-3.6581,-3.6405,-3.6405,-3.6405,-3.6405,-3.6405,-3.6405,-3.6405,-3.643,-3.631,-3.5883,-3.4581,-3.2151,-3.0016,-2.9197,-2.8441,-2.8413,-2.8437,-2.8476,-2.8691,-2.9062,-2.9121,-2.9121,-2.9121,-2.9101,-2.9062,-2.9218,-2.953,-2.9733,-2.9573,-3.0339,-3.0684,-3.0957,-3.1481,-3.1898,-3.2504,-3.2605,-3.2376,-3.2678,-3.1695,-3.0566,-3.012,-2.9303,-2.8761,-2.8654,-2.8654,-2.8441,-2.8301,-2.8301,-2.8301,-2.8301,-2.8301,-2.8301,-2.8301,-2.8301,-2.8301,-2.8301,-2.8301,-2.8301,-2.8301,-2.8301,-2.8301,-2.8301,-2.8301,-2.8301,-2.8301,-2.8301,-2.8301,-4.7309,-4.7309,-4.7309,-4.7222,-4.6975,-4.7179,-4.6778,-4.6185,-4.5981,-4.5671,-4.5183,-4.481,-4.5179,-4.5908,-4.6004,-4.5533,-4.491,-4.5029,-4.4407,-4.3259,-4.3538,-4.2554,-4.1987,-4.1758,-4.1928,-4.0336,-4.0386,-4.0572,-3.9842,-3.9842,-3.9711,-3.9546,-3.9131,-3.8557,-3.6666,-3.6452,-3.6452,-3.6531,-3.696,-3.7111,-3.7437,-3.7663,-3.7764,-3.7839,-3.7462,-3.7161,-3.7111,-3.6782,-3.6606,-3.6581,-3.6455,-3.6455,-3.6531,-3.6455,-3.6455,-3.6505,-3.648,-3.6386,-3.6075,-3.2527,-3.1004,-3.0433,-2.9819,-2.9118,-2.8991,-2.9,-2.9082,-2.9492,-2.9551,-2.9551,-2.9551,-2.9551,-2.9512,-2.9525,-2.9822,-2.9933,-2.9774,-2.9719,-3.0235,-3.0389,-3.0453,-3.0764,-3.1637,-3.1993,-3.1351,-3.0991,-3.0535,-3.0224,-3.012,-2.946,-2.8741,-2.8654,-2.8601,-2.8495,-2.8301,-2.8301,-2.8301,-2.8301,-2.832,-2.834,-2.834,-2.834,-2.834,-2.832,-2.8379,-2.8476,-2.8398,-2.832,-2.8398,-2.8496,-2.832,-2.8301,-2.8301,-2.832,-2.834,-4.7309,-4.7309,-4.7309,-4.7309,-4.7309,-4.7309,-4.692,-4.6292,-4.5933,-4.5992,-4.6322,-4.5783,-4.5963,-4.6651,-4.6612,-4.6284,-4.575,-4.6432,-4.577,-4.4767,-4.5376,-4.5317,-4.4676,-4.4081,-4.3891,-4.3144,-4.2723,-4.1948,-4.1042,-4.1185,-4.0546,-4.0158,-4.0535,-3.9618,-3.8398,-3.7811,-3.75,-3.743,-3.7412,-3.7487,-3.8165,-3.8165,-3.8216,-3.8517,-3.8015,-3.7739,-3.7688,-3.7186,-3.691,-3.6857,-3.6707,-3.6656,-3.6782,-3.6732,-3.6656,-3.6857,-3.691,-3.7111,-3.6946,-3.5183,-3.3759,-3.2721,-3.1487,-3.0661,-3.0778,-2.9833,-2.9813,-2.9863,-2.998,-3.0,-2.998,-2.998,-2.9902,-2.9668,-2.9797,-2.9856,-2.9816,-2.9898,-3.0083,-2.9917,-2.9942,-3.0005,-3.0537,-3.0958,-3.0473,-3.0337,-3.0052,-3.0203,-3.0193,-2.925,-2.8441,-2.8441,-2.8388,-2.8335,-2.8301,-2.8359,-2.8516,-2.8613,-2.8535,-2.8437,-2.8437,-2.8516,-2.8457,-2.8496,-2.8574,-2.8652,-2.8633,-2.8613,-2.8691,-2.8691,-2.8613,-2.8398,-2.8301,-2.8359,-2.8437,-4.7309,-4.7309,-4.7309,-4.7309,-4.7309,-4.7309,-4.692,-4.6262,-4.5633,-4.5933,-4.6561,-4.6022,-4.6232,-4.692,-4.6864,-4.6513,-4.6137,-4.6814,-4.7106,-4.6211,-4.6814,-4.6513,-4.6271,-4.6219,-4.531,-4.4885,-4.4575,-4.3927,-4.3052,-4.2936,-4.266,-4.2295,-4.1895,-4.1727,-4.0731,-3.9846,-3.8407,-3.8155,-3.7864,-3.819,-3.8592,-3.8768,-3.8818,-3.8894,-3.8668,-3.8316,-3.814,-3.7814,-3.7387,-3.7211,-3.7086,-3.696,-3.7086,-3.7136,-3.7134,-3.7387,-3.7513,-3.7764,-3.7792,-3.7616,-3.6449,-3.6119,-3.4003,-3.2534,-3.2045,-3.1195,-3.0641,-3.0559,-3.0448,-3.043,-3.041,-3.041,-3.0312,-3.0078,-3.0078,-3.0137,-3.0137,-3.0273,-3.0117,-2.992,-2.9724,-2.9704,-2.9629,-2.9541,-2.956,-2.9605,-2.9647,-2.9933,-3.0193,-2.9212,-2.8559,-2.872,-2.852,-2.834,-2.8418,-2.8516,-2.8672,-2.8887,-2.8848,-2.8769,-2.8906,-2.9043,-2.8867,-2.873,-2.8945,-2.9062,-2.8965,-2.8945,-2.9082,-2.9101,-2.9023,-2.875,-2.8398,-2.8418,-2.8574,-4.7309,-4.7309,-4.7309,-4.7309,-4.7309,-4.7309,-4.695,-4.6322,-4.5663,-4.5783,-4.6381,-4.6399,-4.6711,-4.7189,-4.7279,-4.7163,-4.7106,-4.7266,-4.7222,-4.7179,-4.7222,-4.686,-4.6621,-4.6411,-4.6022,-4.5603,-4.5274,-4.5132,-4.5132,-4.4697,-4.4644,-4.4745,-4.4157,-4.3776,-4.2895,-4.1505,-3.9817,-3.9208,-3.8617,-3.8818,-3.8994,-3.9346,-3.9421,-3.9396,-3.9145,-3.8919,-3.8718,-3.8366,-3.7864,-3.7663,-3.7663,-3.7563,-3.7588,-3.7739,-3.7914,-3.804,-3.804,-3.8366,-3.8768,-3.8615,-3.879,-3.8221,-3.6213,-3.4249,-3.2788,-3.2149,-3.1248,-3.0894,-3.0742,-3.0801,-3.082,-3.082,-3.0781,-3.0723,-3.0723,-3.0723,-3.0684,-3.0586,-3.0371,-3.0137,-2.9998,-2.9883,-2.9883,-2.9707,-2.957,-2.9603,-2.9758,-2.9788,-2.987,-2.9387,-2.8976,-2.942,-2.9146,-2.8491,-2.8535,-2.875,-2.8926,-2.916,-2.9316,-2.9316,-2.9453,-2.9548,-2.9277,-2.9219,-2.9434,-2.9531,-2.9629,-2.959,-2.9551,-2.9531,-2.9492,-2.9219,-2.8887,-2.8691,-2.8769,-4.7309,-4.7309,-4.7309,-4.7309,-4.7309,-4.7309,-4.7189,-4.695,-4.6322,-4.6411,-4.701,-4.704,-4.71,-4.7309,-4.7309,-4.7309,-4.7309,-4.7309,-4.7309,-4.7309,-4.7309,-4.7189,-4.707,-4.692,-4.6561,-4.6232,-4.5992,-4.5813,-4.5394,-4.5334,-4.5334,-4.5173,-4.5484,-4.5138,-4.4231,-4.3074,-4.1683,-4.0369,-3.9473,-3.9221,-3.932,-3.9597,-3.9697,-3.9597,-3.9521,-3.9371,-3.9245,-3.8894,-3.8467,-3.8442,-3.8115,-3.799,-3.8467,-3.8191,-3.809,-3.8592,-3.8668,-3.8919,-3.9346,-3.9446,-3.9521,-3.9622,-3.8243,-3.6826,-3.4878,-3.2924,-3.1664,-3.1169,-3.0957,-3.0898,-3.0898,-3.0898,-3.0898,-3.0898,-3.0898,-3.0879,-3.084,-3.0781,-3.0566,-3.0508,-3.0312,-3.0293,-3.0273,-3.0137,-3.0,-2.9941,-2.9898,-2.9901,-2.9734,-2.9321,-2.9183,-2.9633,-2.9633,-2.8976,-2.8926,-2.9121,-2.9277,-2.9434,-2.9648,-2.9805,-2.9902,-2.9863,-2.9668,-2.9668,-2.9824,-3.0137,-3.0469,-3.0332,-3.0039,-3.0019,-2.9961,-2.9668,-2.945,-2.9235,-2.9215,-4.7309,-4.7309,-4.7309,-4.7309,-4.7309,-4.7309,-4.7309,-4.7219,-4.689,-4.698,-4.7279,-4.7279,-4.7309,-4.7309,-4.7309,-4.7309,-4.7309,-4.7309,-4.7309,-4.7309,-4.7309,-4.7279,-4.7309,-4.7279,-4.704,-4.68,-4.6681,-4.6531,-4.6052,-4.5813,-4.5783,-4.6172,-4.6411,-4.5681,-4.4796,-4.3771,-4.2725,-4.1357,-4.026,-3.9651,-3.9572,-3.9697,-3.9697,-3.9697,-3.9697,-3.9697,-3.9672,-3.927,-3.917,-3.9045,-3.8567,-3.8693,-3.8994,-3.8693,-3.8743,-3.917,-3.922,-3.932,-3.9597,-3.9647,-3.9672,-3.9542,-3.9181,-3.7849,-3.6302,-3.4471,-3.2659,-3.1325,-3.1112,-3.0898,-3.0898,-3.0898,-3.0898,-3.0898,-3.0898,-3.0898,-3.0898,-3.0898,-3.0879,-3.0859,-3.084,-3.082,-3.0742,-3.0547,-3.0469,-3.043,-3.0391,-3.0388,-3.0148,-2.9721,-2.9489,-2.9593,-2.9632,-2.9375,-2.9453,-2.9512,-2.9668,-2.9883,-3.0156,-3.0293,-3.0351,-3.0351,-3.0254,-3.0195,-3.0233,-3.0488,-3.0762,-3.0684,-3.0488,-3.0449,-3.041,-3.0273,-2.998,-2.9629,-2.9726,-4.7309,-4.7309,-4.7309,-4.7309,-4.7309,-4.7309,-4.7309,-4.7309,-4.7249,-4.7309,-4.7309,-4.7309,-4.7309,-4.7309,-4.7309,-4.7309,-4.7309,-4.7309,-4.7309,-4.7309,-4.7309,-4.7309,-4.7309,-4.7309,-4.7219,-4.7279,-4.7219,-4.701,-4.704,-4.6741,-4.6651,-4.7249,-4.677,-4.6164,-4.5649,-4.4153,-4.3026,-4.2079,-4.0616,-3.9622,-3.9647,-3.9697,-3.9697,-3.9697,-3.9697,-3.9697,-3.9697,-3.9597,-3.9471,-3.9295,-3.9245,-3.9346,-3.9295,-3.9295,-3.9521,-3.9597,-3.9572,-3.9597,-3.9672,-3.9697,-3.9697,-3.931,-3.853,-3.7926,-3.6811,-3.4958,-3.2928,-3.1767,-3.1498,-3.0995,-3.0898,-3.0898,-3.0898,-3.0898,-3.0898,-3.0898,-3.0898,-3.0898,-3.0898,-3.0898,-3.0898,-3.0898,-3.0879,-3.0684,-3.0664,-3.0781,-3.0781,-3.0723,-3.0547,-3.0137,-2.9961,-2.9805,-2.9902,-2.9941,-2.9805,-2.9902,-3.0078,-3.0312,-3.0547,-3.0664,-3.0644,-3.0742,-3.0859,-3.0684,-3.0508,-3.0664,-3.084,-3.0762,-3.0742,-3.0742,-3.0742,-3.084,-3.0586,-3.0156,-3.0156,-4.7309,-4.7309,-4.7309,-4.7309,-4.7309,-4.7309,-4.7309,-4.7309,-4.7309,-4.7309,-4.7309,-4.7309,-4.7309,-4.7309,-4.7309,-4.7309,-4.7309,-4.7309,-4.7309,-4.7309,-4.7309,-4.7309,-4.7309,-4.7309,-4.7309,-4.7309,-4.7309,-4.7309,-4.7249,-4.713,-4.707,-4.7279,-4.701,-4.6783,-4.6314,-4.4656,-4.317,-4.2447,-4.0794,-3.98,-3.9697,-3.9697,-3.9697,-3.9697,-3.9697,-3.9697,-3.9697,-3.9672,-3.9622,-3.9572,-3.9597,-3.9597,-3.9521,-3.9647,-3.9672,-3.9697,-3.9697,-3.9697,-3.9697,-3.9697,-3.9697,-3.9697,-3.9129,-3.8477,-3.7133,-3.4936,-3.3417,-3.253,-3.171,-3.1228,-3.0898,-3.0898,-3.0898,-3.0898,-3.0898,-3.0898,-3.0898,-3.0898,-3.0898,-3.0898,-3.0898,-3.0898,-3.0898,-3.0898,-3.0898,-3.0879,-3.0879,-3.084,-3.084,-3.0586,-3.0527,-3.043,-3.0547,-3.0547,-3.0332,-3.0254,-3.041,-3.0469,-3.0625,-3.0762,-3.0898,-3.0898,-3.0898,-3.0898,-3.0859,-3.0898,-3.0898,-3.0879,-3.0879,-3.0898,-3.0898,-3.0898,-3.0898,-3.0566,-3.0625,-4.7309,-4.7309,-4.7309,-4.7309,-4.7309,-4.7309,-4.7309,-4.7309,-4.7309,-4.7309,-4.7309,-4.7309,-4.7309,-4.7309,-4.7309,-4.7309,-4.7309,-4.7309,-4.7309,-4.7309,-4.7309,-4.7309,-4.7309,-4.7309,-4.7309,-4.7309,-4.7309,-4.7309,-4.7309,-4.7309,-4.7279,-4.7309,-4.7309,-4.7019,-4.6417,-4.4535,-4.3218,-4.2544,-4.0642,-3.9903,-3.9697,-3.9697,-3.9697,-3.9697,-3.9697,-3.9697,-3.9697,-3.9697,-3.9697,-3.9672,-3.9697,-3.9697,-3.9647,-3.9672,-3.9697,-3.9697,-3.9697,-3.9697,-3.9697,-3.9697,-3.9697,-3.9697,-3.9697,-3.8921,-3.753,-3.5508,-3.4013,-3.3021,-3.1594,-3.0937,-3.0957,-3.0898,-3.0898,-3.0898,-3.0898,-3.0898,-3.0898,-3.0898,-3.0898,-3.0898,-3.0898,-3.0898,-3.0898,-3.0898,-3.0898,-3.0898,-3.0898,-3.0898,-3.0898,-3.0898,-3.0898,-3.0898,-3.0898,-3.0879,-3.0664,-3.0625,-3.0703,-3.0742,-3.0723,-3.0801,-3.0898,-3.0898,-3.0898,-3.0898,-3.0898,-3.0898,-3.0898,-3.0898,-3.0898,-3.0898,-3.0898,-3.0898,-3.0898,-3.0898,-3.0859,-4.7309,-4.7309,-4.7309,-4.7309,-4.7309,-4.7309,-4.7309,-4.7309,-4.7309,-4.7309,-4.7309,-4.7309,-4.7309,-4.7309,-4.7309,-4.7309,-4.7309,-4.7309,-4.7309,-4.7309,-4.7309,-4.7309,-4.7309,-4.7309,-4.7309,-4.7309,-4.7309,-4.7309,-4.7309,-4.7309,-4.7309,-4.7309,-4.7062,-4.677,-4.5553,-4.421,-4.3122,-4.2133,-4.0844,-3.9878,-3.9697,-3.9697,-3.9697,-3.9697,-3.9697,-3.9697,-3.9697,-3.9697,-3.9697,-3.9697,-3.9697,-3.9697,-3.9697,-3.9697,-3.9697,-3.9697,-3.9697,-3.9697,-3.9697,-3.9697,-3.9697,-3.9697,-3.9697,-3.8973,-3.7583,-3.6108,-3.4626,-3.3134,-3.171,-3.0937,-3.0957,-3.0898,-3.0898,-3.0898,-3.0898,-3.0898,-3.0898,-3.0898,-3.0898,-3.0898,-3.0898,-3.0898,-3.0898,-3.0898,-3.0898,-3.0898,-3.0898,-3.0898,-3.0898,-3.0898,-3.0898,-3.0898,-3.0898,-3.0879,-3.0859,-3.0859,-3.0859,-3.0859,-3.082,-3.0859,-3.0898,-3.0898,-3.0898,-3.0898,-3.0898,-3.0898,-3.0898,-3.0898,-3.0898,-3.0898,-3.0898,-3.0898,-3.0898,-3.0898,-3.0898,-4.7309,-4.7309,-4.7309,-4.7309,-4.7309,-4.7309,-4.7309,-4.7309,-4.7309,-4.7309,-4.7309,-4.7309,-4.7309,-4.7309,-4.7309,-4.7309,-4.7309,-4.7309,-4.7309,-4.7309,-4.7309,-4.7309,-4.7309,-4.7309,-4.7309,-4.7309,-4.7309,-4.7309,-4.7309,-4.7309,-4.7309,-4.7309,-4.7309,-4.7062,-4.6638,-4.507,-4.3266,-4.2301,-4.0945,-3.9697,-3.9697,-3.9697,-3.9697,-3.9697,-3.9697,-3.9697,-3.9697,-3.9697,-3.9697,-3.9697,-3.9697,-3.9697,-3.9697,-3.9697,-3.9697,-3.9697,-3.9697,-3.9697,-3.9697,-3.9697,-3.9697,-3.9697,-3.9517,-3.8921,-3.7477,-3.6054,-3.457,-3.2964,-3.1767,-3.1054,-3.0898,-3.0898,-3.0898,-3.0898,-3.0898,-3.0898,-3.0898,-3.0898,-3.0898,-3.0898,-3.0898,-3.0898,-3.0898,-3.0898,-3.0898,-3.0898,-3.0898,-3.0898,-3.0898,-3.0898,-3.0898,-3.0898,-3.0898,-3.0898,-3.0879,-3.0879,-3.0879,-3.0898,-3.0898,-3.0898,-3.0898,-3.0898,-3.0898,-3.0898,-3.0898,-3.0898,-3.0898,-3.0898,-3.0898,-3.0898,-3.0898,-3.0898,-3.0898,-3.0898,-3.0898]},{"header":{"parameterUnit":"m.s-1","parameterCategory":1,"la1":31.0,"la2":29.5877,"lo1":-88.7671,"lo2":-86.6584,"dy":0.0162,"dx":0.0185,"nx":115,"ny":88,"refTime":"2024-04-15T06:00:00:Z","depth":0,"parameterNumber":3,"parameterNumberName":"V-component_of_WINDS"},"data":[0.0,0.0,0.0,0.0,0.0,0.0,0.0,0.0,0.0,0.0,0.0,0.0,0.0,0.0,0.0,0.0,0.0,0.0,0.0,0.0,0.0,0.0,0.0,0.0,0.0,0.0,0.0,0.0,0.0,0.0,0.0,0.0,0.0,0.0,0.0,0.0,0.0,0.0,0.0,0.0,0.0,0.0,0.0,0.0,0.0,0.0,0.0,0.0,0.0,0.0,0.0,0.0,0.0,0.0,0.0,0.0,0.0,0.0,0.0,0.0,0.0,0.0,0.0,0.0,0.0,0.0,0.0,0.0,0.0,0.0,0.0,0.0,0.0,0.0,0.0,0.0,0.0,0.0,0.0,0.0,0.0,0.0,0.0,0.0,0.0,0.0,0.0,0.0,0.0,0.0,0.0,0.0,0.0,0.0,0.0,0.0,0.0,0.0,0.0,0.0,0.0,0.0,0.0,0.0,0.0,0.0,0.0,0.0,0.0,0.0,0.0,0.0,0.0,0.0,0.0,0.0,0.0,0.0,0.0,0.0,0.0,0.0,0.0,0.0,0.0,0.0,0.0,0.0,0.0,0.0,0.0,0.0,0.0,0.0,0.0,0.0,0.0,0.0,0.0,0.0,0.0,0.0,0.0,0.0,0.0,0.0,0.0,0.0,0.0,0.0,0.0,0.0,0.0,0.0,0.0,0.0,0.0,0.0,0.0,0.0,0.0,0.0,0.0,0.0,0.0,0.0,0.0,0.0,0.0,0.0,0.0,0.0,0.0,0.0,0.0,0.0,0.0,0.0,0.0,0.0,0.0,0.0,0.0,0.0,0.0,0.0,0.0,0.0,0.0,0.0,0.0,0.0,0.0,0.0,0.0,0.0,0.0,0.0,0.0,0.0,0.0,0.0,0.0,0.0,0.0,0.0,0.0,0.0,0.0,0.0,0.0,0.0,0.0,0.0,0.0,0.0,0.0,0.0,0.0,0.0,0.0,0.0,0.0,0.0,0.0,0.0,0.0,0.0,0.0,0.0,0.0,0.0,0.0,0.0,0.0,0.0,0.0,0.0,0.0,0.0,0.0,0.0,0.0,0.0,0.0,0.0,0.0,0.0,0.0,0.0,0.0,0.0,0.0,0.0,0.0,0.0,0.0,0.0,0.0,0.0,0.0,0.0,0.0,0.0,0.0,0.0,0.0,0.0,0.0,0.0,0.0,0.0,0.0,0.0,0.0,0.0,0.0,0.0,0.0,0.0,0.0,0.0,0.0,0.0,0.0,0.0,0.0,0.0,0.0,0.0,0.0,0.0,0.0,0.0,0.0,0.0,0.0,0.0,0.0,0.0,0.0,0.0,0.0,0.0,0.0,0.0,0.0,0.0,0.0,0.0,0.0,0.0,0.0,0.0,0.0,0.0,0.0,0.0,0.0,0.0,0.0,0.0,0.0,0.0,0.0,0.0,0.0,0.0,0.0,0.0,0.0,0.0,0.0,0.0,0.0,0.0,0.0,0.0,0.0,0.0,0.0,0.0,0.0,0.0,0.0,0.0,0.0,0.0,0.0,0.0,0.0,0.0,0.0,0.0,0.0,0.0,0.0,0.0,0.0,0.0,0.0,0.0,0.0,0.0,0.0,0.0,0.0,0.0,0.0,0.0,0.0,0.0,0.0,0.0,0.0,0.0,0.0,0.0,0.0,0.0,0.0,0.0,0.0,0.0,0.0,0.0,0.0,0.0,0.0,0.0,0.0,0.0,0.0,0.0,0.0,0.0,0.0,0.0,0.0,0.0,0.0,0.0,0.0,0.0,0.0,0.0,0.0,0.0,0.0,0.0,0.0,0.0,0.0,0.0,0.0,0.0,0.0,0.0,0.0,0.0,0.0,0.0,0.0,0.0,0.0,0.0,0.0,0.0,0.0,0.0,0.0,0.0,0.0,0.0,0.0,0.0,0.0,0.0,0.0,0.0,0.0,0.0,0.0,0.0,0.0,0.0,0.0,0.0,0.0,0.0,0.0,0.0,0.0,0.0,0.0,0.0,0.0,0.0,0.0,0.0,0.0,0.0,0.0,0.0,0.0,0.0,0.0,0.0,0.0,0.0,0.0,0.0,0.0,0.0,0.0,0.0,0.0,0.0,0.0,0.0,0.0,0.0,0.0,0.0,0.0,0.0,0.0,0.0,0.0,0.0,0.0,0.0,0.0,0.0,0.0,0.0,0.0,0.0,0.0,0.0,0.0,0.0,0.0,0.0,0.0,0.0,0.0,0.0,0.0,0.0,0.0,0.0,0.0,0.0,0.0,0.0,0.0,0.0,0.0,0.0,0.0,0.0,0.0,0.0,0.0,0.0,0.0,0.0,0.0,0.0,0.0,0.0,0.0,0.0,0.0,0.0,0.0,0.0,0.0,0.0,0.0,0.0,0.0,0.0,0.0,0.0,0.0,0.0,0.0,0.0,0.0,0.0,0.0,0.0,0.0,0.0,0.0,0.0,0.0,0.0,0.0,0.0,0.0,0.0,0.0,0.0,0.0,0.0,0.0,0.0,0.0,0.0,0.0,0.0,0.0,0.0,0.0,0.0,0.0,0.0,0.0,0.0,0.0,0.0,0.0,0.0,0.0,0.0,0.0,0.0,0.0,0.0,0.0,0.0,0.0,0.0,0.0,0.0,0.0,0.0,0.0,0.0,0.0,0.0,0.0,0.0,0.0,0.0,0.0,0.0,0.0,0.0,0.0,0.0,0.0,0.0,0.0,0.0,0.0,0.0,0.0,0.0,0.0,0.0,0.0,0.0,0.0,0.0,0.0,0.0,0.0,0.0,0.0,0.0,0.0,0.0,0.0,0.0,0.0,0.0,0.0,0.0,0.0,0.0,0.0,0.0,0.0,0.0,0.0,0.0,0.0,0.0,0.0,0.0,0.0,0.0,0.0,0.0,0.0,0.0,0.0,0.0,0.0,0.0,0.0,0.0,0.0,0.0,0.0,0.0,0.0,0.0,0.0,0.0,0.0,0.0,0.0,0.0,0.0,0.0,0.0,0.0,0.0,0.0,0.0,0.0,0.0,0.0,0.0,0.0,0.0,0.0,0.0,0.0,0.0,0.0,0.0,0.0,0.0,0.0,0.0,0.0,0.0,0.0,0.0,0.0,0.0,0.0,0.0,0.0,0.0,0.0,0.0,0.0,0.0,0.0,0.0,0.0,0.0,0.0,0.0,0.0,0.0,0.0,0.0,0.0,0.0,0.0,0.0,0.0,0.0,0.0,0.0,0.0,0.0,0.0,0.0,0.0,0.0,0.0,0.0,0.0,0.0,0.0,0.0,0.0,0.0,0.0,0.0,0.0,0.0,0.0,0.0,0.0,0.0,0.0,0.0,0.0,0.0,0.0,0.0,0.0,0.0,0.0,0.0,0.0,0.0,0.0,0.0,0.0,0.0,0.0,0.0,0.0,0.0,0.0,0.0,0.0,0.0,0.0,0.0,0.0,0.0,0.0,0.0,0.0,0.0,0.0,0.0,0.0,0.0,0.0,0.0,0.0,0.0,0.0,0.0,0.0,0.0,0.0,0.0,0.0,0.0,0.0,0.0,0.0,0.0,0.0,0.0,0.0,0.0,0.0,0.0,0.0,0.0,0.0,0.0,0.0,0.0,0.0,0.0,0.0,0.0,0.0,0.0,0.0,0.0,0.0,0.0,0.0,0.0,0.0,0.0,0.0,0.0,0.0,0.0,0.0,0.0,0.0,0.0,0.0,0.0,0.0,0.0,0.0,0.0,0.0,0.0,0.0,0.0,0.0,0.0,0.0,0.0,0.0,0.0,0.0,0.0,0.0,0.0,0.0,0.0,0.0,0.0,0.0,0.0,0.0,0.0,0.0,0.0,0.0,0.0,0.0,0.0,0.0,0.0,0.0,0.0,0.0,0.0,0.0,0.0,0.0,0.0,0.0,0.0,0.0,0.0,0.0,0.0,0.0,0.0,0.0,0.0,0.0,0.0,0.0,0.0,0.0,0.0,0.0,0.0,0.0,0.0,0.0,0.0,0.0,0.0,0.0,0.0,0.0,0.0,0.0,0.0,0.0,0.0,0.0,0.0,0.0,0.0,0.0,0.0,0.0,0.0,0.0,0.0,0.0,0.0,0.0,0.0,0.0,0.0,0.0,0.0,0.0,0.0,0.0,0.0,0.0,0.0,0.0,0.0,0.0,0.0,0.0,0.0,0.0,0.0,0.0,0.0,0.0,0.0,0.0,0.0,0.0,0.0,0.0,0.0,0.0,0.0,0.0,0.0,0.0,0.0,0.0,1.8814,0.0,0.0,0.0,0.0,0.0,0.0,0.0,0.0,0.0,0.0,0.0,0.0,0.0,0.0,0.0,0.0,0.0,0.0,0.0,0.0,0.0,0.0,0.0,0.0,0.0,0.0,0.0,0.0,0.0,0.0,0.0,0.0,0.0,0.0,0.0,0.0,0.0,0.0,0.0,0.0,0.0,0.0,0.0,0.0,0.0,0.0,0.0,0.0,0.0,0.0,0.0,0.0,0.0,0.0,0.0,0.0,0.0,0.0,0.0,0.0,0.0,0.0,0.0,0.0,0.0,0.0,0.0,0.0,0.0,0.0,0.0,0.0,0.0,0.0,0.0,0.0,0.0,0.0,0.0,0.0,0.0,0.0,0.0,0.0,0.0,0.0,0.0,0.0,0.0,0.0,0.0,0.0,0.0,0.0,0.0,0.0,0.0,0.0,0.0,0.0,0.0,0.0,0.0,0.0,0.0,0.0,0.0,0.0,0.0,0.0,1.6259,1.5845,1.844,1.9556,1.8879,0.0,0.0,0.0,0.0,0.0,0.0,0.0,0.0,0.0,0.0,0.0,0.0,0.0,0.0,0.0,0.0,0.0,0.0,0.0,0.0,0.0,0.0,0.0,0.0,0.0,0.0,0.0,0.0,0.0,0.0,0.0,0.0,0.0,0.0,0.0,0.0,0.0,0.0,0.0,0.0,0.0,0.0,0.0,0.0,0.0,0.0,0.0,0.0,0.0,0.0,0.0,0.0,0.0,0.0,0.0,0.0,0.0,0.0,0.0,0.0,0.0,0.0,0.0,0.0,0.0,0.0,0.0,0.0,0.0,0.0,0.0,0.0,0.0,0.0,0.0,0.0,0.0,0.0,0.0,0.0,0.0,0.0,0.0,0.0,0.0,0.0,0.0,0.0,0.0,0.0,0.0,0.0,0.0,0.0,0.0,0.0,0.0,0.0,0.0,0.0,0.0,0.0,0.0,0.0,0.0,0.0,0.0,0.0,0.0,0.0,0.0,0.0,1.894,2.0159,1.9977,0.0,0.0,0.0,0.0,0.0,0.0,0.0,0.0,0.0,0.0,0.0,0.0,0.0,0.0,0.0,0.0,0.0,0.0,0.0,0.0,0.0,0.0,0.0,0.0,0.0,0.0,0.0,0.0,0.0,0.0,0.0,0.0,0.0,0.0,0.0,0.0,0.0,0.0,0.0,0.0,0.0,0.0,0.0,0.0,0.0,0.0,0.0,0.0,0.0,0.0,0.0,0.0,0.0,0.0,0.0,0.0,0.0,0.0,0.0,0.0,0.0,0.0,0.0,0.0,0.0,0.0,0.0,0.0,0.0,0.0,0.0,0.0,0.0,0.0,0.0,0.0,0.0,0.0,0.0,0.0,0.0,0.0,0.0,0.0,0.0,0.0,0.0,0.0,0.0,0.0,0.0,0.0,0.0,0.0,0.0,0.0,0.0,0.0,0.0,0.0,0.0,0.0,0.0,0.0,0.0,0.0,0.0,0.0,0.0,0.0,1.6767,1.8684,2.0342,0.0,2.3159,0.0,0.0,0.0,0.0,0.0,0.0,0.0,0.0,0.0,0.0,0.0,0.0,0.0,0.0,0.0,0.0,0.0,0.0,0.0,0.0,0.0,0.0,0.0,0.0,0.0,0.0,0.0,0.0,0.0,0.0,0.0,0.0,0.0,0.0,0.0,0.0,0.0,0.0,0.0,0.0,0.0,0.0,0.0,0.0,0.0,0.0,0.0,0.0,0.0,0.0,0.0,0.0,0.0,0.0,0.0,0.0,0.0,0.0,0.0,0.0,0.0,0.0,0.0,0.0,0.0,0.0,0.0,0.0,0.0,0.0,0.0,0.0,0.0,0.0,0.0,0.0,0.0,0.0,0.0,0.0,0.0,0.0,0.0,0.0,0.0,0.0,0.0,0.0,0.0,0.0,0.0,0.0,0.0,0.0,0.0,0.0,0.0,0.0,0.0,0.0,0.0,0.0,0.0,0.0,0.0,0.0,0.0,0.0,0.0,0.0,1.7009,1.8949,2.0779,2.2053,0.0,0.0,0.0,0.0,0.0,0.0,0.0,0.0,0.0,0.0,0.0,0.0,0.0,0.0,0.0,0.0,0.0,0.0,0.0,0.0,0.0,0.0,0.0,0.0,0.0,0.0,0.0,0.0,0.0,0.0,0.0,0.0,0.0,0.0,0.0,0.0,0.0,0.0,0.0,0.0,0.0,0.0,0.0,0.0,0.0,0.0,0.0,0.0,0.0,0.0,0.0,0.0,0.0,0.0,0.0,0.0,0.0,0.0,0.0,0.0,0.0,0.0,0.0,0.0,0.0,0.0,0.0,0.0,0.0,0.0,0.0,0.0,0.0,0.0,0.0,0.0,0.0,0.0,0.0,0.0,0.0,0.0,0.0,0.0,0.0,0.0,0.0,0.0,0.0,0.0,0.0,0.0,0.0,0.0,0.0,0.0,0.0,0.0,0.0,0.0,0.0,0.0,0.0,0.0,0.0,0.0,0.0,0.0,0.0,0.0,1.8037,1.8487,2.0425,2.1673,2.2365,2.2441,0.0,0.0,0.0,0.0,0.0,0.0,0.0,0.0,0.0,0.0,0.0,0.0,0.0,0.0,0.0,0.0,0.0,0.0,0.0,0.0,0.0,0.0,0.0,0.0,0.0,0.0,0.0,0.0,0.0,0.0,0.0,0.0,0.0,0.0,0.0,0.0,0.0,0.0,0.0,0.0,0.0,0.0,0.0,0.0,0.0,0.0,0.0,0.0,0.0,0.0,0.0,0.0,0.0,0.0,0.0,0.0,0.0,0.0,0.0,0.0,0.0,0.0,0.0,0.0,0.0,0.0,0.0,0.0,0.0,0.0,0.0,0.0,0.0,0.0,0.0,0.0,0.0,0.0,0.0,0.0,0.0,0.0,0.0,0.0,0.0,0.0,0.0,0.0,0.0,0.0,0.0,0.0,0.0,0.0,0.0,0.0,0.0,0.0,0.0,0.0,0.0,0.0,0.0,0.0,0.0,0.0,0.0,0.0,2.1802,2.0999,2.1784,2.3993,2.3483,2.3232,0.0,0.0,0.0,0.0,0.0,0.0,0.0,0.0,0.0,0.0,0.0,0.0,0.0,0.0,0.0,0.0,0.0,0.0,0.0,0.0,0.0,0.0,0.0,0.0,0.0,0.0,0.0,0.0,0.0,0.0,0.0,0.0,0.0,0.0,0.0,0.0,0.0,0.0,0.0,0.0,0.0,0.0,0.0,0.0,0.0,0.0,0.0,0.0,0.0,0.0,0.0,0.0,0.0,0.0,0.0,0.0,0.0,0.0,0.0,0.0,0.0,0.0,0.0,0.0,0.0,0.0,0.0,0.0,0.0,0.0,0.0,0.0,0.0,0.0,0.0,0.0,0.0,0.0,0.0,0.0,0.0,0.0,0.0,0.0,0.0,0.0,0.0,0.0,0.0,0.0,0.0,0.0,0.0,0.0,0.0,0.0,0.0,0.0,0.0,0.0,0.0,0.0,0.0,0.0,0.0,0.0,0.0,0.0,0.0,2.1531,2.1825,2.2309,2.3136,2.3176,2.3086,0.0,0.0,0.0,0.0,0.0,0.0,0.0,0.0,0.0,0.0,0.0,0.0,0.0,0.0,0.0,0.0,0.0,0.0,0.0,0.0,0.0,0.0,0.0,0.0,0.0,0.0,0.0,0.0,0.0,0.0,0.0,0.0,0.0,0.0,0.0,0.0,0.0,0.0,0.0,0.0,0.0,0.0,0.0,0.0,0.0,0.0,0.0,0.0,0.0,0.0,0.0,0.0,0.0,0.0,0.0,0.0,0.0,0.0,0.0,0.0,0.0,0.0,0.0,0.0,0.0,0.0,0.0,0.0,0.0,0.0,0.0,0.0,0.0,0.0,0.0,0.0,0.0,0.0,0.0,0.0,0.0,0.0,0.0,0.0,0.0,0.0,0.0,0.0,0.0,0.0,0.0,0.0,0.0,0.0,0.0,0.0,0.0,0.0,0.0,0.0,0.0,0.0,0.0,0.0,0.0,0.0,0.0,0.0,0.0,2.2491,0.0,2.3418,2.3074,2.3147,2.2832,0.0,0.0,0.0,0.0,0.0,0.0,0.0,0.0,0.0,0.0,0.0,0.0,0.0,0.0,0.0,0.0,0.0,0.0,0.0,0.0,0.0,0.0,0.0,0.0,0.0,0.0,0.0,0.0,0.0,0.0,0.0,0.0,0.0,0.0,0.0,0.0,0.0,0.0,0.0,0.0,0.0,0.0,0.0,0.0,0.0,0.0,0.0,0.0,0.0,0.0,0.0,0.0,0.0,0.0,0.0,0.0,0.0,0.0,0.0,0.0,0.0,0.0,0.0,0.0,0.0,0.0,0.0,0.0,0.0,0.0,0.0,0.0,0.0,0.0,0.0,0.0,0.0,0.0,0.0,0.0,0.0,0.0,0.0,0.0,0.0,0.0,0.0,0.0,0.0,0.0,0.0,0.0,0.0,0.0,0.0,0.0,0.0,0.0,0.0,0.0,0.0,0.0,0.0,0.0,0.0,0.0,0.0,0.0,2.3705,2.4941,2.5362,2.5119,2.4387,2.3574,2.2601,0.0,0.0,0.0,0.0,0.0,0.0,0.0,0.0,0.0,0.0,0.0,0.0,0.0,0.0,0.0,0.0,0.0,0.0,0.0,0.0,0.0,0.0,0.0,0.0,0.0,0.0,0.0,0.0,0.0,0.0,0.0,0.0,0.0,0.0,0.0,0.0,0.0,0.0,0.0,0.0,0.0,0.0,0.0,0.0,0.0,0.0,0.0,0.0,0.0,0.0,0.0,0.0,0.0,0.0,0.0,0.0,0.0,0.0,0.0,0.0,0.0,0.0,0.0,0.0,0.0,0.0,0.0,0.0,0.0,0.0,0.0,0.0,0.0,0.0,0.0,0.0,0.0,0.0,0.0,0.0,0.0,0.0,0.0,0.0,0.0,0.0,0.0,0.0,0.0,0.0,0.0,0.0,0.0,0.0,0.0,0.0,0.0,0.0,0.0,0.0,0.0,0.0,0.0,0.0,0.0,0.0,0.0,0.0,0.0,2.332,2.4023,2.4551,2.4785,2.3184,2.2839,0.0,0.0,0.0,0.0,0.0,0.0,0.0,0.0,0.0,0.0,0.0,0.0,0.0,0.0,0.0,0.0,0.0,0.0,0.0,0.0,0.0,0.0,0.0,0.0,0.0,0.0,0.0,0.0,0.0,0.0,0.0,0.0,0.0,0.0,0.0,0.0,0.0,0.0,0.0,0.0,0.0,0.0,0.0,0.0,0.0,0.0,0.0,0.0,0.0,0.0,0.0,0.0,0.0,0.0,0.0,0.0,0.0,0.0,0.0,0.0,0.0,0.0,0.0,0.0,0.0,0.0,0.0,0.0,0.0,0.0,0.0,0.0,0.0,0.0,0.0,0.0,0.0,0.0,0.0,0.0,0.0,0.0,0.0,0.0,0.0,0.0,0.0,0.0,0.0,0.0,0.0,0.0,0.0,0.0,0.0,0.0,0.0,0.0,0.0,0.0,0.0,0.0,0.0,0.0,0.0,0.0,0.0,0.0,0.0,2.3047,2.3828,2.4375,2.459,2.3144,2.2988,2.4221,0.0,0.0,0.0,0.0,0.0,0.0,0.0,0.0,0.0,0.0,0.0,0.0,0.0,0.0,0.0,0.0,0.0,0.0,0.0,0.0,0.0,0.0,0.0,0.0,0.0,0.0,0.0,0.0,0.0,0.0,0.0,0.0,0.0,0.0,0.0,0.0,0.0,0.0,0.0,0.0,0.0,0.0,0.0,0.0,0.0,0.0,0.0,0.0,0.0,0.0,0.0,0.0,0.0,0.0,0.0,0.0,0.0,0.0,0.0,0.0,0.0,0.0,0.0,0.0,0.0,0.0,0.0,0.0,0.0,0.0,0.0,0.0,0.0,0.0,0.0,0.0,0.0,0.0,0.0,0.0,0.0,0.0,0.0,0.0,0.0,0.0,0.0,0.0,0.0,0.0,0.0,0.0,0.0,0.0,0.0,0.0,0.0,0.0,0.0,0.0,0.0,0.0,0.0,0.0,0.0,0.0,0.0,0.0,2.3867,2.4707,2.4766,2.3965,2.3482,2.313,0.0,0.0,0.0,0.0,0.0,0.0,0.0,0.0,0.0,0.0,0.0,0.0,0.0,0.0,0.0,0.0,0.0,0.0,0.0,0.0,0.0,0.0,0.0,0.0,0.0,0.0,0.0,0.0,0.0,0.0,0.0,0.0,0.0,0.0,0.0,0.0,0.0,0.0,0.0,0.0,0.0,0.0,0.0,0.0,0.0,0.0,0.0,0.0,0.0,0.0,0.0,0.0,0.0,0.0,0.0,0.0,0.0,0.0,0.0,0.0,0.0,0.0,0.0,0.0,0.0,0.0,0.0,0.0,0.0,0.0,0.0,0.0,0.0,0.0,0.0,0.0,0.0,0.0,0.0,0.0,0.0,0.0,0.0,0.0,0.0,0.0,0.0,0.0,0.0,0.0,0.0,0.0,0.0,0.0,0.0,0.0,0.0,0.0,0.0,0.0,0.0,0.0,0.0,0.0,0.0,0.0,0.0,0.0,0.0,2.4766,2.5586,2.5781,2.5234,2.4932,2.5101,0.0,0.0,0.0,0.0,0.0,0.0,0.0,0.0,0.0,0.0,0.0,0.0,0.0,0.0,0.0,0.0,0.0,0.0,0.0,0.0,0.0,0.0,0.0,0.0,0.0,0.0,0.0,0.0,0.0,0.0,0.0,0.0,0.0,0.0,0.0,0.0,0.0,0.0,0.0,0.0,0.0,0.0,0.0,0.0,0.0,0.0,0.0,0.0,0.0,0.0,0.0,0.0,0.0,0.0,0.0,0.0,0.0,0.0,0.0,0.0,0.0,0.0,0.0,0.0,0.0,0.0,0.0,0.0,0.0,0.0,0.0,0.0,0.0,0.0,0.0,0.0,0.0,0.0,0.0,0.0,0.0,0.0,0.0,0.0,0.0,0.0,0.0,0.0,0.0,0.0,0.0,0.0,0.0,0.0,0.0,0.0,0.0,0.0,0.0,0.0,0.0,0.0,0.0,0.0,0.0,0.0,0.0,0.0,2.5273,2.5879,2.6738,2.6992,2.6562,2.6072,2.6059,0.0,0.0,0.0,0.0,0.0,0.0,0.0,0.0,0.0,0.0,0.0,0.0,0.0,0.0,0.0,0.0,0.0,0.0,0.0,0.0,0.0,0.0,0.0,0.0,0.0,0.0,0.0,0.0,0.0,0.0,0.0,0.0,0.0,0.0,0.0,0.0,0.0,0.0,0.0,0.0,0.0,0.0,0.0,0.0,0.0,0.0,0.0,0.0,0.0,0.0,0.0,0.0,0.0,0.0,0.0,0.0,0.0,0.0,0.0,0.0,0.0,0.0,0.0,0.0,0.0,0.0,0.0,0.0,0.0,0.0,0.0,0.0,0.0,0.0,0.0,0.0,0.0,0.0,0.0,0.0,0.0,0.0,0.0,0.0,0.0,0.0,0.0,0.0,0.0,0.0,0.0,0.0,0.0,0.0,0.0,0.0,0.0,0.0,0.0,0.0,0.0,0.0,0.0,0.0,0.0,0.0,0.0,0.0,2.6181,2.707,2.791,2.8164,2.7767,2.6968,2.6498,0.0,0.0,0.0,0.0,0.0,0.0,0.0,0.0,0.0,0.0,0.0,0.0,0.0,0.0,0.0,0.0,0.0,0.0,0.0,0.0,0.0,0.0,0.0,0.0,0.0,0.0,0.0,0.0,0.0,0.0,0.0,0.0,0.0,0.0,0.0,0.0,0.0,0.0,0.0,0.0,0.0,0.0,0.0,0.0,0.0,0.0,0.0,0.0,0.0,0.0,0.0,0.0,0.0,0.0,0.0,0.0,0.0,0.0,0.0,0.0,0.0,0.0,0.0,0.0,0.0,0.0,0.0,0.0,0.0,0.0,0.0,0.0,0.0,0.0,0.0,0.0,0.0,0.0,0.0,0.0,0.0,0.0,0.0,0.0,0.0,0.0,0.0,0.0,0.0,0.0,0.0,0.0,0.0,0.0,0.0,0.0,0.0,0.0,0.0,0.0,0.0,0.0,0.0,0.0,0.0,0.0,0.0,0.0,2.666,2.7519,2.834,2.8594,2.8164,2.7541,2.7231,0.0,0.0,0.0,0.0,0.0,0.0,0.0,0.0,0.0,0.0,0.0,0.0,0.0,0.0,0.0,0.0,0.0,0.0,0.0,0.0,0.0,0.0,0.0,0.0,0.0,0.0,0.0,0.0,0.0,0.0,0.0,0.0,0.0,0.0,0.0,0.0,0.0,0.0,0.0,0.0,0.0,0.0,0.0,0.0,0.0,0.0,0.0,0.0,2.9779,0.0,0.0,0.0,0.0,0.0,0.0,0.0,0.0,0.0,0.0,0.0,0.0,0.0,0.0,0.0,0.0,0.0,0.0,0.0,0.0,0.0,0.0,0.0,0.0,0.0,0.0,0.0,0.0,0.0,0.0,0.0,0.0,0.0,0.0,0.0,0.0,0.0,0.0,0.0,0.0,0.0,0.0,0.0,0.0,0.0,0.0,0.0,0.0,0.0,0.0,0.0,0.0,0.0,0.0,0.0,0.0,0.0,0.0,0.0,2.7305,2.8569,2.8789,2.8906,2.8883,2.7953,2.7594,0.0,0.0,0.0,0.0,0.0,0.0,0.0,0.0,0.0,0.0,0.0,0.0,0.0,0.0,0.0,0.0,0.0,0.0,0.0,0.0,0.0,0.0,0.0,0.0,0.0,0.0,0.0,0.0,0.0,0.0,0.0,0.0,0.0,0.0,0.0,0.0,0.0,0.0,0.0,0.0,0.0,0.0,0.0,0.0,0.0,0.0,0.0,0.0,0.0,0.0,0.0,0.0,0.0,0.0,0.0,0.0,0.0,0.0,0.0,0.0,0.0,0.0,0.0,0.0,0.0,0.0,0.0,0.0,0.0,0.0,0.0,0.0,0.0,0.0,0.0,0.0,0.0,0.0,0.0,0.0,0.0,0.0,0.0,0.0,0.0,0.0,0.0,0.0,0.0,0.0,0.0,0.0,0.0,0.0,0.0,0.0,0.0,0.0,0.0,0.0,0.0,0.0,0.0,0.0,0.0,0.0,0.0,2.6328,2.7851,2.9473,2.9219,2.9141,2.9391,2.8328,2.7971,2.841,0.0,0.0,0.0,0.0,0.0,0.0,0.0,0.0,0.0,0.0,0.0,0.0,0.0,0.0,0.0,0.0,0.0,0.0,0.0,0.0,0.0,0.0,0.0,0.0,0.0,0.0,0.0,0.0,0.0,0.0,0.0,0.0,0.0,0.0,0.0,0.0,0.0,0.0,3.0005,3.0256,0.0,0.0,0.0,0.0,0.0,0.0,0.0,0.0,3.0231,0.0,0.0,0.0,0.0,0.0,0.0,0.0,0.0,0.0,0.0,0.0,0.0,0.0,0.0,0.0,0.0,0.0,0.0,0.0,0.0,0.0,0.0,0.0,0.0,0.0,0.0,0.0,0.0,0.0,0.0,0.0,0.0,0.0,0.0,0.0,0.0,0.0,0.0,0.0,0.0,0.0,0.0,0.0,0.0,0.0,0.0,0.0,0.0,0.0,0.0,0.0,0.0,0.0,0.0,0.0,0.0,2.7598,2.7226,2.7851,2.9567,2.9492,2.916,2.855,2.9133,2.9135,2.8433,0.0,0.0,0.0,0.0,0.0,0.0,0.0,0.0,0.0,0.0,0.0,0.0,0.0,0.0,0.0,0.0,0.0,0.0,0.0,0.0,0.0,0.0,0.0,0.0,0.0,0.0,0.0,0.0,0.0,0.0,0.0,0.0,0.0,0.0,0.0,0.0,0.0,0.0,0.0,3.234,3.2767,0.0,0.0,0.0,0.0,0.0,0.0,0.0,0.0,3.0055,0.0,0.0,0.0,0.0,0.0,0.0,0.0,0.0,0.0,0.0,0.0,0.0,0.0,0.0,0.0,0.0,0.0,0.0,0.0,0.0,0.0,0.0,0.0,0.0,0.0,0.0,0.0,0.0,0.0,0.0,0.0,0.0,0.0,0.0,0.0,0.0,0.0,0.0,0.0,0.0,0.0,0.0,0.0,0.0,0.0,0.0,0.0,0.0,0.0,0.0,0.0,0.0,0.0,0.0,0.0,2.8026,2.843,2.9053,2.988,2.9687,2.916,2.8335,2.8486,2.8541,0.0,0.0,0.0,0.0,0.0,0.0,0.0,0.0,0.0,0.0,0.0,0.0,0.0,0.0,0.0,0.0,0.0,0.0,0.0,0.0,0.0,0.0,0.0,0.0,0.0,0.0,0.0,0.0,0.0,0.0,0.0,0.0,0.0,0.0,0.0,0.0,0.0,0.0,0.0,0.0,3.4403,3.4709,3.4444,0.0,0.0,0.0,0.0,0.0,0.0,3.0206,3.0206,0.0,0.0,0.0,0.0,0.0,0.0,0.0,0.0,0.0,0.0,0.0,0.0,0.0,0.0,0.0,0.0,0.0,0.0,0.0,0.0,0.0,0.0,0.0,0.0,0.0,0.0,0.0,0.0,0.0,0.0,0.0,0.0,0.0,0.0,0.0,0.0,0.0,0.0,0.0,0.0,0.0,0.0,0.0,0.0,0.0,0.0,0.0,0.0,0.0,0.0,0.0,0.0,0.0,0.0,0.0,2.8597,2.9606,3.0306,3.0608,2.9954,2.9121,2.8217,2.7862,2.7877,0.0,0.0,0.0,0.0,0.0,0.0,0.0,0.0,0.0,0.0,0.0,0.0,0.0,0.0,0.0,0.0,0.0,0.0,0.0,0.0,0.0,0.0,0.0,0.0,0.0,0.0,0.0,0.0,0.0,0.0,0.0,0.0,0.0,0.0,0.0,0.0,0.0,0.0,0.0,0.0,0.0,3.673,3.6942,3.6508,0.0,0.0,0.0,0.0,3.1126,3.1743,0.0,0.0,0.0,0.0,0.0,0.0,0.0,0.0,0.0,0.0,0.0,0.0,0.0,0.0,0.0,0.0,0.0,0.0,0.0,0.0,0.0,0.0,0.0,0.0,0.0,0.0,0.0,0.0,0.0,0.0,0.0,0.0,0.0,0.0,0.0,0.0,0.0,0.0,0.0,0.0,0.0,0.0,0.0,0.0,0.0,0.0,0.0,0.0,0.0,0.0,0.0,0.0,0.0,0.0,0.0,0.0,3.0478,3.0384,3.0872,3.2003,3.0474,2.9039,2.7826,2.8428,2.852,0.0,0.0,0.0,0.0,0.0,0.0,0.0,0.0,0.0,0.0,0.0,0.0,0.0,0.0,0.0,0.0,0.0,0.0,0.0,0.0,0.0,0.0,0.0,0.0,0.0,0.0,0.0,0.0,0.0,0.0,0.0,0.0,0.0,0.0,0.0,0.0,0.0,0.0,0.0,0.0,0.0,3.9195,3.6681,3.7204,3.7244,0.0,0.0,3.5753,3.4904,3.6862,0.0,0.0,0.0,0.0,0.0,0.0,0.0,0.0,0.0,0.0,0.0,0.0,0.0,0.0,0.0,0.0,0.0,0.0,0.0,0.0,0.0,0.0,0.0,0.0,0.0,0.0,0.0,0.0,0.0,0.0,0.0,0.0,0.0,0.0,0.0,0.0,0.0,0.0,0.0,0.0,0.0,0.0,0.0,0.0,0.0,0.0,0.0,0.0,0.0,0.0,0.0,0.0,0.0,0.0,0.0,3.0561,3.139,3.2419,3.2893,3.2746,3.1508,3.0405,2.9529,2.856,2.8321,0.0,0.0,0.0,0.0,0.0,0.0,0.0,0.0,0.0,0.0,0.0,0.0,0.0,0.0,0.0,0.0,0.0,0.0,0.0,0.0,0.0,0.0,0.0,0.0,0.0,0.0,0.0,0.0,0.0,0.0,0.0,0.0,0.0,0.0,0.0,0.0,0.0,0.0,0.0,0.0,0.0,0.0,3.9818,4.0554,0.0,0.0,0.0,3.8099,3.729,0.0,0.0,0.0,0.0,0.0,0.0,0.0,0.0,0.0,0.0,0.0,0.0,0.0,0.0,0.0,0.0,0.0,0.0,0.0,0.0,0.0,0.0,0.0,0.0,0.0,0.0,0.0,0.0,0.0,0.0,0.0,0.0,0.0,0.0,0.0,0.0,0.0,0.0,0.0,0.0,0.0,0.0,0.0,0.0,0.0,0.0,0.0,0.0,0.0,0.0,0.0,0.0,0.0,0.0,0.0,0.0,0.0,3.2304,3.3934,3.445,3.3685,3.2678,3.1772,3.105,2.9261,0.0,0.0,0.0,0.0,0.0,0.0,0.0,0.0,0.0,0.0,0.0,0.0,0.0,0.0,0.0,0.0,0.0,0.0,0.0,0.0,0.0,0.0,0.0,0.0,0.0,0.0,0.0,2.6448,0.0,0.0,0.0,0.0,0.0,0.0,0.0,0.0,0.0,0.0,0.0,0.0,0.0,0.0,4.2021,4.2351,4.3399,4.3388,0.0,0.0,4.0775,3.9641,3.9422,3.853,0.0,0.0,0.0,0.0,0.0,0.0,0.0,0.0,0.0,0.0,0.0,0.0,0.0,0.0,0.0,0.0,0.0,0.0,0.0,0.0,0.0,0.0,0.0,0.0,0.0,0.0,0.0,0.0,0.0,0.0,0.0,0.0,0.0,0.0,0.0,0.0,0.0,0.0,0.0,0.0,0.0,0.0,0.0,0.0,0.0,0.0,0.0,0.0,0.0,0.0,0.0,0.0,0.0,0.0,0.0,3.372,3.41,3.4736,3.5482,3.3805,3.2469,3.1471,3.0997,3.0366,0.0,0.0,0.0,0.0,0.0,0.0,0.0,0.0,0.0,0.0,0.0,0.0,0.0,0.0,0.0,0.0,0.0,0.0,0.0,0.0,0.0,0.0,0.0,0.0,0.0,0.0,0.0,0.0,0.0,0.0,0.0,0.0,0.0,0.0,0.0,0.0,0.0,0.0,0.0,0.0,0.0,4.303,4.247,4.4526,4.5592,0.0,0.0,4.4284,4.2395,4.5138,4.5376,3.9139,0.0,0.0,0.0,0.0,0.0,0.0,0.0,0.0,0.0,0.0,0.0,0.0,0.0,0.0,0.0,0.0,0.0,0.0,0.0,0.0,0.0,0.0,0.0,0.0,0.0,0.0,0.0,0.0,0.0,0.0,0.0,0.0,0.0,0.0,0.0,0.0,0.0,0.0,0.0,0.0,0.0,0.0,0.0,0.0,0.0,0.0,0.0,0.0,0.0,0.0,0.0,0.0,0.0,3.2591,3.3395,3.482,3.5768,3.6113,3.4952,3.4064,3.3501,3.1865,3.0754,0.0,0.0,0.0,0.0,0.0,0.0,0.0,0.0,0.0,0.0,0.0,0.0,0.0,0.0,0.0,0.0,0.0,0.0,0.0,0.0,0.0,0.0,0.0,0.0,0.0,0.0,0.0,0.0,3.025,3.0426,3.0984,0.0,0.0,0.0,0.0,0.0,0.0,0.0,0.0,0.0,0.0,4.3622,4.4964,4.6324,0.0,0.0,4.618,4.5813,4.5454,4.4986,4.3479,4.0157,3.9176,0.0,0.0,0.0,0.0,0.0,0.0,0.0,0.0,0.0,0.0,0.0,0.0,0.0,0.0,0.0,0.0,0.0,0.0,0.0,0.0,0.0,0.0,0.0,0.0,0.0,0.0,0.0,0.0,0.0,0.0,0.0,0.0,0.0,0.0,0.0,0.0,0.0,0.0,0.0,0.0,0.0,0.0,0.0,0.0,0.0,0.0,0.0,0.0,0.0,0.0,0.0,0.0,3.2431,3.3111,3.5066,3.6181,3.6405,3.5671,3.5109,3.466,3.2543,3.1187,0.0,0.0,0.0,0.0,0.0,0.0,0.0,0.0,0.0,0.0,0.0,0.0,0.0,0.0,0.0,0.0,0.0,0.0,0.0,0.0,0.0,0.0,0.0,0.0,0.0,0.0,0.0,0.0,3.163,3.1511,3.1511,0.0,0.0,0.0,0.0,0.0,0.0,0.0,0.0,0.0,0.0,4.4966,4.7025,4.82,4.8732,4.8326,4.7617,4.7282,4.7557,4.5834,4.3761,4.1551,0.0,0.0,0.0,0.0,0.0,0.0,0.0,0.0,0.0,0.0,0.0,0.0,0.0,0.0,0.0,0.0,0.0,0.0,0.0,0.0,0.0,0.0,0.0,0.0,0.0,0.0,0.0,2.9972,0.0,0.0,3.1021,0.0,0.0,0.0,0.0,0.0,0.0,0.0,0.0,0.0,0.0,0.0,0.0,0.0,0.0,0.0,0.0,0.0,0.0,0.0,0.0,0.0,0.0,3.2434,3.3129,3.4684,3.5727,3.6398,3.5809,3.5303,3.4745,3.3075,3.1922,3.1402,0.0,0.0,0.0,0.0,0.0,0.0,0.0,0.0,0.0,0.0,0.0,0.0,0.0,0.0,0.0,0.0,0.0,0.0,0.0,0.0,0.0,0.0,0.0,0.0,0.0,0.0,3.2408,3.1899,3.1511,0.0,0.0,0.0,0.0,0.0,0.0,0.0,0.0,0.0,0.0,4.457,4.7457,4.8189,5.0007,5.0735,4.9457,4.9228,4.9004,4.8398,4.8685,4.7764,0.0,0.0,0.0,0.0,0.0,0.0,0.0,0.0,0.0,0.0,0.0,0.0,0.0,0.0,0.0,0.0,0.0,0.0,0.0,0.0,0.0,0.0,0.0,0.0,0.0,0.0,0.0,3.3409,3.2441,0.0,0.0,0.0,0.0,0.0,0.0,0.0,0.0,0.0,0.0,0.0,3.62,3.5864,0.0,0.0,0.0,0.0,0.0,0.0,0.0,0.0,0.0,0.0,0.0,0.0,3.4113,3.5143,3.6034,3.7007,3.8006,3.7454,3.6796,3.6278,3.4721,3.3227,3.1837,0.0,0.0,0.0,0.0,0.0,0.0,0.0,0.0,0.0,0.0,0.0,0.0,0.0,0.0,0.0,0.0,0.0,0.0,0.0,0.0,0.0,0.0,0.0,0.0,0.0,3.214,0.0,0.0,0.0,0.0,0.0,0.0,0.0,0.0,0.0,0.0,0.0,3.8807,4.1162,4.4611,4.7434,4.9029,5.0232,5.0982,0.0,0.0,0.0,0.0,0.0,0.0,0.0,0.0,0.0,0.0,0.0,0.0,0.0,0.0,4.8198,4.2158,4.0423,4.007,4.0524,0.0,0.0,0.0,0.0,0.0,0.0,0.0,0.0,0.0,0.0,0.0,0.0,0.0,0.0,3.4768,0.0,3.3587,0.0,0.0,0.0,0.0,0.0,0.0,0.0,0.0,3.6218,3.7198,3.7955,3.7634,3.7519,0.0,3.6855,3.5283,0.0,0.0,0.0,0.0,0.0,0.0,0.0,0.0,3.5031,3.588,3.6833,3.7712,3.8475,3.7937,3.7483,3.711,3.548,3.3856,3.2337,3.1522,3.0887,0.0,0.0,0.0,0.0,0.0,0.0,0.0,0.0,0.0,0.0,0.0,0.0,0.0,0.0,0.0,0.0,0.0,0.0,0.0,0.0,0.0,0.0,0.0,3.3101,0.0,0.0,0.0,0.0,0.0,0.0,0.0,0.0,0.0,3.6307,3.8307,4.0767,4.3468,4.6192,4.846,4.9992,0.0,0.0,0.0,0.0,0.0,0.0,0.0,4.763,4.7632,4.7273,4.7144,4.743,4.9749,5.1183,4.9932,0.0,0.0,4.582,4.4247,4.3854,4.4282,4.435,4.4603,4.5499,4.5293,4.5113,0.0,0.0,0.0,0.0,0.0,0.0,0.0,0.0,3.5181,3.4916,0.0,3.4167,0.0,0.0,0.0,0.0,0.0,3.5642,0.0,0.0,3.8835,4.0091,3.9553,3.9486,3.9134,3.8631,3.9732,3.8493,3.52,3.355,0.0,0.0,0.0,0.0,0.0,0.0,3.5167,3.5481,3.6968,3.7838,3.7993,3.7468,3.7163,3.7108,3.546,3.4067,3.2965,3.2783,3.2415,3.1903,3.2297,0.0,0.0,0.0,0.0,0.0,0.0,0.0,0.0,0.0,0.0,0.0,0.0,0.0,0.0,0.0,0.0,0.0,0.0,0.0,0.0,3.3967,0.0,0.0,0.0,0.0,0.0,0.0,0.0,0.0,0.0,0.0,3.8122,4.1055,4.4334,4.7242,0.0,0.0,0.0,0.0,5.2063,5.1422,5.1827,5.2267,5.2267,5.2199,5.1658,5.034,0.0,0.0,4.9526,5.0913,5.1657,4.9593,5.0507,5.1758,5.301,5.122,4.9902,4.99,4.8824,4.8075,4.8041,4.8048,4.8044,3.8442,0.0,0.0,0.0,0.0,3.9275,3.9952,4.0495,3.8667,3.7764,3.7504,3.4589,0.0,0.0,0.0,0.0,0.0,0.0,3.6979,3.789,3.9818,4.0969,4.1504,4.1542,4.1452,4.1242,4.0187,3.9145,3.8121,3.6722,3.487,3.2656,0.0,0.0,0.0,0.0,3.6974,3.7549,3.8443,3.9143,3.9671,3.9086,3.8368,3.7642,3.7382,3.6554,3.5068,3.4583,3.4006,3.3408,3.2863,0.0,0.0,0.0,0.0,0.0,0.0,0.0,0.0,0.0,0.0,0.0,0.0,0.0,0.0,0.0,0.0,0.0,0.0,0.0,3.4065,3.3928,3.4332,0.0,0.0,0.0,0.0,0.0,0.0,0.0,0.0,0.0,4.1469,4.2941,4.4463,0.0,0.0,5.0168,5.0371,5.1488,5.2435,5.2807,5.2536,0.0,5.23,5.142,5.0947,5.1555,5.2503,5.2942,5.2334,5.2739,5.2976,5.2266,5.257,5.301,5.3281,5.2097,5.098,5.0879,5.0947,5.1048,5.1048,5.1048,5.1014,3.9998,3.8239,3.9225,3.998,4.0529,4.1018,4.1625,4.2233,4.0586,3.9751,3.9495,3.6967,3.5636,3.5157,3.362,0.0,0.0,0.0,3.7962,3.9324,4.05,4.1647,4.2731,4.2731,4.2611,4.2351,4.1145,4.0187,3.9409,3.8566,3.6974,3.4581,0.0,0.0,3.5019,3.6862,3.8003,3.8392,3.908,3.9619,4.0008,3.9619,3.909,3.8442,3.84,3.7818,3.657,3.5926,3.5283,3.4606,3.4075,3.3768,0.0,0.0,0.0,0.0,0.0,0.0,0.0,0.0,0.0,0.0,0.0,3.3162,0.0,0.0,0.0,0.0,3.4143,3.4479,3.488,3.5063,0.0,0.0,0.0,0.0,0.0,0.0,0.0,3.9314,4.0537,4.1899,4.3423,4.4641,4.5952,4.7565,4.9377,5.0642,5.0913,0.0,5.2469,5.2976,5.2875,5.2773,5.2773,5.2029,5.1758,5.2638,5.3179,5.3484,5.3518,5.3518,5.3518,5.3518,5.3518,5.3518,5.3518,5.2739,5.2131,5.2131,5.2469,5.2773,5.2773,5.2773,5.2773,4.1386,4.003,4.0702,4.1633,4.2525,4.216,4.2088,4.2158,4.1549,4.1179,4.094,4.0269,3.9212,3.7924,3.7044,0.0,3.6665,3.8292,3.9431,4.0226,4.113,4.2162,4.329,4.329,4.303,4.247,4.2381,4.1392,3.9612,3.9469,3.8751,3.7524,3.7554,3.7225,3.6656,3.7764,3.8392,3.8392,3.908,3.9403,3.9403,3.9403,3.9343,3.9313,3.8721,3.8063,3.7345,3.6806,3.6178,3.5549,3.5489,3.5489,3.5489,0.0,0.0,0.0,0.0,0.0,0.0,0.0,0.0,0.0,0.0,0.0,0.0,0.0,0.0,0.0,3.5194,0.0,3.5672,3.694,0.0,0.0,0.0,4.0605,4.1465,4.1316,4.1405,4.2013,0.0,0.0,4.4157,4.5876,4.8023,5.0558,5.1055,5.1424,5.2198,5.2367,5.2401,5.2503,5.3044,5.3484,5.3416,5.3348,5.3315,5.3416,5.3518,5.3518,5.3518,5.3518,5.3518,5.3518,5.3518,5.3518,5.3518,5.345,5.3518,5.3416,5.345,5.3484,5.345,5.345,5.345,4.2605,4.2372,4.2574,4.2663,4.2726,4.3454,4.4617,4.5822,4.4414,4.3401,4.2632,4.0378,3.8505,3.7012,3.8176,3.8556,3.8447,4.0068,4.1169,4.1831,4.2563,4.2991,4.329,4.329,4.323,4.306,4.2073,4.1384,4.0876,3.9888,3.899,3.8212,3.8691,3.8362,3.7285,3.7973,3.8392,3.8392,3.908,3.9403,3.9403,3.9403,3.917,3.8631,3.8482,3.7853,3.6746,3.66,3.6178,3.5549,3.5489,3.5489,3.5489,3.5489,0.0,0.0,0.0,0.0,0.0,0.0,0.0,0.0,0.0,3.4683,3.5011,0.0,3.4711,0.0,3.5915,3.6353,3.6383,3.7707,0.0,0.0,4.2055,4.3142,4.4476,4.3965,4.3294,4.2814,4.2805,4.3136,4.3814,4.5221,4.6703,4.8058,4.9774,5.1225,5.2134,5.2841,5.3213,5.318,5.3247,5.3518,5.345,5.3518,5.3518,5.3518,5.3518,5.3518,5.3518,5.3518,5.3518,5.3518,5.3518,5.3518,5.3518,5.3518,5.3518,5.3518,5.3518,5.3518,5.3518,5.3518,5.3518,4.2718,4.2861,4.2834,4.3106,4.3539,4.4126,4.498,4.5918,4.5228,4.4495,4.3638,4.1558,4.0061,3.9266,4.0283,4.0642,4.0615,4.173,4.2432,4.2821,4.311,4.329,4.329,4.303,4.288,4.288,4.2201,4.1542,4.0965,4.0786,4.0098,3.8901,3.9529,3.9349,3.8362,3.8661,3.899,3.929,3.9343,3.9559,3.9828,3.926,3.8931,3.8841,3.8272,3.7644,3.6926,3.6626,3.6178,3.5549,3.5489,3.5489,3.5489,3.5814,3.5824,0.0,0.0,0.0,0.0,0.0,0.0,0.0,0.0,0.0,0.0,0.0,3.519,3.5878,3.6655,3.7374,3.7994,3.9507,4.0951,4.216,4.358,4.4792,4.5612,4.5466,4.5048,4.4515,4.4278,4.4158,4.4266,4.516,4.6191,4.7189,4.8336,4.9544,5.0801,5.1671,5.2098,5.2098,5.1869,5.185,5.2231,5.3011,5.3518,5.3518,5.3518,5.3518,5.3518,5.3518,5.3518,5.3518,5.3518,5.3518,5.3518,5.3518,5.3518,5.3518,5.3518,5.3518,5.3518,5.3518,5.3416,4.2257,4.2411,4.2411,4.31,4.4171,4.4219,4.4367,4.4588,4.5094,4.4915,4.4227,4.303,4.253,4.25,4.253,4.253,4.256,4.306,4.329,4.329,4.329,4.329,4.326,4.2761,4.247,4.2381,4.2321,4.1632,4.0457,4.1572,4.1205,3.9493,4.0068,4.0127,3.9559,3.9469,3.9672,4.0247,3.9798,3.9828,4.0367,3.917,3.8751,3.92,3.8003,3.7255,3.7165,3.6656,3.6088,3.5549,3.5489,3.5522,3.5651,3.6259,3.663,0.0,3.7411,0.0,0.0,0.0,0.0,0.0,0.0,0.0,0.0,3.5614,3.5878,3.6447,3.7298,3.8372,3.9777,4.136,4.2347,4.2645,4.4451,4.5737,4.5843,4.6231,4.6388,4.6086,4.6039,4.567,4.4737,4.5079,4.577,4.6476,4.6629,4.7215,4.8624,4.9641,5.0273,5.039,4.9952,5.0257,5.0758,5.1956,5.2907,5.3145,5.3213,5.3348,5.3484,5.3382,5.3382,5.345,5.3281,5.3179,5.3315,5.3247,5.3179,5.3112,5.3078,5.3179,5.345,5.3518,5.3247,4.2257,4.2361,4.2411,4.2565,4.2888,4.3377,4.421,4.5161,4.5251,4.4915,4.4257,4.3479,4.311,4.311,4.311,4.311,4.314,4.323,4.329,4.329,4.329,4.329,4.329,4.317,4.288,4.2381,4.1841,4.1175,4.0397,4.0666,4.0307,3.9469,4.0068,4.0337,4.0187,0.0,0.0,0.0,4.0008,4.0277,4.0367,3.9649,3.902,3.8571,3.7345,0.0,3.5878,3.5759,3.5639,3.5519,3.5489,0.0,0.0,0.0,0.0,0.0,0.0,0.0,0.0,0.0,0.0,0.0,3.6569,3.6384,3.6415,3.6362,3.639,3.651,3.7661,3.8841,3.9809,4.1301,4.2721,4.4029,4.5094,4.594,4.6486,4.6531,4.6225,4.541,4.5178,4.4706,4.3849,4.3696,4.3835,4.4209,4.4488,4.52,4.6299,4.7838,4.9231,5.0442,5.0376,5.0268,4.9757,4.9964,5.0834,5.1759,5.2205,5.2524,5.3146,5.2909,5.2807,5.3281,5.2503,5.1894,5.2401,5.2063,5.1726,5.1624,5.1658,5.2029,5.3213,5.3484,5.3281,4.1983,0.0,4.2582,4.3026,0.0,4.3873,4.398,4.4276,4.4317,4.4137,4.3768,4.3439,4.329,4.329,4.3,4.2851,4.2851,4.2521,4.2551,4.2851,4.2851,4.303,4.329,4.2671,4.2192,4.1901,4.1205,4.0726,4.0427,4.0726,4.0546,3.9881,4.0217,4.0247,3.9918,3.9589,3.9553,3.9888,3.9918,4.0068,4.0337,3.9439,3.8721,3.8362,3.7165,0.0,0.0,0.0,0.0,0.0,0.0,0.0,0.0,3.6964,0.0,3.8302,3.8723,3.8941,3.8941,3.9303,3.9303,3.8906,3.8474,3.7748,3.6621,3.677,3.7075,3.7439,3.8488,3.946,4.0259,4.1776,4.3105,4.3885,4.5,4.6007,4.6659,4.6629,4.6454,4.6248,4.5412,4.4586,4.412,4.3536,4.3329,4.3359,4.4004,4.4725,4.5287,4.6566,4.7832,4.8317,4.8716,4.8632,4.7965,4.8488,4.9116,4.9985,5.0549,5.1043,5.1561,5.1765,5.1928,5.2266,5.1725,5.1354,5.1623,5.1454,5.1217,5.1217,5.1217,5.142,5.2232,5.2367,5.2164,4.1539,4.3115,4.2728,4.3458,4.4923,4.4504,4.3888,4.329,0.0,0.0,0.0,4.329,4.329,4.326,4.2641,4.2381,4.2351,4.1683,4.1722,4.2231,4.2231,4.2462,4.2871,4.1893,4.1324,4.1175,4.0666,4.0337,4.0247,4.0876,4.0876,4.0307,4.0337,4.0127,3.9619,3.9589,3.9858,4.0337,3.9858,3.9858,4.0337,3.92,3.8512,3.8392,3.7165,3.6417,3.6297,3.5789,3.5489,3.5489,3.5489,3.591,3.6752,3.7411,3.8189,3.9043,3.9714,4.0146,4.0316,4.0865,4.1133,4.0996,4.0156,3.8809,3.6787,3.7225,3.7793,3.8362,3.9146,3.9933,4.0662,4.2077,4.3139,4.3292,4.4633,4.5737,4.6317,4.655,4.6614,4.6651,4.5706,4.48,4.4172,4.362,4.323,4.3298,4.4059,4.4999,4.5383,4.6485,4.6988,4.6373,4.7087,4.7082,4.632,4.6963,4.7909,4.8201,4.8969,4.9573,4.9885,5.0459,5.1017,5.1319,5.105,5.0847,5.0947,5.0845,5.0845,5.0845,5.0779,5.0811,5.0811,5.0845,5.0676,4.1055,4.1883,4.2351,4.2918,4.369,4.4146,4.3917,4.3319,4.329,4.329,4.329,4.329,4.329,4.326,4.2641,4.2381,4.2351,4.1722,4.1414,4.1572,4.1504,4.1602,4.1654,4.1482,4.1085,4.0576,4.0427,4.0098,3.9679,4.0217,4.0217,3.9672,4.0127,4.0337,4.0277,4.0277,4.0307,4.0397,4.0307,4.0307,4.0397,3.9649,3.899,3.8362,3.7165,3.6207,3.5669,3.5549,3.5489,3.5489,3.5489,3.6133,3.7531,3.7735,3.8414,3.9799,4.0028,4.0383,4.1001,4.1136,4.0875,4.013,3.9173,3.8219,3.7409,3.7883,3.8302,3.8457,3.9078,3.9763,4.0622,4.1626,4.252,4.3229,4.4164,4.4818,4.5055,4.5997,4.5965,4.4236,4.5117,4.4772,4.2666,4.2767,4.303,4.2857,4.3853,4.5311,4.6761,4.7892,4.771,4.6731,4.7473,4.7545,4.6197,4.5842,4.6389,4.7013,4.7818,4.8673,4.9376,4.9924,5.0409,5.1082,5.0202,4.9729,5.0101,4.9695,4.9526,4.9492,4.9492,4.9458,4.9492,4.9458,4.956,4.1077,4.2484,4.2156,4.2923,4.4402,4.3924,4.3419,4.2851,4.314,4.329,4.329,4.329,4.315,4.2761,4.2171,4.1624,4.1265,4.0606,4.0516,4.0846,4.0846,4.1025,4.1324,4.1025,4.0696,4.0397,4.0038,3.9888,3.9948,3.9918,3.9888,3.9918,3.9918,4.0038,4.0367,4.0038,4.0038,4.0367,4.0038,3.9858,3.9858,3.9553,3.911,3.8392,3.7793,3.7045,3.6088,3.6028,3.5878,3.5519,3.5489,3.6037,3.7054,3.7144,3.8036,3.9941,4.0107,4.0601,4.1719,4.2185,4.1999,4.1145,4.0635,3.9828,3.8547,3.8781,3.896,3.896,3.923,3.9737,4.0622,4.1462,4.2363,4.3199,4.4064,4.4756,4.5105,4.5232,4.5119,4.4463,4.4243,4.3711,4.2352,4.2206,4.2192,4.2076,4.3636,4.5664,4.7467,4.8388,4.8397,4.7236,4.6778,4.6222,4.5397,4.5208,4.5172,4.5013,4.621,4.7205,4.7877,4.863,4.9569,4.9898,4.939,4.9187,4.9492,4.9255,4.9052,4.9018,4.9018,4.9018,4.9018,4.9018,4.912,4.1468,4.3393,4.2334,4.3098,4.4725,4.3738,4.303,4.2641,4.312,4.329,4.329,4.314,4.2821,4.2351,4.1572,4.0876,4.0367,3.9709,3.9709,4.0157,4.0187,4.0457,4.0846,4.0397,4.0187,4.0127,3.9649,3.9709,4.0068,3.9679,3.9642,4.0098,3.9798,3.9978,4.0606,3.9978,3.9948,4.0516,3.9828,3.9403,3.9403,3.9403,3.908,3.8452,3.8392,3.7853,3.6776,3.6567,3.6297,3.5968,3.5669,3.5967,3.6971,3.7094,3.8068,4.0048,4.0514,4.1176,4.2409,4.287,4.2752,4.2077,4.1657,4.0826,3.9625,3.9403,3.9403,3.9403,3.9373,3.9666,4.0378,4.1395,4.23,4.2986,4.3977,4.479,4.5274,4.4767,4.4352,4.4589,4.3529,4.2669,4.2068,4.1698,4.1648,4.2377,4.3772,4.5601,4.7471,4.8287,4.815,4.7835,4.6659,4.5773,4.53,4.5184,4.4692,4.3576,4.4737,4.5905,4.6512,4.7671,4.8704,4.8993,4.9086,4.9018,4.9018,4.9018,4.9018,4.9018,4.9018,4.9018,4.9018,4.9018,4.9018,4.223,4.3405,4.3267,4.3293,4.3489,4.3349,4.323,4.317,4.326,4.329,4.32,4.2701,4.247,4.2231,4.1055,4.0457,4.0307,3.9709,3.9469,3.9493,3.9463,3.9559,3.9649,3.9523,3.9493,3.9493,3.9433,3.9433,3.9523,3.9433,3.9433,3.9553,4.0038,4.0606,4.1115,4.0606,4.0606,4.1235,4.0038,3.9403,3.9403,3.9403,3.908,3.8422,3.8392,3.8063,3.7345,3.6776,3.6716,3.7075,3.6118,3.6421,3.8114,3.8557,3.9333,4.0803,4.1665,4.2469,4.3158,4.255,4.2172,4.1917,4.0653,3.9702,3.9409,3.9403,3.9403,3.9403,3.9403,3.9481,3.9625,4.0995,4.1949,4.2269,4.3591,4.4649,4.4643,4.4527,4.3866,4.243,4.2588,4.2053,4.0474,4.0688,4.1919,4.3154,4.3759,4.5049,4.7136,4.7312,4.7458,4.8371,4.8543,4.7671,4.6389,4.6032,4.507,4.3758,4.4174,4.5065,4.5872,4.6872,4.7933,4.8608,4.9018,4.9018,4.9018,4.9018,4.9018,4.9018,4.9018,4.9018,4.9018,4.9018,4.9018,4.2786,4.4514,4.3713,4.3361,4.33,4.329,4.312,4.2791,4.314,4.312,4.2731,4.25,4.2201,4.1752,4.0816,4.0187,3.9762,3.9529,3.9403,3.9403,3.9403,3.9403,3.9403,3.9403,3.9403,3.9403,3.9403,3.9403,3.9403,3.9403,3.9403,3.9403,3.9709,4.0157,4.0696,4.0157,4.0157,4.0756,3.9888,3.9403,3.9403,3.9403,3.929,3.905,3.899,3.8691,3.8033,3.7734,3.7554,3.7404,3.6896,3.7,3.7852,3.7975,3.8905,4.0873,4.2694,4.3775,4.4079,4.3718,4.3075,4.2077,4.1362,4.055,3.9517,3.9403,3.9403,3.9403,3.9403,3.9559,4.013,4.0826,4.1396,4.2013,4.3108,4.3827,4.3831,4.3764,4.3281,4.2174,4.1734,4.1054,3.9841,3.9888,4.096,4.2479,4.3198,4.4366,4.6227,4.6623,4.6962,4.7507,4.7699,4.7093,4.5918,4.5635,4.4593,4.3091,4.3006,4.3925,4.4791,4.6115,4.7274,4.8061,4.8639,4.8954,4.9018,4.9018,4.9018,4.9018,4.9018,4.9018,4.9018,4.9018,4.9018,4.377,4.527,4.4211,4.3507,4.3319,4.329,4.306,4.2731,4.312,4.306,4.268,4.25,4.2141,4.1632,4.0786,4.0038,3.9433,3.9403,3.9403,3.9403,3.9403,3.9403,3.9403,3.9403,3.9403,3.9403,3.9403,3.9403,3.9403,3.9403,3.9403,3.9403,3.9403,3.9738,4.0247,3.9702,3.9738,4.0277,3.9768,3.9403,3.9403,3.9403,3.9403,3.9403,3.9403,3.917,3.8691,3.8482,3.8272,3.7938,3.7614,3.7584,3.7943,3.8004,3.9102,4.1463,4.3498,4.4468,4.427,4.4035,4.3259,4.1853,4.1461,4.0758,3.9702,3.9403,3.9403,3.9403,3.9403,3.9702,4.0205,4.0554,4.0964,4.1593,4.2583,4.3259,4.3353,4.3139,4.2709,4.2013,4.1024,4.01,3.9589,3.9505,4.0117,4.1783,4.2526,4.3554,4.5228,4.6181,4.6519,4.6752,4.6819,4.6291,4.5205,4.4896,4.3776,4.2493,4.2247,4.3021,4.3727,4.5383,4.6782,4.7704,4.8416,4.8923,4.9018,4.9018,4.9018,4.9018,4.9018,4.9018,4.9018,4.9018,4.9018,4.5653,4.599,4.4833,4.3867,4.329,4.329,4.329,4.32,4.329,4.326,4.314,4.2641,4.2381,4.2201,4.1025,4.0068,3.9463,3.9433,3.9433,3.9403,3.9403,3.9403,3.9403,3.9403,3.9403,3.9403,3.9403,3.9403,3.9403,3.9403,3.9403,3.9403,3.9403,3.9738,4.0187,3.9672,3.9738,4.0247,3.9702,3.9403,3.9403,3.9403,3.9403,3.9403,3.9403,3.9343,3.929,3.8751,3.8661,3.929,3.8153,3.8003,3.9086,3.9467,4.0607,4.282,4.4035,4.4275,4.3535,4.2865,4.1949,4.0992,4.0374,3.9589,3.9481,3.9481,3.9481,3.9409,3.9403,3.9445,3.9625,4.017,4.0622,4.0927,4.23,4.3139,4.3323,4.2707,4.2109,4.1756,4.0585,3.9631,3.9409,3.9403,4.027,4.1526,4.2078,4.2969,4.4993,4.5703,4.5945,4.6355,4.6439,4.6149,4.4526,4.4191,4.3336,4.1925,4.1588,4.2561,4.384,4.5065,4.6233,4.7407,4.8353,4.8892,4.8987,4.9018,4.9018,4.9018,4.9018,4.9018,4.9018,4.9018,4.9018,4.5478,4.5603,4.4706,4.3888,4.3319,4.329,4.329,4.329,4.329,4.329,4.326,4.309,4.2521,4.1752,4.1722,4.1055,4.0098,4.0038,3.9828,3.9433,3.9403,3.9403,3.9403,3.9403,3.9403,3.9403,3.9403,3.9403,3.9403,3.9403,3.9403,3.9403,3.9403,3.9523,3.9642,3.9523,3.9702,4.0277,3.9768,3.9619,3.9918,3.9619,3.9403,3.9403,3.9403,3.9403,3.9403,3.917,3.917,3.9373,3.8895,3.8901,3.9391,3.999,4.0946,4.2395,4.3718,4.4556,4.4679,4.4042,4.3136,4.2326,4.1516,4.0516,3.9773,3.9849,4.0025,3.9553,3.9403,3.9403,3.9445,3.9702,4.0065,4.0758,4.1723,4.2738,4.3108,4.3017,4.2614,4.1917,4.0481,3.9409,3.9553,3.9879,4.069,4.1788,4.2458,4.3421,4.451,4.5021,4.5014,4.4619,4.4507,4.3924,4.222,4.2933,4.2889,4.127,4.0651,4.1355,4.2413,4.4342,4.5709,4.6736,4.7868,4.8829,4.8892,4.9018,4.9018,4.9018,4.9018,4.9018,4.9018,4.9018,4.9018,4.5534,4.5191,4.4586,4.3928,4.3319,4.329,4.329,4.329,4.329,4.329,4.329,4.329,4.2701,4.1931,4.2201,4.1654,4.0487,4.0397,4.0038,3.9469,3.9403,3.9403,3.9403,3.9403,3.9403,3.9403,3.9403,3.9403,3.9403,3.9403,3.9403,3.9403,3.9403,3.9403,3.9403,3.9403,3.9679,3.9918,3.9619,3.9612,3.9978,3.9649,3.9403,3.9403,3.9403,3.9403,3.9403,3.9403,3.9403,3.9403,3.9403,3.9403,3.9481,4.0419,4.1304,4.1972,4.3202,4.4189,4.4619,4.4085,4.336,4.2815,4.2237,4.1362,4.006,4.0378,4.0205,3.9631,3.9373,3.9445,3.9773,3.9814,4.0095,4.069,4.1462,4.2363,4.3169,4.329,4.2894,4.2013,4.0758,3.9955,3.9844,4.003,4.0622,4.1462,4.2332,4.3199,4.3977,4.444,4.4298,4.3502,4.3449,4.2713,4.1551,4.1796,4.1849,4.0436,4.0217,4.0696,4.161,4.3546,4.5066,4.6127,4.7205,4.8289,4.8861,4.8987,4.9018,4.9018,4.9018,4.9018,4.9018,4.9018,4.9018,4.5891,4.5244,4.4586,4.3928,4.3349,4.329,4.329,4.329,4.329,4.329,4.329,4.326,4.2821,4.2381,4.2261,4.1632,4.0487,4.0367,4.0038,3.9433,3.9403,3.9403,3.9403,3.9403,3.9403,3.9403,3.9403,3.9403,3.9403,3.9403,3.9403,3.9403,3.9403,3.9403,3.9403,3.9403,3.9403,3.9493,3.9499,3.9469,3.9403,3.9469,3.9403,3.9403,3.9403,3.9403,3.9433,3.9403,3.9403,3.9403,3.9403,3.9403,3.9571,4.0649,4.1581,4.179,4.257,4.3035,4.3201,4.2784,4.2527,4.2462,4.2174,4.1755,4.0961,4.086,4.0585,3.9773,3.9589,3.9773,4.0378,4.0416,4.0554,4.0826,4.1626,4.2489,4.2986,4.3262,4.2986,4.2173,4.1264,4.0727,4.0519,4.0274,4.0343,4.0995,4.1884,4.2839,4.379,4.4409,4.4251,4.3568,4.315,4.2494,4.1522,4.0653,4.0196,3.9781,4.0141,4.0643,4.1498,4.3069,4.449,4.5631,4.697,4.8032,4.8545,4.8671,4.8987,4.9018,4.9018,4.9018,4.9018,4.9018,4.9018,4.5933,4.5244,4.4586,4.3888,4.3319,4.329,4.329,4.329,4.329,4.329,4.32,4.2851,4.2351,4.1841,4.1722,4.0995,3.9828,4.0127,4.0038,3.9493,3.9403,3.9433,3.9433,3.9403,3.9403,3.9403,3.9403,3.9403,3.9403,3.9403,3.9403,3.9403,3.9403,3.9403,3.9403,3.9403,3.9589,4.0008,3.9649,3.9582,3.9978,3.9649,3.9403,3.9403,3.9403,3.9582,4.0038,3.9679,3.9403,3.9403,3.9403,3.9403,3.9505,3.9841,4.0609,4.1639,4.2424,4.3759,4.5016,4.4202,4.3686,4.4039,4.348,4.2522,4.1852,4.2141,4.1755,4.0585,4.0274,4.0274,3.9915,3.9778,4.0343,4.1462,4.2331,4.2614,4.2583,4.252,4.2583,4.2769,4.2109,4.1396,4.0961,4.0656,4.1028,4.1393,4.2591,4.3764,4.4619,4.4942,4.4682,4.3517,4.3137,4.2396,4.1065,4.0335,4.0172,3.995,4.0171,4.0636,4.1498,4.247,4.3865,4.5246,4.6597,4.7506,4.7998,4.8385,4.8671,4.8987,4.9018,4.9018,4.9018,4.9018,4.9018,4.6142,4.5274,4.4855,4.4137,4.3349,4.329,4.329,4.329,4.329,4.329,4.317,4.268,4.2051,4.1512,4.1422,4.0786,3.9918,4.0457,4.0397,3.9858,3.9798,3.9888,4.0068,3.9858,3.9582,3.9403,3.9403,3.9403,3.9403,3.9403,3.9403,3.9403,3.9403,3.9403,3.9433,3.9679,4.0008,4.0307,4.0247,4.0247,4.0337,4.0247,3.9918,3.9523,3.9612,3.9858,3.9971,3.9649,3.9529,3.9679,3.9589,3.9493,3.9738,4.0074,4.0564,4.1431,4.2339,4.3524,4.5206,4.4554,4.4658,4.5452,4.4897,4.3809,4.3159,4.3307,4.252,4.1095,4.0964,4.0826,4.013,4.0239,4.086,4.182,4.2045,4.2395,4.2363,4.2769,4.2986,4.3108,4.2489,4.1658,4.1129,4.069,4.1062,4.1256,4.2687,4.4033,4.4713,4.5257,4.4599,4.3879,4.3233,4.2045,4.0359,4.0014,4.0194,4.0157,4.0187,4.0696,4.1378,4.2274,4.3448,4.4767,4.6099,4.707,4.7605,4.7998,4.8321,4.8608,4.9018,4.9018,4.9018,4.9018,4.9018,4.6416,4.5334,4.5274,4.4496,4.3379,4.329,4.329,4.329,4.329,4.329,4.317,4.2521,4.2021,4.1572,4.1392,4.0905,4.0636,4.0995,4.1085,4.0696,4.0606,4.0786,4.0905,4.0487,3.9978,3.9463,3.9403,3.9469,3.9553,3.9553,3.9463,3.9679,3.9702,3.9553,3.9768,4.0157,4.0337,4.0457,4.0905,4.0846,4.0367,4.0876,4.0696,3.9553,3.9948,4.0068,3.9888,3.9768,3.9858,4.0157,3.9679,3.9679,4.0337,4.0965,4.1063,4.1475,4.2059,4.3015,4.3899,4.4381,4.4951,4.6344,4.5909,4.5345,4.4486,4.3938,4.3121,4.1586,4.1978,4.1978,4.1413,4.1353,4.1753,4.169,4.1429,4.1756,4.3017,4.3739,4.3591,4.3108,4.2458,4.1658,4.0826,4.017,3.9884,4.0217,4.1891,4.3297,4.4136,4.4958,4.5121,4.4555,4.3717,4.2239,4.0675,4.0134,4.0314,4.0337,4.0457,4.1025,4.1534,4.2363,4.293,4.4271,4.5374,4.6346,4.7172,4.7506,4.8161,4.8767,4.8987,4.9018,4.9018,4.9018,4.9018,4.5667,4.5334,4.5274,4.4526,4.3379,4.329,4.329,4.329,4.329,4.329,4.308,4.2132,4.1901,4.2021,4.1115,4.0786,4.1115,4.1354,4.1692,4.1871,4.1901,4.1294,4.0786,4.0516,4.0098,3.9559,3.9523,3.9679,4.0098,4.0157,4.0367,4.0846,4.0726,4.0786,4.0876,4.0516,4.0397,4.0397,4.0576,4.0427,4.0008,4.0427,4.0487,4.0217,3.9888,4.0157,4.0726,4.0876,4.0427,3.9672,3.9529,3.9709,4.0337,4.0277,4.0756,4.1871,4.191,4.2614,4.4164,4.4696,4.54,4.6347,4.6096,4.5587,4.5408,4.5182,4.4507,4.3774,4.4101,4.4075,4.3255,4.237,4.1551,4.0436,4.1024,4.1819,4.2205,4.252,4.2583,4.2363,4.2109,4.1528,4.0826,4.0413,4.017,4.0566,4.2111,4.391,4.4365,4.5578,4.6176,4.5268,4.4302,4.2701,4.1395,4.0728,4.0404,4.0487,4.0846,4.1474,4.2043,4.2749,4.3118,4.3702,4.451,4.5416,4.6349,4.707,4.7868,4.8608,4.8954,4.8954,4.9018,4.9018,4.9018,4.587,4.5304,4.5274,4.4526,4.3379,4.329,4.329,4.329,4.329,4.329,4.305,4.2282,4.2051,4.2291,4.1602,4.1414,4.1803,4.2073,4.2291,4.2291,4.2351,4.1961,4.1384,4.1205,4.0876,4.0307,4.0247,4.0487,4.0756,4.0816,4.1055,4.1175,4.1115,4.0995,4.0876,4.0935,4.0816,4.0935,4.1265,4.1294,4.0756,4.0995,4.0995,4.0846,4.0427,4.0696,4.1294,4.1422,4.0876,4.0127,4.0098,4.0427,4.0756,4.0756,4.1205,4.2381,4.2222,4.2924,4.4044,4.4741,4.5629,4.652,4.6398,4.6331,4.6376,4.6081,4.5208,4.4397,4.4691,4.4197,4.3242,4.2435,4.1474,4.0455,4.1364,4.2139,4.1558,4.182,4.1756,4.1593,4.1396,4.1129,4.0274,4.017,4.017,4.0532,4.2079,4.3359,4.4301,4.5932,4.6723,4.5621,4.4432,4.2868,4.1794,4.1096,4.0598,4.0613,4.1611,4.2204,4.2617,4.3139,4.318,4.3457,4.3927,4.451,4.5525,4.6486,4.7205,4.7868,4.8513,4.8954,4.8987,4.9018,4.9018,4.6416,4.5274,4.5274,4.4526,4.3409,4.329,4.329,4.329,4.329,4.329,4.314,4.2641,4.244,4.247,4.2291,4.241,4.2491,4.291,4.2851,4.2671,4.259,4.247,4.2372,4.2201,4.1811,4.1265,4.1392,4.1422,4.1482,4.1512,4.1564,4.1654,4.1205,4.0876,4.1175,4.1354,4.1474,4.1654,4.2342,4.2402,4.1991,4.2021,4.1931,4.1572,4.1482,4.1422,4.1572,4.1542,4.1235,4.0666,4.1055,4.1145,4.1324,4.1931,4.2291,4.25,4.283,4.318,4.3765,4.4465,4.553,4.6774,4.6717,4.6937,4.7234,4.6457,4.5404,4.4755,4.4287,4.3759,4.259,4.2529,4.2119,4.1158,4.2011,4.2113,4.1304,4.1392,4.1528,4.0724,4.0554,4.0135,3.9702,3.9469,3.9601,4.0436,4.1983,4.3292,4.4268,4.5474,4.5857,4.5293,4.4139,4.297,4.2122,4.1423,4.1012,4.0898,4.2319,4.3092,4.3279,4.3554,4.3379,4.3448,4.3723,4.4159,4.4887,4.5742,4.6488,4.7373,4.8127,4.8639,4.8987,4.9018,4.9018,4.558,4.5274,4.5274,4.4556,4.3409,4.329,4.329,4.329,4.329,4.329,4.317,4.2641,4.2671,4.306,4.271,4.2641,4.303,4.323,4.32,4.314,4.312,4.312,4.3,4.2641,4.2081,4.1632,4.1452,4.1722,4.2051,4.2231,4.2402,4.2761,4.2491,4.2671,4.2512,4.2102,4.2201,4.2231,4.253,4.2342,4.2051,4.2201,4.2321,4.2141,4.2171,4.2171,4.2201,4.2201,4.2111,4.1811,4.1242,4.1055,4.1324,4.1205,4.1743,4.2671,4.2731,4.2878,4.346,4.4311,4.5232,4.6354,4.6683,4.6872,4.772,4.6964,4.6223,4.5963,4.5785,4.4816,4.3561,4.4015,4.3237,4.2034,4.2046,4.235,4.1492,4.1063,4.0674,4.0081,3.9798,3.9625,3.9469,4.0008,4.0275,4.0685,4.1787,4.329,4.4203,4.5014,4.5136,4.4917,4.4192,4.317,4.2522,4.206,4.1991,4.201,4.3199,4.4048,4.4243,4.4167,4.4051,4.3693,4.3329,4.3966,4.4849,4.5116,4.5921,4.6866,4.7803,4.8321,4.8736,4.8861,4.9018,4.5914,4.5334,4.5274,4.4526,4.3409,4.329,4.329,4.329,4.329,4.329,4.323,4.294,4.303,4.326,4.3,4.303,4.323,4.329,4.329,4.329,4.329,4.329,4.326,4.303,4.2611,4.2312,4.2312,4.2551,4.2761,4.2821,4.297,4.32,4.306,4.2731,4.288,4.259,4.2381,4.247,4.2671,4.2611,4.2432,4.2321,4.2381,4.25,4.2641,4.2791,4.2791,4.2821,4.2641,4.2321,4.1713,4.1444,4.1803,4.1803,4.2333,4.2931,4.306,4.294,4.3476,4.4205,4.5227,4.6138,4.6679,4.7468,4.7943,4.7563,4.7078,4.6881,4.6437,4.5627,4.447,4.4031,4.3349,4.2478,4.2259,4.2213,4.152,4.0904,4.0593,4.0237,4.0164,4.0224,4.0367,4.0636,4.0537,4.075,4.1985,4.3326,4.3169,4.3976,4.4733,4.4671,4.4158,4.3473,4.2842,4.2685,4.3063,4.3486,4.4436,4.5043,4.529,4.5091,4.4825,4.4555,4.4365,4.4358,4.5042,4.5227,4.5525,4.6384,4.7306,4.7966,4.8576,4.8892,4.9018,4.6501,4.5274,4.5274,4.4526,4.3409,4.329,4.329,4.329,4.329,4.329,4.329,4.329,4.323,4.329,4.326,4.329,4.329,4.329,4.329,4.329,4.329,4.329,4.326,4.323,4.32,4.329,4.317,4.323,4.323,4.329,4.32,4.32,4.2851,4.2761,4.2611,4.256,4.262,4.2671,4.3,4.317,4.311,4.2791,4.2611,4.2701,4.297,4.32,4.32,4.317,4.306,4.259,4.256,4.253,4.2611,4.2851,4.323,4.326,4.323,4.323,4.3457,4.4243,4.5227,4.6138,4.7038,4.7998,4.8478,4.8093,4.7572,4.7241,4.673,4.5889,4.5079,4.4651,4.3907,4.3229,4.2962,4.2491,4.1942,4.1235,4.11,4.1063,4.0816,4.0726,4.1025,4.1362,4.1048,4.1049,4.2379,4.3104,4.2941,4.3331,4.434,4.4596,4.4094,4.4034,4.3506,4.3719,4.4054,4.4667,4.5568,4.603,4.6424,4.6595,4.6419,4.5925,4.5746,4.5634,4.5488,4.567,4.6028,4.6384,4.697,4.7901,4.8482,4.8923,4.9018,4.6531,4.5274,4.5274,4.4556,4.3409,4.3319,4.3319,4.329,4.329,4.329,4.329,4.329,4.329,4.329,4.329,4.3319,4.3379,4.3349,4.3319,4.3349,4.3319,4.329,4.329,4.329,4.329,4.329,4.329,4.329,4.329,4.329,4.329,4.329,4.317,4.312,4.309,4.311,4.309,4.303,4.324,4.329,4.326,4.317,4.309,4.309,4.323,4.329,4.329,4.329,4.323,4.318,4.314,4.311,4.303,4.2821,4.291,4.317,4.329,4.329,4.3448,4.4282,4.5227,4.6103,4.7172,4.7998,4.8513,4.8257,4.7868,4.7473,4.6934,4.6138,4.5996,4.5566,4.5606,4.5336,4.4756,4.4278,4.3881,4.3031,4.2032,4.1912,4.1595,4.1354,4.1713,4.2008,4.1934,4.2181,4.327,4.3422,4.2942,4.3655,4.4729,4.4582,4.4131,4.4208,4.4205,4.4691,4.5164,4.5662,4.6448,4.711,4.7572,4.8192,4.8129,4.7306,4.6662,4.6349,4.6279,4.6279,4.6523,4.6936,4.744,4.7901,4.8482,4.9018,4.9018,4.6711,4.5843,4.5843,4.5065,4.3988,4.3798,4.3589,4.3319,4.329,4.329,4.329,4.329,4.329,4.329,4.329,4.3469,4.3678,4.3409,4.3499,4.3648,4.3469,4.329,4.329,4.329,4.329,4.329,4.329,4.329,4.329,4.329,4.329,4.329,4.329,4.329,4.329,4.326,4.329,4.329,4.329,4.329,4.329,4.329,4.329,4.329,4.329,4.329,4.329,4.329,4.329,4.329,4.329,4.329,4.32,4.312,4.3,4.323,4.3329,4.3329,4.3615,4.4593,4.5778,4.6276,4.744,4.8416,4.8733,4.8608,4.8289,4.8096,4.7506,4.6934,4.6934,4.6558,4.6244,4.6138,4.5778,4.5561,4.5243,4.4322,4.3495,4.2826,4.2379,4.2248,4.2491,4.2685,4.2796,4.3426,4.4267,4.3933,4.3233,4.4268,4.5471,4.5067,4.4803,4.5257,4.5487,4.5985,4.6355,4.6848,4.721,4.7899,4.8289,4.8736,4.8639,4.8161,4.7671,4.7239,4.7038,4.707,4.7306,4.7473,4.7704,4.7998,4.8608,4.9018,4.9018,4.6705,4.6279,4.6279,4.5633,4.4616,4.4496,4.4227,4.3738,4.3559,4.3529,4.3469,4.3349,4.329,4.3349,4.3499,4.3798,4.4257,4.3678,4.3828,4.4018,4.3589,4.329,4.329,4.329,4.329,4.329,4.329,4.329,4.329,4.329,4.329,4.329,4.329,4.329,4.329,4.329,4.329,4.329,4.329,4.329,4.329,4.329,4.329,4.329,4.329,4.329,4.329,4.329,4.329,4.329,4.329,4.329,4.329,4.329,4.329,4.3329,4.3488,4.3654,4.4327,4.5421,4.6523,4.6696,4.8096,4.8798,4.8987,4.8923,4.8923,4.8861,4.8385,4.7868,4.7803,4.7273,4.6968,4.6765,4.6558,4.6173,4.5961,4.5321,4.438,4.3724,4.3158,4.2917,4.3,4.3088,4.3067,4.3741,4.4587,4.5008,4.4591,4.553,4.6292,4.5814,4.5747,4.6355,4.684,4.7386,4.7751,4.8085,4.8249,4.8574,4.8767,4.8987,4.8798,4.8608,4.8673,4.8257,4.8031,4.7868,4.8031,4.8095,4.7933,4.8161,4.8767,4.9018,4.9018,4.5874,4.6279,4.6309,4.5873,4.5244,4.5185,4.5155,4.4904,4.4366,4.4197,4.3916,4.3589,4.3349,4.3469,4.3958,4.4197,4.4276,4.4157,4.4197,4.4317,4.3648,4.329,4.329,4.329,4.329,4.329,4.329,4.329,4.329,4.329,4.329,4.329,4.329,4.329,4.329,4.329,4.329,4.329,4.329,4.329,4.329,4.329,4.329,4.329,4.329,4.329,4.329,4.329,4.329,4.329,4.329,4.329,4.329,4.329,4.329,4.3566,4.409,4.4968,4.5597,4.6592,4.7273,4.7406,4.8385,4.8892,4.9018,4.9018,4.9018,4.9018,4.8829,4.8702,4.8639,4.8639,4.8608,4.7966,4.7172,4.707,4.69,4.5416,4.4586,4.4403,4.3785,4.3374,4.32,4.3298,4.3413,4.4174,4.4879,4.5333,4.5763,4.6538,4.6887,4.6346,4.6481,4.709,4.7462,4.8108,4.8545,4.8984,4.8984,4.9018,4.9018,4.9018,4.9018,4.8923,4.9018,4.9018,4.8639,4.8545,4.8767,4.8671,4.8482,4.8608,4.8923,4.9018,4.9018,4.4255,4.5801,4.5801,4.5841,4.5861,4.5873,4.5226,4.4461,4.4686,4.4246,4.3519,4.3775,4.3858,4.3807,4.4227,4.4766,4.5125,4.4665,4.4556,4.4556,4.3888,4.3349,4.329,4.329,4.329,4.329,4.329,4.329,4.329,4.329,4.329,4.329,4.329,4.329,4.329,4.329,4.329,4.329,4.329,4.329,4.329,4.329,4.329,4.329,4.329,4.329,4.329,4.329,4.329,4.329,4.329,4.329,4.329,4.3369,4.3488,4.4197,4.451,4.493,4.5416,4.6831,4.744,4.7836,4.8418,4.8987,4.9018,4.9018,4.9018,4.9018,4.9018,4.9018,4.9018,4.9018,4.9018,4.8576,4.7671,4.7868,4.744,4.5561,4.4472,4.4472,4.4327,4.3849,4.3527,4.3858,4.419,4.4903,4.5757,4.6486,4.6638,4.6821,4.6989,4.6752,4.7158,4.7736,4.7939,4.8345,4.868,4.8984,4.9018,4.9018,4.9018,4.9018,4.9018,4.9018,4.9018,4.9018,4.9018,4.8987,4.8892,4.8923,4.9018,4.9018,4.9018,4.9018,4.9018,4.2425,4.4442,4.4766,4.5219,4.5595,4.5595,4.4792,4.3668,4.4196,4.3675,4.274,4.2963,4.3324,4.3512,4.365,4.4366,4.5602,4.4756,4.4828,4.4702,4.4377,4.3718,4.3499,4.3409,4.3469,4.325,4.329,4.329,4.329,4.329,4.329,4.329,4.329,4.329,4.329,4.329,4.329,4.329,4.329,4.329,4.329,4.329,4.329,4.329,4.329,4.329,4.329,4.329,4.329,4.329,4.329,4.329,4.329,4.3329,4.3566,4.412,4.451,4.4812,4.5447,4.6451,4.7473,4.8096,4.845,4.9018,4.9018,4.9018,4.9018,4.9018,4.9018,4.9018,4.9018,4.9018,4.9018,4.8736,4.8129,4.8482,4.8354,4.6413,4.5147,4.5159,4.4825,4.3858,4.381,4.4358,4.4968,4.5674,4.6565,4.744,4.7617,4.7474,4.7597,4.7564,4.7834,4.8342,4.8443,4.868,4.8951,4.9018,4.9018,4.9018,4.9018,4.9018,4.9018,4.9018,4.9018,4.9018,4.9018,4.9018,4.9018,4.9018,4.9018,4.9018,4.9018,4.9018,4.9018,4.0592,4.1985,4.3122,4.3665,4.3817,4.3657,4.3629,4.3266,4.2963,4.2544,4.1914,4.133,4.1243,4.1446,4.2514,4.3482,4.4629,4.444,4.466,4.5005,4.5053,4.395,4.3442,4.3294,4.3515,4.307,4.278,4.286,4.321,4.2981,4.317,4.329,4.329,4.329,4.329,4.329,4.329,4.329,4.329,4.3349,4.3349,4.3349,4.3319,4.3349,4.3319,4.329,4.329,4.329,4.329,4.329,4.329,4.329,4.329,4.329,4.3527,4.3693,4.4205,4.4548,4.5153,4.6486,4.7868,4.8608,4.8954,4.9018,4.9018,4.9018,4.9018,4.912,4.9221,4.9154,4.912,4.9018,4.9187,4.8801,4.8453,4.8487,4.8262,4.7199,4.612,4.5989,4.5421,4.4631,4.4327,4.4893,4.4812,4.5416,4.6488,4.7408,4.8155,4.8225,4.8517,4.8646,4.868,4.8883,4.8883,4.9018,4.9018,4.9018,4.9018,4.9018,4.9018,4.9018,4.9018,4.9018,4.9018,4.9018,4.9018,4.9018,4.9018,4.9018,4.9018,4.9018,4.9018,4.9018,4.9018,3.9981,4.0465,4.0969,4.2084,4.3476,4.3476,4.3074,4.2517,4.2876,4.2766,4.1984,4.089,4.0807,4.159,4.1892,4.3153,4.46,4.3652,4.4028,4.3962,4.3603,4.2581,4.2038,4.1953,4.1725,4.1438,4.1323,4.1699,4.2193,4.2234,4.282,4.305,4.309,4.329,4.329,4.329,4.329,4.3319,4.3349,4.3439,4.3838,4.3499,4.3469,4.3928,4.3409,4.3319,4.329,4.329,4.329,4.329,4.329,4.329,4.329,4.329,4.329,4.329,4.381,4.4197,4.4968,4.6451,4.7966,4.8767,4.9018,4.9018,4.9052,4.9018,4.9289,4.9458,4.9661,4.9695,4.9695,4.9661,4.9596,4.907,4.8845,4.8818,4.8463,4.773,4.7087,4.6953,4.6372,4.5602,4.5493,4.5493,4.5227,4.5079,4.624,4.7306,4.8031,4.8639,4.8829,4.8892,4.8892,4.9018,4.9018,4.9018,4.9018,4.9018,4.9018,4.9018,4.9018,4.9018,4.9018,4.9018,4.9018,4.9018,4.9018,4.9018,4.9018,4.9018,4.9018,4.9018,4.9018,4.9018,4.9018,3.9697,3.9697,3.9697,4.0693,4.2279,4.2377,4.1781,4.1057,4.1644,4.1758,4.1066,3.9884,4.0072,4.1039,4.1334,4.2132,4.3274,4.2995,4.3064,4.3118,4.2793,4.1552,4.1056,4.0869,4.1023,4.0106,3.9929,4.049,4.1085,4.1085,4.142,4.1906,4.2345,4.2426,4.329,4.329,4.329,4.3319,4.3559,4.3738,4.4197,4.4167,4.4067,4.4466,4.3977,4.3678,4.3589,4.3499,4.329,4.329,4.329,4.329,4.329,4.329,4.329,4.3319,4.3369,4.3723,4.4662,4.6346,4.7803,4.8353,4.8892,4.9089,4.9255,4.9323,4.9695,5.0338,5.0439,5.0439,5.0439,5.0405,5.0338,4.9976,4.9883,4.9853,4.9585,4.9028,4.8397,4.7898,4.7227,4.6521,4.6099,4.6028,4.6237,4.6024,4.6659,4.7406,4.7737,4.8289,4.8704,4.8767,4.8767,4.8892,4.9018,4.9018,4.9018,4.9018,4.9018,4.9018,4.9018,4.9018,4.9018,4.9018,4.9018,4.9018,4.9018,4.9018,4.9018,4.9018,4.9018,4.9018,4.9018,4.9018,4.9018,3.9697,3.9697,3.9697,3.98,4.0032,3.9852,3.96,3.9272,3.9271,3.9093,3.8761,3.8356,3.8586,3.9296,3.9903,4.0908,4.1879,4.1807,4.1957,4.2418,4.2412,4.1909,4.126,4.0768,4.0313,3.9986,3.9601,3.9523,3.9929,3.9929,4.0059,4.0331,4.0788,4.1438,4.312,4.325,4.325,4.3439,4.4047,4.4227,4.4616,4.4885,4.5005,4.5095,4.4646,4.4287,4.4227,4.3738,4.3529,4.3499,4.3349,4.3349,4.3439,4.3349,4.3349,4.3409,4.3379,4.3459,4.3666,4.6131,4.7402,4.8001,4.866,4.931,4.9837,5.0103,5.0371,5.1082,5.1183,5.1183,5.1183,5.1183,5.1116,5.0882,5.0754,5.0689,5.042,5.0452,4.9825,4.9227,4.8266,4.7372,4.6793,4.655,4.7032,4.727,4.7473,4.7671,4.7737,4.8193,4.8671,4.8767,4.8798,4.8861,4.9018,4.9018,4.9018,4.9018,4.9052,4.9086,4.9086,4.9086,4.9086,4.9052,4.9154,4.9323,4.9187,4.9052,4.9187,4.9357,4.9052,4.9018,4.9018,4.9052,4.9086,3.9697,3.9697,3.9697,3.9697,3.9697,3.9697,3.9371,3.8843,3.8542,3.8592,3.8868,3.8417,3.8567,3.9145,3.9373,4.0057,4.1193,4.0541,4.0761,4.1746,4.1489,4.0447,3.9875,3.9778,3.9346,3.8423,3.8132,3.8523,3.8693,3.8827,3.9326,3.9722,4.0007,4.1295,4.2273,4.2643,4.2761,4.4214,4.4586,4.4676,4.5484,4.5484,4.5544,4.5903,4.5304,4.4975,4.4915,4.4317,4.3988,4.3828,4.3648,4.3589,4.3738,4.3678,4.3589,4.3828,4.3988,4.4227,4.472,4.6268,4.722,4.7945,4.8718,4.9426,4.9859,5.0521,5.1121,5.1725,5.1928,5.1961,5.1928,5.1928,5.1792,5.1386,5.1221,5.1323,5.1255,5.1524,5.1326,5.0789,4.9956,4.969,4.9227,4.8362,4.8531,4.8431,4.8563,4.7869,4.7737,4.8321,4.8892,4.8892,4.8923,4.8954,4.9018,4.912,4.939,4.956,4.9424,4.9255,4.9255,4.939,4.9289,4.9357,4.9492,4.9627,4.9593,4.956,4.9695,4.9695,4.956,4.9187,4.9018,4.912,4.9255,3.9697,3.9697,3.9697,3.9697,3.9697,3.9697,3.9371,3.8818,3.8291,3.8542,3.9069,3.8617,3.8793,3.9371,3.9498,3.955,4.0818,4.016,3.9878,4.0794,4.016,3.955,3.9171,3.8869,3.8613,3.7663,3.7486,3.7766,3.8173,3.807,3.8495,3.9011,3.9497,4.0296,4.1357,4.2265,4.3316,4.4674,4.5125,4.5412,4.5992,4.6202,4.6262,4.6352,4.6082,4.5663,4.5454,4.5065,4.4556,4.4347,4.4197,4.4047,4.4197,4.4257,4.4157,4.4556,4.4706,4.5005,4.5642,4.604,4.6969,4.7715,4.8674,4.9388,4.9939,5.0657,5.1631,5.2269,5.2605,5.2706,5.2672,5.2672,5.2503,5.2097,5.2097,5.2198,5.2198,5.2435,5.2164,5.1692,5.1354,5.132,5.1319,5.0782,5.0183,4.9884,4.9586,4.8728,4.7968,4.8617,4.9094,4.9001,4.9027,4.9086,4.9221,4.939,4.9661,5.0033,4.9965,4.983,5.0067,5.0304,4.9999,4.9763,5.0135,5.0338,5.0168,5.0135,5.0371,5.0405,5.027,4.9796,4.9187,4.9221,4.9492,3.9697,3.9697,3.9697,3.9697,3.9697,3.9697,3.9396,3.8868,3.8316,3.8417,3.8919,3.902,3.9195,3.9597,3.9672,3.975,3.9878,3.9749,3.98,3.9852,3.98,3.932,3.912,3.8944,3.8617,3.8266,3.799,3.8038,3.8038,3.8007,3.813,3.8132,3.8216,3.9416,4.0884,4.2513,4.3835,4.5004,4.5717,4.6058,4.6471,4.689,4.698,4.695,4.6651,4.6381,4.6142,4.5723,4.5125,4.4885,4.4885,4.4766,4.4796,4.4975,4.5185,4.5334,4.5334,4.5723,4.6202,4.6533,4.6743,4.741,4.7839,4.9026,5.0249,5.1076,5.2134,5.2842,5.3247,5.3348,5.3382,5.3382,5.3315,5.3213,5.3213,5.3213,5.3145,5.2976,5.2604,5.2198,5.1827,5.1758,5.1758,5.1454,5.1217,5.1017,5.052,4.9821,4.9224,4.915,4.9439,4.9085,4.9112,4.9224,4.9424,4.9796,5.0101,5.0507,5.0777,5.0777,5.1014,5.105,5.071,5.0608,5.098,5.115,5.1319,5.1251,5.1183,5.115,5.1082,5.0608,5.0033,4.9695,4.983,3.9697,3.9697,3.9697,3.9697,3.9697,3.9697,3.9597,3.9396,3.8868,3.8944,3.9446,3.9471,3.9521,3.9697,3.9697,3.9697,3.9697,3.9697,3.9697,3.9697,3.9697,3.9597,3.9496,3.9371,3.9069,3.8793,3.8592,3.8442,3.809,3.804,3.804,3.7989,3.8165,3.9411,4.0887,4.2606,4.4021,4.523,4.6013,4.6535,4.686,4.7189,4.7309,4.7189,4.71,4.692,4.677,4.6352,4.5843,4.5813,4.5424,4.5274,4.5843,4.5514,4.5394,4.5992,4.6082,4.6279,4.689,4.701,4.71,4.7219,4.7543,4.8649,5.0159,5.1556,5.2567,5.3179,5.3484,5.3518,5.3518,5.3518,5.3518,5.3518,5.3518,5.3484,5.3416,5.3315,5.2942,5.2841,5.2503,5.2469,5.2435,5.2198,5.1961,5.186,5.1524,5.0889,5.0353,5.0278,5.0042,4.9686,4.9686,4.9936,5.0101,5.0439,5.071,5.098,5.1352,5.1623,5.1792,5.1725,5.1386,5.1386,5.1657,5.2198,5.2773,5.2536,5.2029,5.1995,5.1894,5.1386,5.0881,5.0509,5.0475,3.9697,3.9697,3.9697,3.9697,3.9697,3.9697,3.9697,3.9622,3.9346,3.9421,3.9672,3.9672,3.9697,3.9697,3.9697,3.9697,3.9697,3.9697,3.9697,3.9697,3.9697,3.9672,3.9697,3.9672,3.9471,3.927,3.917,3.9044,3.8642,3.8442,3.8417,3.8743,3.8944,3.9798,4.1138,4.2733,4.4051,4.5232,4.6211,4.6837,4.716,4.7309,4.7309,4.7309,4.7309,4.7309,4.7279,4.68,4.6578,4.6429,4.5963,4.6112,4.6471,4.6112,4.6172,4.6681,4.6741,4.686,4.7189,4.7249,4.7279,4.7439,4.7636,4.8553,4.9623,5.0865,5.2139,5.3179,5.3348,5.3518,5.3518,5.3518,5.3518,5.3518,5.3518,5.3518,5.3518,5.3518,5.3484,5.345,5.3416,5.3382,5.3247,5.2909,5.2773,5.2706,5.2638,5.2369,5.1695,5.122,5.0948,5.0617,5.0684,5.0879,5.1014,5.1116,5.1386,5.1758,5.2232,5.2469,5.257,5.257,5.2401,5.23,5.2233,5.2807,5.3281,5.3145,5.2807,5.2739,5.2672,5.2435,5.1928,5.1319,5.1488,3.9697,3.9697,3.9697,3.9697,3.9697,3.9697,3.9697,3.9697,3.9647,3.9697,3.9697,3.9697,3.9697,3.9697,3.9697,3.9697,3.9697,3.9697,3.9697,3.9697,3.9697,3.9697,3.9697,3.9697,3.9622,3.9672,3.9622,3.9446,3.9471,3.922,3.9145,3.9647,3.9245,3.9777,4.1013,4.2732,4.3975,4.4829,4.6211,4.7219,4.7249,4.7309,4.7309,4.7309,4.7309,4.7309,4.7309,4.7189,4.704,4.683,4.677,4.689,4.683,4.683,4.71,4.7189,4.716,4.7189,4.7279,4.7309,4.7309,4.7581,4.8115,4.8543,4.9296,5.0627,5.2062,5.287,5.3076,5.3416,5.3518,5.3518,5.3518,5.3518,5.3518,5.3518,5.3518,5.3518,5.3518,5.3518,5.3518,5.3518,5.3484,5.3145,5.3112,5.3315,5.3315,5.3213,5.2909,5.2198,5.1894,5.1623,5.1792,5.186,5.1623,5.1792,5.2097,5.2503,5.2909,5.3112,5.3078,5.3247,5.345,5.3145,5.2841,5.3112,5.3416,5.3281,5.3247,5.3247,5.3247,5.3416,5.2976,5.2232,5.2232,3.9697,3.9697,3.9697,3.9697,3.9697,3.9697,3.9697,3.9697,3.9697,3.9697,3.9697,3.9697,3.9697,3.9697,3.9697,3.9697,3.9697,3.9697,3.9697,3.9697,3.9697,3.9697,3.9697,3.9697,3.9697,3.9697,3.9697,3.9697,3.9647,3.9546,3.9496,3.9672,3.9446,3.9956,4.0617,4.2377,4.3834,4.4535,4.6211,4.7222,4.7309,4.7309,4.7309,4.7309,4.7309,4.7309,4.7309,4.7279,4.7219,4.716,4.7189,4.7189,4.71,4.7249,4.7279,4.7309,4.7309,4.7309,4.7309,4.7309,4.7309,4.7309,4.7679,4.8157,4.9054,5.0595,5.1704,5.2312,5.2904,5.328,5.3518,5.3518,5.3518,5.3518,5.3518,5.3518,5.3518,5.3518,5.3518,5.3518,5.3518,5.3518,5.3518,5.3518,5.3518,5.3484,5.3484,5.3416,5.3416,5.2976,5.2875,5.2706,5.2909,5.2909,5.2536,5.2401,5.2672,5.2773,5.3044,5.3281,5.3518,5.3518,5.3518,5.3518,5.345,5.3518,5.3518,5.3484,5.3484,5.3518,5.3518,5.3518,5.3518,5.2942,5.3044,3.9697,3.9697,3.9697,3.9697,3.9697,3.9697,3.9697,3.9697,3.9697,3.9697,3.9697,3.9697,3.9697,3.9697,3.9697,3.9697,3.9697,3.9697,3.9697,3.9697,3.9697,3.9697,3.9697,3.9697,3.9697,3.9697,3.9697,3.9697,3.9697,3.9697,3.9672,3.9697,3.9697,3.9981,4.0618,4.2447,4.3787,4.4442,4.6344,4.7135,4.7309,4.7309,4.7309,4.7309,4.7309,4.7309,4.7309,4.7309,4.7309,4.7279,4.7309,4.7309,4.7249,4.7279,4.7309,4.7309,4.7309,4.7309,4.7309,4.7309,4.7309,4.7309,4.7309,4.7849,4.88,5.0242,5.1266,5.1957,5.2973,5.345,5.3484,5.3518,5.3518,5.3518,5.3518,5.3518,5.3518,5.3518,5.3518,5.3518,5.3518,5.3518,5.3518,5.3518,5.3518,5.3518,5.3518,5.3518,5.3518,5.3518,5.3518,5.3518,5.3518,5.3484,5.3112,5.3044,5.3179,5.3247,5.3213,5.3348,5.3518,5.3518,5.3518,5.3518,5.3518,5.3518,5.3518,5.3518,5.3518,5.3518,5.3518,5.3518,5.3518,5.3518,5.345,3.9697,3.9697,3.9697,3.9697,3.9697,3.9697,3.9697,3.9697,3.9697,3.9697,3.9697,3.9697,3.9697,3.9697,3.9697,3.9697,3.9697,3.9697,3.9697,3.9697,3.9697,3.9697,3.9697,3.9697,3.9697,3.9697,3.9697,3.9697,3.9697,3.9697,3.9697,3.9697,3.9929,4.0211,4.1468,4.2786,4.3882,4.4886,4.6166,4.7106,4.7309,4.7309,4.7309,4.7309,4.7309,4.7309,4.7309,4.7309,4.7309,4.7309,4.7309,4.7309,4.7309,4.7309,4.7309,4.7309,4.7309,4.7309,4.7309,4.7309,4.7309,4.7309,4.7309,4.7807,4.8759,4.9813,5.0855,5.1885,5.2904,5.345,5.3484,5.3518,5.3518,5.3518,5.3518,5.3518,5.3518,5.3518,5.3518,5.3518,5.3518,5.3518,5.3518,5.3518,5.3518,5.3518,5.3518,5.3518,5.3518,5.3518,5.3518,5.3518,5.3518,5.3484,5.345,5.345,5.345,5.345,5.3382,5.345,5.3518,5.3518,5.3518,5.3518,5.3518,5.3518,5.3518,5.3518,5.3518,5.3518,5.3518,5.3518,5.3518,5.3518,5.3518,3.9697,3.9697,3.9697,3.9697,3.9697,3.9697,3.9697,3.9697,3.9697,3.9697,3.9697,3.9697,3.9697,3.9697,3.9697,3.9697,3.9697,3.9697,3.9697,3.9697,3.9697,3.9697,3.9697,3.9697,3.9697,3.9697,3.9697,3.9697,3.9697,3.9697,3.9697,3.9697,3.9697,3.9929,4.0364,4.1936,4.374,4.4674,4.6077,4.7309,4.7309,4.7309,4.7309,4.7309,4.7309,4.7309,4.7309,4.7309,4.7309,4.7309,4.7309,4.7309,4.7309,4.7309,4.7309,4.7309,4.7309,4.7309,4.7309,4.7309,4.7309,4.7309,4.7409,4.7849,4.8841,4.9852,5.0892,5.1993,5.287,5.3382,5.3518,5.3518,5.3518,5.3518,5.3518,5.3518,5.3518,5.3518,5.3518,5.3518,5.3518,5.3518,5.3518,5.3518,5.3518,5.3518,5.3518,5.3518,5.3518,5.3518,5.3518,5.3518,5.3518,5.3518,5.3484,5.3484,5.3484,5.3518,5.3518,5.3518,5.3518,5.3518,5.3518,5.3518,5.3518,5.3518,5.3518,5.3518,5.3518,5.3518,5.3518,5.3518,5.3518,5.3518,5.3518]}]]